<?xml version='1.0' encoding='UTF-8'?><gpx version="1.1" creator="JPX - https://github.com/jenetics/jpx" xmlns="http://www.topografix.com/GPX/1/1"><trk><trkseg><trkpt lat="45.06389975479567" lon="7.708724293736314"><ele>240.0</ele><time>2026-04-06T07:56:54.999Z</time></trkpt><trkpt lat="45.063950898751415" lon="7.708823559510063"><ele>240.0</ele><time>2026-04-06T07:56:57.999Z</time></trkpt><trkpt lat="45.0639733556909" lon="7.708916634317872"><ele>240.0</ele><time>2026-04-06T07:57:00.999Z</time></trkpt><trkpt lat="45.064018785567946" lon="7.709009629847168"><ele>240.0</ele><time>2026-04-06T07:57:03.999Z</time></trkpt><trkpt lat="45.06406583608722" lon="7.709104859375334"><ele>240.0</ele><time>2026-04-06T07:57:06.999Z</time></trkpt><trkpt lat="45.06408531181588" lon="7.709207851161132"><ele>240.0</ele><time>2026-04-06T07:57:09.999Z</time></trkpt><trkpt lat="45.06413445907671" lon="7.709312938774053"><ele>240.0</ele><time>2026-04-06T07:57:12.999Z</time></trkpt><trkpt lat="45.0641705845622" lon="7.709396684085307"><ele>240.0</ele><time>2026-04-06T07:57:14.999Z</time></trkpt><trkpt lat="45.06421186123599" lon="7.70949325290659"><ele>240.0</ele><time>2026-04-06T07:57:16.998Z</time></trkpt><trkpt lat="45.06427065871788" lon="7.709559200586503"><ele>240.0</ele><time>2026-04-06T07:57:18.998Z</time></trkpt><trkpt lat="45.06434764330044" lon="7.709504661991695"><ele>240.0</ele><time>2026-04-06T07:57:20.998Z</time></trkpt><trkpt lat="45.06443675682767" lon="7.709449808645242"><ele>240.0</ele><time>2026-04-06T07:57:22.998Z</time></trkpt><trkpt lat="45.064516098519114" lon="7.709397425424196"><ele>239.66666666666666</ele><time>2026-04-06T07:57:24.998Z</time></trkpt><trkpt lat="45.06459190854998" lon="7.709341896335656"><ele>239.33333333333331</ele><time>2026-04-06T07:57:26.998Z</time></trkpt><trkpt lat="45.06466696097603" lon="7.709264260772187"><ele>239.0</ele><time>2026-04-06T07:57:28.998Z</time></trkpt><trkpt lat="45.06472200795963" lon="7.709168609797015"><ele>238.66666666666666</ele><time>2026-04-06T07:57:30.998Z</time></trkpt><trkpt lat="45.064781763864104" lon="7.709091745736164"><ele>238.33333333333331</ele><time>2026-04-06T07:57:32.998Z</time></trkpt><trkpt lat="45.064864788262376" lon="7.70902538532639"><ele>238.0</ele><time>2026-04-06T07:57:34.998Z</time></trkpt><trkpt lat="45.0649635081245" lon="7.708963863294161"><ele>237.0</ele><time>2026-04-06T07:57:36.998Z</time></trkpt><trkpt lat="45.06505811467989" lon="7.70889783176488"><ele>236.0</ele><time>2026-04-06T07:57:38.998Z</time></trkpt><trkpt lat="45.06516099419924" lon="7.708858651020724"><ele>235.0</ele><time>2026-04-06T07:57:40.998Z</time></trkpt><trkpt lat="45.065267257705116" lon="7.7087746280312"><ele>234.0</ele><time>2026-04-06T07:57:42.998Z</time></trkpt><trkpt lat="45.06537393612695" lon="7.70868383826742"><ele>234.0</ele><time>2026-04-06T07:57:44.998Z</time></trkpt><trkpt lat="45.06543103595167" lon="7.708638464684034"><ele>234.0</ele><time>2026-04-06T07:57:45.998Z</time></trkpt><trkpt lat="45.06548651527667" lon="7.708591128698067"><ele>234.0</ele><time>2026-04-06T07:57:46.998Z</time></trkpt><trkpt lat="45.065548166831725" lon="7.708552716173578"><ele>234.0</ele><time>2026-04-06T07:57:47.998Z</time></trkpt><trkpt lat="45.06560645525991" lon="7.708501011897261"><ele>234.0</ele><time>2026-04-06T07:57:48.998Z</time></trkpt><trkpt lat="45.06572187576188" lon="7.708409917509522"><ele>234.0</ele><time>2026-04-06T07:57:50.998Z</time></trkpt><trkpt lat="45.06578634203193" lon="7.708364302447837"><ele>233.0</ele><time>2026-04-06T07:57:51.998Z</time></trkpt><trkpt lat="45.065856145665165" lon="7.708316860554111"><ele>232.0</ele><time>2026-04-06T07:57:52.998Z</time></trkpt><trkpt lat="45.06592637477755" lon="7.708270634686775"><ele>231.0</ele><time>2026-04-06T07:57:53.998Z</time></trkpt><trkpt lat="45.06599223705227" lon="7.708214084310325"><ele>230.0</ele><time>2026-04-06T07:57:54.998Z</time></trkpt><trkpt lat="45.06606125809677" lon="7.708158448408319"><ele>229.0</ele><time>2026-04-06T07:57:55.998Z</time></trkpt><trkpt lat="45.066131832929166" lon="7.70809892991098"><ele>228.0</ele><time>2026-04-06T07:57:56.998Z</time></trkpt><trkpt lat="45.066199140201405" lon="7.70804401524007"><ele>228.0</ele><time>2026-04-06T07:57:57.998Z</time></trkpt><trkpt lat="45.06626974221724" lon="7.707990142951835"><ele>228.0</ele><time>2026-04-06T07:57:58.998Z</time></trkpt><trkpt lat="45.06634186888227" lon="7.707931636948327"><ele>228.0</ele><time>2026-04-06T07:57:59.997Z</time></trkpt><trkpt lat="45.06641904028302" lon="7.707885636698051"><ele>228.0</ele><time>2026-04-06T07:58:00.997Z</time></trkpt><trkpt lat="45.06647781502441" lon="7.7078282519877765"><ele>228.0</ele><time>2026-04-06T07:58:01.997Z</time></trkpt><trkpt lat="45.0665686947554" lon="7.707773551084884"><ele>228.0</ele><time>2026-04-06T07:58:03.997Z</time></trkpt><trkpt lat="45.06663790734022" lon="7.707754524899833"><ele>227.25</ele><time>2026-04-06T07:58:06Z</time></trkpt><trkpt lat="45.06672334552118" lon="7.707968079082156"><ele>226.5</ele><time>2026-04-06T07:58:09Z</time></trkpt><trkpt lat="45.06676001353522" lon="7.708124354006238"><ele>225.75</ele><time>2026-04-06T07:58:11Z</time></trkpt><trkpt lat="45.06682439922998" lon="7.708270319687909"><ele>225.0</ele><time>2026-04-06T07:58:13Z</time></trkpt><trkpt lat="45.06688742865148" lon="7.708413762755224"><ele>225.0</ele><time>2026-04-06T07:58:15Z</time></trkpt><trkpt lat="45.0669399703764" lon="7.708569330695576"><ele>225.0</ele><time>2026-04-06T07:58:17Z</time></trkpt><trkpt lat="45.06699009073511" lon="7.7087241327039955"><ele>225.0</ele><time>2026-04-06T07:58:19Z</time></trkpt><trkpt lat="45.06702735120632" lon="7.708801542462176"><ele>225.0</ele><time>2026-04-06T07:58:20Z</time></trkpt><trkpt lat="45.06709254180296" lon="7.708954650810141"><ele>225.0</ele><time>2026-04-06T07:58:22Z</time></trkpt><trkpt lat="45.06716386336298" lon="7.709106916464327"><ele>225.16666666666666</ele><time>2026-04-06T07:58:24Z</time></trkpt><trkpt lat="45.06720169778603" lon="7.709191371519834"><ele>225.33333333333331</ele><time>2026-04-06T07:58:25Z</time></trkpt><trkpt lat="45.06725243436727" lon="7.709360995210799"><ele>225.5</ele><time>2026-04-06T07:58:27Z</time></trkpt><trkpt lat="45.067268987400915" lon="7.709448253808605"><ele>225.66666666666666</ele><time>2026-04-06T07:58:28Z</time></trkpt><trkpt lat="45.06728780969094" lon="7.709544622482882"><ele>225.83333333333331</ele><time>2026-04-06T07:58:29Z</time></trkpt><trkpt lat="45.067306045857876" lon="7.709641466945396"><ele>226.0</ele><time>2026-04-06T07:58:30Z</time></trkpt><trkpt lat="45.06732474819146" lon="7.709732033724932"><ele>226.28571428571428</ele><time>2026-04-06T07:58:31Z</time></trkpt><trkpt lat="45.06734191874949" lon="7.709826000680435"><ele>226.57142857142856</ele><time>2026-04-06T07:58:32Z</time></trkpt><trkpt lat="45.06735833562201" lon="7.709921081115734"><ele>226.85714285714283</ele><time>2026-04-06T07:58:33Z</time></trkpt><trkpt lat="45.06737530336987" lon="7.710014965415639"><ele>227.14285714285714</ele><time>2026-04-06T07:58:33.999Z</time></trkpt><trkpt lat="45.06739214804006" lon="7.7101056490611155"><ele>227.4285714285714</ele><time>2026-04-06T07:58:34.999Z</time></trkpt><trkpt lat="45.06740883242238" lon="7.710195086579097"><ele>227.7142857142857</ele><time>2026-04-06T07:58:35.999Z</time></trkpt><trkpt lat="45.06742600952784" lon="7.710285478465922"><ele>228.0</ele><time>2026-04-06T07:58:36.999Z</time></trkpt><trkpt lat="45.06744252119799" lon="7.710377035119247"><ele>227.33333333333334</ele><time>2026-04-06T07:58:37.999Z</time></trkpt><trkpt lat="45.067476183234426" lon="7.710543035985055"><ele>226.66666666666669</ele><time>2026-04-06T07:58:39.999Z</time></trkpt><trkpt lat="45.06750357046487" lon="7.710677553433923"><ele>226.0</ele><time>2026-04-06T07:58:41.999Z</time></trkpt><trkpt lat="45.06751985319994" lon="7.710795130226796"><ele>225.33333333333334</ele><time>2026-04-06T07:58:43.999Z</time></trkpt><trkpt lat="45.067522987192845" lon="7.710890061465091"><ele>224.66666666666669</ele><time>2026-04-06T07:58:45.999Z</time></trkpt><trkpt lat="45.06753502829951" lon="7.710979630348078"><ele>224.0</ele><time>2026-04-06T07:58:47.999Z</time></trkpt><trkpt lat="45.0674626847531" lon="7.710986611859275"><ele>224.50000000000003</ele><time>2026-04-06T07:58:48.999Z</time></trkpt><trkpt lat="45.06738978463995" lon="7.711003635584685"><ele>225.0</ele><time>2026-04-06T07:58:50.999Z</time></trkpt><trkpt lat="45.067317040989096" lon="7.711090689840151"><ele>225.5</ele><time>2026-04-06T07:58:52.999Z</time></trkpt><trkpt lat="45.06724569597779" lon="7.711125427250985"><ele>226.0</ele><time>2026-04-06T07:58:54.999Z</time></trkpt><trkpt lat="45.06715787829792" lon="7.71117499919379"><ele>226.50000000000003</ele><time>2026-04-06T07:58:56.999Z</time></trkpt><trkpt lat="45.067096533180525" lon="7.711223118041836"><ele>227.0</ele><time>2026-04-06T07:58:58.999Z</time></trkpt><trkpt lat="45.06701197769952" lon="7.711264398024196"><ele>227.0</ele><time>2026-04-06T07:59:00.999Z</time></trkpt><trkpt lat="45.066956758751495" lon="7.711313157568884"><ele>227.00000000000003</ele><time>2026-04-06T07:59:02.999Z</time></trkpt><trkpt lat="45.06689360407938" lon="7.7113598289543805"><ele>227.0</ele><time>2026-04-06T07:59:04.999Z</time></trkpt><trkpt lat="45.06680417669704" lon="7.711426764927488"><ele>227.0</ele><time>2026-04-06T07:59:07.999Z</time></trkpt><trkpt lat="45.06674408396648" lon="7.7114614612564365"><ele>227.00000000000003</ele><time>2026-04-06T07:59:09.999Z</time></trkpt><trkpt lat="45.06667841811853" lon="7.7115114472873785"><ele>227.0</ele><time>2026-04-06T07:59:11.999Z</time></trkpt><trkpt lat="45.066622016245205" lon="7.711560912838547"><ele>227.0</ele><time>2026-04-06T07:59:13.999Z</time></trkpt><trkpt lat="45.06656035363953" lon="7.711608192480956"><ele>228.00000000000003</ele><time>2026-04-06T07:59:15.999Z</time></trkpt><trkpt lat="45.06648533321254" lon="7.71167602136881"><ele>229.0</ele><time>2026-04-06T07:59:18.999Z</time></trkpt><trkpt lat="45.06641266286252" lon="7.711737568012478"><ele>230.0</ele><time>2026-04-06T07:59:21.999Z</time></trkpt><trkpt lat="45.066353805547806" lon="7.711780619256008"><ele>231.0</ele><time>2026-04-06T07:59:23.998Z</time></trkpt><trkpt lat="45.066261245255774" lon="7.711841559693248"><ele>232.00000000000003</ele><time>2026-04-06T07:59:26.998Z</time></trkpt><trkpt lat="45.06618634253892" lon="7.7119286174489305"><ele>233.0</ele><time>2026-04-06T07:59:29.998Z</time></trkpt><trkpt lat="45.06610783177371" lon="7.711980765452592"><ele>233.33333333333334</ele><time>2026-04-06T07:59:32.998Z</time></trkpt><trkpt lat="45.06603182128179" lon="7.712045377573873"><ele>233.66666666666669</ele><time>2026-04-06T07:59:35.998Z</time></trkpt><trkpt lat="45.066001180988" lon="7.7121476116521075"><ele>234.0</ele><time>2026-04-06T07:59:38.998Z</time></trkpt><trkpt lat="45.06600784849605" lon="7.712236889659152"><ele>234.33333333333331</ele><time>2026-04-06T07:59:40.998Z</time></trkpt><trkpt lat="45.06604300731429" lon="7.712347569337819"><ele>234.66666666666666</ele><time>2026-04-06T07:59:43.998Z</time></trkpt><trkpt lat="45.06605497085232" lon="7.7124543704854025"><ele>235.0</ele><time>2026-04-06T07:59:45.998Z</time></trkpt><trkpt lat="45.066063010435144" lon="7.712550001550426"><ele>235.0</ele><time>2026-04-06T07:59:47.998Z</time></trkpt><trkpt lat="45.066090599994716" lon="7.712644711354326"><ele>234.99999999999997</ele><time>2026-04-06T07:59:49.998Z</time></trkpt><trkpt lat="45.06609599158627" lon="7.712742649630132"><ele>235.0</ele><time>2026-04-06T07:59:51.998Z</time></trkpt><trkpt lat="45.066114798446584" lon="7.7128436807897955"><ele>235.0</ele><time>2026-04-06T07:59:53.998Z</time></trkpt><trkpt lat="45.066143507682256" lon="7.712940778878532"><ele>234.99999999999997</ele><time>2026-04-06T07:59:55.998Z</time></trkpt><trkpt lat="45.066148150959116" lon="7.713049235194001"><ele>235.0</ele><time>2026-04-06T07:59:57.998Z</time></trkpt><trkpt lat="45.066165635706504" lon="7.7131531769892945"><ele>235.0</ele><time>2026-04-06T07:59:59.998Z</time></trkpt><trkpt lat="45.06618445181576" lon="7.713277977130881"><ele>235.99999999999997</ele><time>2026-04-06T08:00:01.998Z</time></trkpt><trkpt lat="45.06619443252558" lon="7.713397397738744"><ele>237.0</ele><time>2026-04-06T08:00:03.998Z</time></trkpt><trkpt lat="45.066206989504195" lon="7.713524492786651"><ele>238.0</ele><time>2026-04-06T08:00:05.998Z</time></trkpt><trkpt lat="45.066234649607686" lon="7.713658621429497"><ele>239.0</ele><time>2026-04-06T08:00:07.998Z</time></trkpt><trkpt lat="45.06623178003107" lon="7.71374813011639"><ele>239.99999999999997</ele><time>2026-04-06T08:00:08.998Z</time></trkpt><trkpt lat="45.06627760060054" lon="7.713856391838451"><ele>241.0</ele><time>2026-04-06T08:00:10.997Z</time></trkpt><trkpt lat="45.06628841445155" lon="7.713994162246312"><ele>241.20000000000002</ele><time>2026-04-06T08:00:13Z</time></trkpt><trkpt lat="45.06630615385903" lon="7.714120530192849"><ele>241.40000000000003</ele><time>2026-04-06T08:00:15Z</time></trkpt><trkpt lat="45.06634187139988" lon="7.7142461929196"><ele>241.6</ele><time>2026-04-06T08:00:17Z</time></trkpt><trkpt lat="45.06635912063082" lon="7.71435169321415"><ele>241.8</ele><time>2026-04-06T08:00:19Z</time></trkpt><trkpt lat="45.06638097951049" lon="7.714481311799422"><ele>242.0</ele><time>2026-04-06T08:00:21Z</time></trkpt><trkpt lat="45.06641330414799" lon="7.714607027067064"><ele>241.2</ele><time>2026-04-06T08:00:23Z</time></trkpt><trkpt lat="45.06644379888061" lon="7.714753010726028"><ele>240.39999999999998</ele><time>2026-04-06T08:00:25Z</time></trkpt><trkpt lat="45.066469553880864" lon="7.714906933191474"><ele>239.60000000000002</ele><time>2026-04-06T08:00:27Z</time></trkpt><trkpt lat="45.0664927778522" lon="7.715076305670432"><ele>238.8</ele><time>2026-04-06T08:00:29Z</time></trkpt><trkpt lat="45.0665282119051" lon="7.715198801494617"><ele>238.0</ele><time>2026-04-06T08:00:31Z</time></trkpt><trkpt lat="45.066543197482005" lon="7.71533235511964"><ele>238.0</ele><time>2026-04-06T08:00:33Z</time></trkpt><trkpt lat="45.066574203423734" lon="7.71546957544302"><ele>238.0</ele><time>2026-04-06T08:00:35Z</time></trkpt><trkpt lat="45.066629237856446" lon="7.715581555108482"><ele>238.0</ele><time>2026-04-06T08:00:37Z</time></trkpt><trkpt lat="45.066663695659706" lon="7.715716532672971"><ele>238.0</ele><time>2026-04-06T08:00:38.999Z</time></trkpt><trkpt lat="45.06671139769061" lon="7.71585116655435"><ele>238.0</ele><time>2026-04-06T08:00:40.999Z</time></trkpt><trkpt lat="45.06676870931086" lon="7.715993752737035"><ele>237.16666666666666</ele><time>2026-04-06T08:00:42.999Z</time></trkpt><trkpt lat="45.066813402136" lon="7.716124974637276"><ele>236.33333333333331</ele><time>2026-04-06T08:00:44.999Z</time></trkpt><trkpt lat="45.06684118392697" lon="7.716247780937858"><ele>235.5</ele><time>2026-04-06T08:00:46.999Z</time></trkpt><trkpt lat="45.0668767049361" lon="7.716355233895334"><ele>234.66666666666669</ele><time>2026-04-06T08:00:48.999Z</time></trkpt><trkpt lat="45.066893178718914" lon="7.716461921736951"><ele>233.83333333333334</ele><time>2026-04-06T08:00:53.999Z</time></trkpt><trkpt lat="45.06691615758804" lon="7.716569537140407"><ele>233.0</ele><time>2026-04-06T08:00:57.999Z</time></trkpt><trkpt lat="45.066920339053446" lon="7.716725563238699"><ele>233.00000000000003</ele><time>2026-04-06T08:01:00.999Z</time></trkpt><trkpt lat="45.06691911258267" lon="7.716832258554511"><ele>233.0</ele><time>2026-04-06T08:01:02.999Z</time></trkpt><trkpt lat="45.06691765220459" lon="7.7169384434916655"><ele>233.0</ele><time>2026-04-06T08:01:04.999Z</time></trkpt><trkpt lat="45.06692729090322" lon="7.717048135983369"><ele>233.0</ele><time>2026-04-06T08:01:06.999Z</time></trkpt><trkpt lat="45.066923668846535" lon="7.717195664614802"><ele>233.00000000000003</ele><time>2026-04-06T08:01:09.999Z</time></trkpt><trkpt lat="45.066911835940594" lon="7.717300343225436"><ele>233.0</ele><time>2026-04-06T08:01:11.999Z</time></trkpt><trkpt lat="45.06691061326943" lon="7.717396079091242"><ele>234.0</ele><time>2026-04-06T08:01:13.999Z</time></trkpt><trkpt lat="45.06690455274109" lon="7.717503262706151"><ele>235.0</ele><time>2026-04-06T08:01:15.999Z</time></trkpt><trkpt lat="45.06690154510284" lon="7.717618665788411"><ele>236.0</ele><time>2026-04-06T08:01:18.999Z</time></trkpt><trkpt lat="45.06706376467996" lon="7.717619423826251"><ele>237.0</ele><time>2026-04-06T08:01:21.999Z</time></trkpt><trkpt lat="45.06714577769194" lon="7.717618400868225"><ele>238.0</ele><time>2026-04-06T08:01:23.999Z</time></trkpt><trkpt lat="45.06723203687596" lon="7.717634110948695"><ele>237.99999999999997</ele><time>2026-04-06T08:01:25.999Z</time></trkpt><trkpt lat="45.06731764201247" lon="7.717626957095672"><ele>238.0</ele><time>2026-04-06T08:01:27.999Z</time></trkpt><trkpt lat="45.067412749033636" lon="7.717615507877366"><ele>238.0</ele><time>2026-04-06T08:01:29.998Z</time></trkpt><trkpt lat="45.067506473966944" lon="7.717632140518295"><ele>238.0</ele><time>2026-04-06T08:01:31.998Z</time></trkpt><trkpt lat="45.067569657557215" lon="7.71765734888583"><ele>237.99999999999997</ele><time>2026-04-06T08:01:33.998Z</time></trkpt><trkpt lat="45.06756981265438" lon="7.717800622123432"><ele>238.0</ele><time>2026-04-06T08:01:36.998Z</time></trkpt><trkpt lat="45.06756809686748" lon="7.717907451992222"><ele>236.71428571428572</ele><time>2026-04-06T08:01:38.998Z</time></trkpt><trkpt lat="45.06755882710234" lon="7.718021646965202"><ele>235.42857142857144</ele><time>2026-04-06T08:01:40.998Z</time></trkpt><trkpt lat="45.06755113934107" lon="7.718125243847712"><ele>234.14285714285714</ele><time>2026-04-06T08:01:42.998Z</time></trkpt><trkpt lat="45.067544484328195" lon="7.718228530304895"><ele>232.85714285714286</ele><time>2026-04-06T08:01:44.998Z</time></trkpt><trkpt lat="45.06752553479962" lon="7.718319533220335"><ele>231.57142857142858</ele><time>2026-04-06T08:01:46.998Z</time></trkpt><trkpt lat="45.06753388785215" lon="7.718410251795789"><ele>230.28571428571428</ele><time>2026-04-06T08:01:48.998Z</time></trkpt><trkpt lat="45.06751995519679" lon="7.718502784544132"><ele>229.0</ele><time>2026-04-06T08:01:50.998Z</time></trkpt><trkpt lat="45.06751223083616" lon="7.718594265389901"><ele>228.99999999999997</ele><time>2026-04-06T08:01:52.998Z</time></trkpt><trkpt lat="45.06750062456938" lon="7.718728257648639"><ele>229.0</ele><time>2026-04-06T08:01:55.998Z</time></trkpt><trkpt lat="45.067497232851764" lon="7.7188183755621775"><ele>229.0</ele><time>2026-04-06T08:01:57.998Z</time></trkpt><trkpt lat="45.06747999867099" lon="7.718905374561013"><ele>229.0</ele><time>2026-04-06T08:01:59.998Z</time></trkpt><trkpt lat="45.06742229430629" lon="7.7190121203864495"><ele>228.99999999999997</ele><time>2026-04-06T08:02:02.998Z</time></trkpt><trkpt lat="45.067401978347775" lon="7.719117416035757"><ele>229.0</ele><time>2026-04-06T08:02:04.998Z</time></trkpt><trkpt lat="45.067364795863234" lon="7.719195170906773"><ele>231.16666666666666</ele><time>2026-04-06T08:02:06.998Z</time></trkpt><trkpt lat="45.06732400045147" lon="7.7192650047427644"><ele>233.33333333333331</ele><time>2026-04-06T08:02:08.998Z</time></trkpt><trkpt lat="45.067284348180884" lon="7.719350085266867"><ele>235.5</ele><time>2026-04-06T08:02:10.998Z</time></trkpt><trkpt lat="45.06725437186012" lon="7.719447586548994"><ele>237.66666666666669</ele><time>2026-04-06T08:02:12.998Z</time></trkpt><trkpt lat="45.06721446615629" lon="7.719554060648499"><ele>239.83333333333334</ele><time>2026-04-06T08:02:14.998Z</time></trkpt><trkpt lat="45.067195261097886" lon="7.719685433268162"><ele>242.0</ele><time>2026-04-06T08:02:16.998Z</time></trkpt><trkpt lat="45.06716707982241" lon="7.719805877904715"><ele>242.0</ele><time>2026-04-06T08:02:19Z</time></trkpt><trkpt lat="45.06716727588793" lon="7.71996002795194"><ele>242.0</ele><time>2026-04-06T08:02:21Z</time></trkpt><trkpt lat="45.06715887950186" lon="7.7201163982796395"><ele>242.0</ele><time>2026-04-06T08:02:23Z</time></trkpt><trkpt lat="45.06715784207127" lon="7.720265025137729"><ele>242.0</ele><time>2026-04-06T08:02:25Z</time></trkpt><trkpt lat="45.06716313775419" lon="7.720416681590973"><ele>242.0</ele><time>2026-04-06T08:02:27Z</time></trkpt><trkpt lat="45.067179271299516" lon="7.720571233008628"><ele>241.83333333333334</ele><time>2026-04-06T08:02:29Z</time></trkpt><trkpt lat="45.06720587994778" lon="7.720703726965386"><ele>241.66666666666669</ele><time>2026-04-06T08:02:31Z</time></trkpt><trkpt lat="45.06719404249522" lon="7.720818789069642"><ele>241.5</ele><time>2026-04-06T08:02:33Z</time></trkpt><trkpt lat="45.06712832744434" lon="7.720915730261412"><ele>241.33333333333331</ele><time>2026-04-06T08:02:35Z</time></trkpt><trkpt lat="45.06707946199759" lon="7.72097656104535"><ele>241.16666666666666</ele><time>2026-04-06T08:02:37Z</time></trkpt><trkpt lat="45.06704998722534" lon="7.721082786111576"><ele>241.0</ele><time>2026-04-06T08:02:39Z</time></trkpt><trkpt lat="45.06705812711711" lon="7.721179370937557"><ele>240.83333333333331</ele><time>2026-04-06T08:02:40.999Z</time></trkpt><trkpt lat="45.06710494646895" lon="7.721240938748305"><ele>240.66666666666666</ele><time>2026-04-06T08:02:42.999Z</time></trkpt><trkpt lat="45.067167684075066" lon="7.721284826330327"><ele>240.5</ele><time>2026-04-06T08:02:44.999Z</time></trkpt><trkpt lat="45.0672400524617" lon="7.72127719272216"><ele>240.33333333333331</ele><time>2026-04-06T08:02:46.999Z</time></trkpt><trkpt lat="45.06732640399949" lon="7.7212663306887785"><ele>240.16666666666666</ele><time>2026-04-06T08:02:48.999Z</time></trkpt><trkpt lat="45.067415263205724" lon="7.721245558660246"><ele>240.0</ele><time>2026-04-06T08:02:50.999Z</time></trkpt><trkpt lat="45.06748446255941" lon="7.7211955383003525"><ele>238.5</ele><time>2026-04-06T08:02:52.999Z</time></trkpt><trkpt lat="45.06754867137143" lon="7.721115113916118"><ele>237.0</ele><time>2026-04-06T08:02:54.999Z</time></trkpt><trkpt lat="45.06759045897092" lon="7.7210415156947425"><ele>235.5</ele><time>2026-04-06T08:02:56.999Z</time></trkpt><trkpt lat="45.06762993384197" lon="7.720952135772461"><ele>234.0</ele><time>2026-04-06T08:02:58.999Z</time></trkpt><trkpt lat="45.06771011231719" lon="7.720931478971688"><ele>232.5</ele><time>2026-04-06T08:03:00.999Z</time></trkpt><trkpt lat="45.0677841580267" lon="7.720891524770689"><ele>231.0</ele><time>2026-04-06T08:03:02.999Z</time></trkpt><trkpt lat="45.06787866848767" lon="7.720850888622285"><ele>231.0</ele><time>2026-04-06T08:03:04.999Z</time></trkpt><trkpt lat="45.06795477871014" lon="7.720825950588314"><ele>231.00000000000003</ele><time>2026-04-06T08:03:06.999Z</time></trkpt><trkpt lat="45.06803463912395" lon="7.720806565383821"><ele>231.00000000000003</ele><time>2026-04-06T08:03:08.999Z</time></trkpt><trkpt lat="45.068142575295404" lon="7.720779080011094"><ele>231.0</ele><time>2026-04-06T08:03:10.999Z</time></trkpt><trkpt lat="45.06823736472044" lon="7.7207252642244075"><ele>231.0</ele><time>2026-04-06T08:03:12.999Z</time></trkpt><trkpt lat="45.0683202498256" lon="7.720686442776501"><ele>229.66666666666666</ele><time>2026-04-06T08:03:14.999Z</time></trkpt><trkpt lat="45.06840730574339" lon="7.720678644500034"><ele>228.33333333333331</ele><time>2026-04-06T08:03:16.999Z</time></trkpt><trkpt lat="45.06847781164746" lon="7.7206564326991725"><ele>227.0</ele><time>2026-04-06T08:03:18.999Z</time></trkpt><trkpt lat="45.068550674661125" lon="7.720677710161498"><ele>225.66666666666666</ele><time>2026-04-06T08:03:20.999Z</time></trkpt><trkpt lat="45.06858802469925" lon="7.720794637122372"><ele>224.33333333333331</ele><time>2026-04-06T08:03:22.999Z</time></trkpt><trkpt lat="45.06860585529212" lon="7.720941817456079"><ele>223.0</ele><time>2026-04-06T08:03:24.999Z</time></trkpt><trkpt lat="45.06864250014192" lon="7.721072546583611"><ele>222.99999999999997</ele><time>2026-04-06T08:03:26.999Z</time></trkpt><trkpt lat="45.068669461691464" lon="7.721228462712582"><ele>223.0</ele><time>2026-04-06T08:03:28.999Z</time></trkpt><trkpt lat="45.06868118449015" lon="7.721317895773886"><ele>223.0</ele><time>2026-04-06T08:03:29.999Z</time></trkpt><trkpt lat="45.06869068693589" lon="7.72140655623314"><ele>223.0</ele><time>2026-04-06T08:03:30.999Z</time></trkpt><trkpt lat="45.06871185630663" lon="7.721547589464149"><ele>222.99999999999997</ele><time>2026-04-06T08:03:32.999Z</time></trkpt><trkpt lat="45.06874726332616" lon="7.721678380879966"><ele>223.0</ele><time>2026-04-06T08:03:34.999Z</time></trkpt><trkpt lat="45.06877468243044" lon="7.7218388748896"><ele>223.2</ele><time>2026-04-06T08:03:36.998Z</time></trkpt><trkpt lat="45.068799379117834" lon="7.721983160654667"><ele>223.4</ele><time>2026-04-06T08:03:38.998Z</time></trkpt><trkpt lat="45.06879896014804" lon="7.722072360485779"><ele>223.59999999999997</ele><time>2026-04-06T08:03:39.998Z</time></trkpt><trkpt lat="45.06883767221328" lon="7.722236720047104"><ele>223.79999999999998</ele><time>2026-04-06T08:03:41.998Z</time></trkpt><trkpt lat="45.068865438948094" lon="7.722395229405255"><ele>224.0</ele><time>2026-04-06T08:03:43.998Z</time></trkpt><trkpt lat="45.068885300720716" lon="7.722532158746033"><ele>224.00000000000003</ele><time>2026-04-06T08:03:45.998Z</time></trkpt><trkpt lat="45.06890918639222" lon="7.722665927857257"><ele>224.0</ele><time>2026-04-06T08:03:47.998Z</time></trkpt><trkpt lat="45.06892694771106" lon="7.722789236576482"><ele>224.0</ele><time>2026-04-06T08:03:49.998Z</time></trkpt><trkpt lat="45.068964509297" lon="7.72289053052961"><ele>224.0</ele><time>2026-04-06T08:03:51.998Z</time></trkpt><trkpt lat="45.06904023238229" lon="7.722864823491596"><ele>224.00000000000003</ele><time>2026-04-06T08:03:53.998Z</time></trkpt><trkpt lat="45.06911445678206" lon="7.722836423152705"><ele>224.0</ele><time>2026-04-06T08:03:55.998Z</time></trkpt><trkpt lat="45.06920278633989" lon="7.722818412347538"><ele>223.33333333333334</ele><time>2026-04-06T08:03:58.998Z</time></trkpt><trkpt lat="45.0692756029186" lon="7.722792423702886"><ele>222.66666666666669</ele><time>2026-04-06T08:04:00.998Z</time></trkpt><trkpt lat="45.06935331284636" lon="7.722751075176265"><ele>222.0</ele><time>2026-04-06T08:04:02.998Z</time></trkpt><trkpt lat="45.06944574932585" lon="7.722719557195507"><ele>221.33333333333331</ele><time>2026-04-06T08:04:04.998Z</time></trkpt><trkpt lat="45.06953508396845" lon="7.722687865729812"><ele>220.66666666666666</ele><time>2026-04-06T08:04:06.998Z</time></trkpt><trkpt lat="45.06959891952637" lon="7.722678142813386"><ele>220.0</ele><time>2026-04-06T08:04:10.998Z</time></trkpt><trkpt lat="45.069626696290996" lon="7.7227751637082935"><ele>219.99999999999997</ele><time>2026-04-06T08:04:12.998Z</time></trkpt><trkpt lat="45.06964233241621" lon="7.722911052217571"><ele>220.0</ele><time>2026-04-06T08:04:14.998Z</time></trkpt><trkpt lat="45.06965203578823" lon="7.7230042879419365"><ele>220.0</ele><time>2026-04-06T08:04:16.998Z</time></trkpt><trkpt lat="45.06968176785198" lon="7.723122621932155"><ele>220.0</ele><time>2026-04-06T08:04:18.998Z</time></trkpt><trkpt lat="45.06970100882657" lon="7.7232460696678995"><ele>219.99999999999997</ele><time>2026-04-06T08:04:20.998Z</time></trkpt><trkpt lat="45.06972600330099" lon="7.7233764001081555"><ele>220.0</ele><time>2026-04-06T08:04:22.998Z</time></trkpt><trkpt lat="45.069776138059794" lon="7.723505342326689"><ele>220.4</ele><time>2026-04-06T08:04:25Z</time></trkpt><trkpt lat="45.069797636800324" lon="7.723628476532837"><ele>220.8</ele><time>2026-04-06T08:04:27Z</time></trkpt><trkpt lat="45.06981628092934" lon="7.7237263735622195"><ele>221.2</ele><time>2026-04-06T08:04:28Z</time></trkpt><trkpt lat="45.069835550504344" lon="7.7238981797764295"><ele>221.6</ele><time>2026-04-06T08:04:30Z</time></trkpt><trkpt lat="45.06986344054866" lon="7.724074758778126"><ele>222.0</ele><time>2026-04-06T08:04:32Z</time></trkpt><trkpt lat="45.06989613835541" lon="7.724245253573435"><ele>222.39999999999998</ele><time>2026-04-06T08:04:34Z</time></trkpt><trkpt lat="45.06993713300948" lon="7.724414860009406"><ele>222.79999999999998</ele><time>2026-04-06T08:04:36Z</time></trkpt><trkpt lat="45.06995546245183" lon="7.724502034182911"><ele>223.2</ele><time>2026-04-06T08:04:37Z</time></trkpt><trkpt lat="45.06998872386081" lon="7.72467073685094"><ele>223.6</ele><time>2026-04-06T08:04:39Z</time></trkpt><trkpt lat="45.070021108624836" lon="7.724824772461421"><ele>224.0</ele><time>2026-04-06T08:04:41Z</time></trkpt><trkpt lat="45.07004646577707" lon="7.724988646386253"><ele>223.16666666666669</ele><time>2026-04-06T08:04:43Z</time></trkpt><trkpt lat="45.07006045092241" lon="7.725133082253678"><ele>222.33333333333334</ele><time>2026-04-06T08:04:45Z</time></trkpt><trkpt lat="45.07007336251198" lon="7.725238049709469"><ele>221.5</ele><time>2026-04-06T08:04:47Z</time></trkpt><trkpt lat="45.07008390982337" lon="7.725337768130967"><ele>220.66666666666669</ele><time>2026-04-06T08:04:48Z</time></trkpt><trkpt lat="45.07009105652037" lon="7.725434022561471"><ele>219.83333333333334</ele><time>2026-04-06T08:04:49Z</time></trkpt><trkpt lat="45.07010406797795" lon="7.725592195023335"><ele>219.0</ele><time>2026-04-06T08:04:51Z</time></trkpt><trkpt lat="45.07012373464205" lon="7.725759147728312"><ele>219.0</ele><time>2026-04-06T08:04:52.999Z</time></trkpt><trkpt lat="45.070139429356715" lon="7.725917414017997"><ele>219.0</ele><time>2026-04-06T08:04:54.999Z</time></trkpt><trkpt lat="45.07013795263304" lon="7.726071734941574"><ele>219.0</ele><time>2026-04-06T08:04:56.999Z</time></trkpt><trkpt lat="45.07016315549326" lon="7.726230390024746"><ele>219.0</ele><time>2026-04-06T08:04:58.999Z</time></trkpt><trkpt lat="45.07018033442054" lon="7.726391887174029"><ele>219.79999999999998</ele><time>2026-04-06T08:05:00.999Z</time></trkpt><trkpt lat="45.0702044631675" lon="7.726544121336084"><ele>220.59999999999997</ele><time>2026-04-06T08:05:02.999Z</time></trkpt><trkpt lat="45.0702368916976" lon="7.72662368224185"><ele>221.4</ele><time>2026-04-06T08:05:03.999Z</time></trkpt><trkpt lat="45.07029634472718" lon="7.726754973610089"><ele>222.2</ele><time>2026-04-06T08:05:05.999Z</time></trkpt><trkpt lat="45.07038541717981" lon="7.726855928972673"><ele>223.0</ele><time>2026-04-06T08:05:07.999Z</time></trkpt><trkpt lat="45.07048165010217" lon="7.726945031040215"><ele>223.0</ele><time>2026-04-06T08:05:09.999Z</time></trkpt><trkpt lat="45.07058201161641" lon="7.72702113134458"><ele>223.0</ele><time>2026-04-06T08:05:11.999Z</time></trkpt><trkpt lat="45.070677472120835" lon="7.727122864067427"><ele>223.0</ele><time>2026-04-06T08:05:13.999Z</time></trkpt><trkpt lat="45.0707699807718" lon="7.727236127582505"><ele>223.0</ele><time>2026-04-06T08:05:15.999Z</time></trkpt><trkpt lat="45.07087469070364" lon="7.727296794448906"><ele>222.99999999999997</ele><time>2026-04-06T08:05:17.999Z</time></trkpt><trkpt lat="45.07093786297803" lon="7.727322528405854"><ele>223.0</ele><time>2026-04-06T08:05:18.999Z</time></trkpt><trkpt lat="45.07099054827251" lon="7.727372403211867"><ele>223.0</ele><time>2026-04-06T08:05:19.999Z</time></trkpt><trkpt lat="45.071091291120474" lon="7.727457214567427"><ele>223.0</ele><time>2026-04-06T08:05:21.999Z</time></trkpt><trkpt lat="45.071184616988795" lon="7.727550349004234"><ele>222.99999999999997</ele><time>2026-04-06T08:05:23.999Z</time></trkpt><trkpt lat="45.07124139181719" lon="7.72759047350231"><ele>223.0</ele><time>2026-04-06T08:05:24.999Z</time></trkpt><trkpt lat="45.071348759441676" lon="7.7276754056256385"><ele>223.8</ele><time>2026-04-06T08:05:26.999Z</time></trkpt><trkpt lat="45.071446304546576" lon="7.727773741113033"><ele>224.60000000000002</ele><time>2026-04-06T08:05:28.999Z</time></trkpt><trkpt lat="45.07150292447747" lon="7.727816898959067"><ele>225.39999999999998</ele><time>2026-04-06T08:05:29.999Z</time></trkpt><trkpt lat="45.07160631912617" lon="7.727916444476876"><ele>226.2</ele><time>2026-04-06T08:05:31.999Z</time></trkpt><trkpt lat="45.07170496939256" lon="7.728019596778084"><ele>227.0</ele><time>2026-04-06T08:05:33.999Z</time></trkpt><trkpt lat="45.07181281825124" lon="7.7281123512810534"><ele>227.00000000000003</ele><time>2026-04-06T08:05:35.999Z</time></trkpt><trkpt lat="45.07187135247007" lon="7.7281607979694895"><ele>227.0</ele><time>2026-04-06T08:05:36.999Z</time></trkpt><trkpt lat="45.07196900452569" lon="7.7282616081927396"><ele>227.0</ele><time>2026-04-06T08:05:38.999Z</time></trkpt><trkpt lat="45.0720243383116" lon="7.728312698602964"><ele>227.0</ele><time>2026-04-06T08:05:39.999Z</time></trkpt><trkpt lat="45.07211556462216" lon="7.728409490109587"><ele>227.00000000000003</ele><time>2026-04-06T08:05:41.999Z</time></trkpt><trkpt lat="45.072170758045" lon="7.7284571060916525"><ele>227.0</ele><time>2026-04-06T08:05:42.999Z</time></trkpt><trkpt lat="45.07222519424018" lon="7.728505545872882"><ele>227.75</ele><time>2026-04-06T08:05:43.999Z</time></trkpt><trkpt lat="45.07232807538876" lon="7.728598900554508"><ele>228.5</ele><time>2026-04-06T08:05:45.999Z</time></trkpt><trkpt lat="45.07243410349207" lon="7.728692353578316"><ele>229.25</ele><time>2026-04-06T08:05:47.999Z</time></trkpt><trkpt lat="45.07253364292181" lon="7.7287744322191"><ele>230.0</ele><time>2026-04-06T08:05:49.999Z</time></trkpt><trkpt lat="45.07263903501195" lon="7.728869044631028"><ele>230.0</ele><time>2026-04-06T08:05:51.998Z</time></trkpt><trkpt lat="45.07274128469813" lon="7.728959811426077"><ele>230.0</ele><time>2026-04-06T08:05:53.998Z</time></trkpt><trkpt lat="45.0727979101968" lon="7.729007314783062"><ele>230.0</ele><time>2026-04-06T08:05:54.998Z</time></trkpt><trkpt lat="45.07290591394762" lon="7.729077799118427"><ele>230.0</ele><time>2026-04-06T08:05:56.998Z</time></trkpt><trkpt lat="45.07301408852601" lon="7.729163392375669"><ele>230.0</ele><time>2026-04-06T08:05:58.998Z</time></trkpt><trkpt lat="45.07312479234224" lon="7.7292430644715475"><ele>230.0</ele><time>2026-04-06T08:06:00.998Z</time></trkpt><trkpt lat="45.07324171549454" lon="7.729312506450865"><ele>230.0</ele><time>2026-04-06T08:06:02.998Z</time></trkpt><trkpt lat="45.07330053462908" lon="7.729351038317493"><ele>230.0</ele><time>2026-04-06T08:06:03.998Z</time></trkpt><trkpt lat="45.07341272931934" lon="7.729425484437689"><ele>230.0</ele><time>2026-04-06T08:06:05.998Z</time></trkpt><trkpt lat="45.073471255467794" lon="7.729465699222634"><ele>230.0</ele><time>2026-04-06T08:06:06.998Z</time></trkpt><trkpt lat="45.07357517910904" lon="7.72953343410082"><ele>230.2</ele><time>2026-04-06T08:06:08.998Z</time></trkpt><trkpt lat="45.07363853893095" lon="7.729578526752507"><ele>230.4</ele><time>2026-04-06T08:06:09.998Z</time></trkpt><trkpt lat="45.07375132319738" lon="7.729651587131701"><ele>230.60000000000002</ele><time>2026-04-06T08:06:11.998Z</time></trkpt><trkpt lat="45.073859350028954" lon="7.7297317450318985"><ele>230.8</ele><time>2026-04-06T08:06:13.998Z</time></trkpt><trkpt lat="45.07391767970121" lon="7.729769326019493"><ele>231.0</ele><time>2026-04-06T08:06:14.998Z</time></trkpt><trkpt lat="45.07398248107542" lon="7.729827275194662"><ele>231.0</ele><time>2026-04-06T08:06:15.998Z</time></trkpt><trkpt lat="45.074091459118044" lon="7.729884206894447"><ele>231.0</ele><time>2026-04-06T08:06:17.998Z</time></trkpt><trkpt lat="45.07415262172901" lon="7.729924492827919"><ele>231.0</ele><time>2026-04-06T08:06:18.998Z</time></trkpt><trkpt lat="45.07421087581224" lon="7.729962679038248"><ele>231.0</ele><time>2026-04-06T08:06:19.998Z</time></trkpt><trkpt lat="45.07431230198588" lon="7.730039181102497"><ele>231.0</ele><time>2026-04-06T08:06:21.998Z</time></trkpt><trkpt lat="45.07437091862546" lon="7.730078212039748"><ele>231.0</ele><time>2026-04-06T08:06:22.998Z</time></trkpt><trkpt lat="45.07449080565221" lon="7.730150017322604"><ele>229.60000000000002</ele><time>2026-04-06T08:06:24.998Z</time></trkpt><trkpt lat="45.07455243570948" lon="7.730185566745527"><ele>228.20000000000002</ele><time>2026-04-06T08:06:25.998Z</time></trkpt><trkpt lat="45.074615147110244" lon="7.730218939246393"><ele>226.79999999999998</ele><time>2026-04-06T08:06:26.998Z</time></trkpt><trkpt lat="45.074726642287914" lon="7.730286064652688"><ele>225.39999999999998</ele><time>2026-04-06T08:06:28.998Z</time></trkpt><trkpt lat="45.07480004694298" lon="7.730335958035787"><ele>224.0</ele><time>2026-04-06T08:06:30Z</time></trkpt><trkpt lat="45.07490641047712" lon="7.730415471750952"><ele>223.79999999999998</ele><time>2026-04-06T08:06:32Z</time></trkpt><trkpt lat="45.075008933431036" lon="7.730486256250324"><ele>223.59999999999997</ele><time>2026-04-06T08:06:34Z</time></trkpt><trkpt lat="45.075070175297746" lon="7.7305284474104505"><ele>223.4</ele><time>2026-04-06T08:06:35Z</time></trkpt><trkpt lat="45.075172728268555" lon="7.7306112456637965"><ele>223.2</ele><time>2026-04-06T08:06:37Z</time></trkpt><trkpt lat="45.07528403502951" lon="7.730681846201143"><ele>223.0</ele><time>2026-04-06T08:06:39Z</time></trkpt><trkpt lat="45.07539157959082" lon="7.730757354591844"><ele>223.0</ele><time>2026-04-06T08:06:41Z</time></trkpt><trkpt lat="45.0755029802608" lon="7.730833830442823"><ele>223.0</ele><time>2026-04-06T08:06:43Z</time></trkpt><trkpt lat="45.075608833607326" lon="7.730906259892694"><ele>223.0</ele><time>2026-04-06T08:06:45Z</time></trkpt><trkpt lat="45.075694164098664" lon="7.730969626517316"><ele>223.0</ele><time>2026-04-06T08:06:47Z</time></trkpt><trkpt lat="45.07581588413612" lon="7.731034251466247"><ele>224.0</ele><time>2026-04-06T08:06:49Z</time></trkpt><trkpt lat="45.075922995579816" lon="7.731107431034861"><ele>225.0</ele><time>2026-04-06T08:06:51Z</time></trkpt><trkpt lat="45.07603175732655" lon="7.731180064897125"><ele>226.0</ele><time>2026-04-06T08:06:53Z</time></trkpt><trkpt lat="45.07608781923754" lon="7.731225895742214"><ele>227.0</ele><time>2026-04-06T08:06:54Z</time></trkpt><trkpt lat="45.076195957684895" lon="7.731292093576132"><ele>228.0</ele><time>2026-04-06T08:06:56Z</time></trkpt><trkpt lat="45.076303103889636" lon="7.731370066652513"><ele>228.0</ele><time>2026-04-06T08:06:58Z</time></trkpt><trkpt lat="45.07641323459613" lon="7.731438314129257"><ele>228.0</ele><time>2026-04-06T08:07:00Z</time></trkpt><trkpt lat="45.07651161674421" lon="7.731530818534487"><ele>228.0</ele><time>2026-04-06T08:07:02Z</time></trkpt><trkpt lat="45.07656330707203" lon="7.731589968311183"><ele>228.0</ele><time>2026-04-06T08:07:03Z</time></trkpt><trkpt lat="45.076670977209254" lon="7.731622897987546"><ele>228.0</ele><time>2026-04-06T08:07:05Z</time></trkpt><trkpt lat="45.07676645302341" lon="7.731680642143788"><ele>227.60000000000002</ele><time>2026-04-06T08:07:07Z</time></trkpt><trkpt lat="45.0768649725484" lon="7.731740370326784"><ele>227.20000000000002</ele><time>2026-04-06T08:07:09Z</time></trkpt><trkpt lat="45.0769686336821" lon="7.731816206463724"><ele>226.8</ele><time>2026-04-06T08:07:11Z</time></trkpt><trkpt lat="45.07706822124542" lon="7.731878396156733"><ele>226.4</ele><time>2026-04-06T08:07:12.999Z</time></trkpt><trkpt lat="45.077157540732095" lon="7.731945949143022"><ele>226.0</ele><time>2026-04-06T08:07:14.999Z</time></trkpt><trkpt lat="45.077245278526895" lon="7.7319974323585905"><ele>226.0</ele><time>2026-04-06T08:07:16.999Z</time></trkpt><trkpt lat="45.07734587004965" lon="7.732058385022867"><ele>226.00000000000003</ele><time>2026-04-06T08:07:18.999Z</time></trkpt><trkpt lat="45.07740589371496" lon="7.732085395733606"><ele>226.00000000000003</ele><time>2026-04-06T08:07:19.999Z</time></trkpt><trkpt lat="45.07748383157275" lon="7.732158731153218"><ele>226.0</ele><time>2026-04-06T08:07:21.999Z</time></trkpt><trkpt lat="45.07757872296435" lon="7.732221892863433"><ele>226.0</ele><time>2026-04-06T08:07:23.999Z</time></trkpt><trkpt lat="45.07769881273467" lon="7.732304055121907"><ele>226.20000000000002</ele><time>2026-04-06T08:07:25.999Z</time></trkpt><trkpt lat="45.07776142680473" lon="7.732365924226113"><ele>226.40000000000003</ele><time>2026-04-06T08:07:27.999Z</time></trkpt><trkpt lat="45.077847703270756" lon="7.7324202717349175"><ele>226.6</ele><time>2026-04-06T08:07:29.999Z</time></trkpt><trkpt lat="45.0779380197099" lon="7.732475205324766"><ele>226.8</ele><time>2026-04-06T08:07:31.999Z</time></trkpt><trkpt lat="45.078031889174255" lon="7.732527116836931"><ele>227.0</ele><time>2026-04-06T08:07:33.999Z</time></trkpt><trkpt lat="45.07813358143176" lon="7.732564880400614"><ele>227.00000000000003</ele><time>2026-04-06T08:07:35.999Z</time></trkpt><trkpt lat="45.07821023901234" lon="7.732621460830013"><ele>227.0</ele><time>2026-04-06T08:07:37.999Z</time></trkpt><trkpt lat="45.078286169920744" lon="7.732686941933109"><ele>227.0</ele><time>2026-04-06T08:07:39.999Z</time></trkpt><trkpt lat="45.07835743493698" lon="7.732752410879489"><ele>227.0</ele><time>2026-04-06T08:07:41.999Z</time></trkpt><trkpt lat="45.078443597458715" lon="7.732799614056484"><ele>227.00000000000003</ele><time>2026-04-06T08:07:43.999Z</time></trkpt><trkpt lat="45.078525649745394" lon="7.7328546128794695"><ele>227.0</ele><time>2026-04-06T08:07:45.999Z</time></trkpt><trkpt lat="45.078606841180246" lon="7.732904143460021"><ele>228.33333333333334</ele><time>2026-04-06T08:07:47.999Z</time></trkpt><trkpt lat="45.07868655488315" lon="7.732946301831172"><ele>229.66666666666669</ele><time>2026-04-06T08:07:49.999Z</time></trkpt><trkpt lat="45.078771099477535" lon="7.733002400867351"><ele>231.0</ele><time>2026-04-06T08:07:51.999Z</time></trkpt><trkpt lat="45.078842846587015" lon="7.733056834436159"><ele>232.33333333333331</ele><time>2026-04-06T08:07:53.999Z</time></trkpt><trkpt lat="45.07891816346298" lon="7.733109304147021"><ele>233.66666666666666</ele><time>2026-04-06T08:07:55.999Z</time></trkpt><trkpt lat="45.0790105010236" lon="7.733164486404312"><ele>235.0</ele><time>2026-04-06T08:07:57.999Z</time></trkpt><trkpt lat="45.079091117164545" lon="7.733220480643164"><ele>234.33333333333331</ele><time>2026-04-06T08:07:59.999Z</time></trkpt><trkpt lat="45.07917333172117" lon="7.733277062414282"><ele>233.66666666666666</ele><time>2026-04-06T08:08:01.999Z</time></trkpt><trkpt lat="45.07925053571718" lon="7.733325440095557"><ele>233.0</ele><time>2026-04-06T08:08:03.999Z</time></trkpt><trkpt lat="45.07933044641431" lon="7.733382953470532"><ele>232.33333333333331</ele><time>2026-04-06T08:08:05.998Z</time></trkpt><trkpt lat="45.07940503272036" lon="7.733440202273922"><ele>231.66666666666666</ele><time>2026-04-06T08:08:07.998Z</time></trkpt><trkpt lat="45.07948201826598" lon="7.733490840080525"><ele>231.0</ele><time>2026-04-06T08:08:09.998Z</time></trkpt><trkpt lat="45.07956867354635" lon="7.7335387358269365"><ele>231.16666666666666</ele><time>2026-04-06T08:08:11.998Z</time></trkpt><trkpt lat="45.07964001921101" lon="7.7335788535981544"><ele>231.33333333333331</ele><time>2026-04-06T08:08:13.998Z</time></trkpt><trkpt lat="45.07971061173846" lon="7.733630684273038"><ele>231.5</ele><time>2026-04-06T08:08:15.998Z</time></trkpt><trkpt lat="45.079772186346325" lon="7.7337141204610536"><ele>231.66666666666666</ele><time>2026-04-06T08:08:17.998Z</time></trkpt><trkpt lat="45.079832616061395" lon="7.733791285308662"><ele>231.83333333333331</ele><time>2026-04-06T08:08:19.998Z</time></trkpt><trkpt lat="45.07992231897899" lon="7.733761139971531"><ele>232.0</ele><time>2026-04-06T08:08:21.998Z</time></trkpt><trkpt lat="45.07994308779624" lon="7.733613264017605"><ele>231.39999999999998</ele><time>2026-04-06T08:08:23.998Z</time></trkpt><trkpt lat="45.07997894130417" lon="7.733489781961884"><ele>230.79999999999998</ele><time>2026-04-06T08:08:25.998Z</time></trkpt><trkpt lat="45.08006319405087" lon="7.73339835725749"><ele>230.2</ele><time>2026-04-06T08:08:27.998Z</time></trkpt><trkpt lat="45.080151800174306" lon="7.733336969330423"><ele>229.6</ele><time>2026-04-06T08:08:29.998Z</time></trkpt><trkpt lat="45.08024454378296" lon="7.733270933287082"><ele>229.0</ele><time>2026-04-06T08:08:31.998Z</time></trkpt><trkpt lat="45.08033167153134" lon="7.7332266779057495"><ele>229.0</ele><time>2026-04-06T08:08:33.998Z</time></trkpt><trkpt lat="45.08041645382064" lon="7.733166579066046"><ele>228.99999999999997</ele><time>2026-04-06T08:08:36Z</time></trkpt><trkpt lat="45.08048328699709" lon="7.733159957456674"><ele>228.99999999999997</ele><time>2026-04-06T08:08:40Z</time></trkpt><trkpt lat="45.08055236395604" lon="7.733077753653799"><ele>229.0</ele><time>2026-04-06T08:08:52Z</time></trkpt><trkpt lat="45.08062318223042" lon="7.733052629832291"><ele>229.0</ele><time>2026-04-06T08:08:55Z</time></trkpt><trkpt lat="45.08063180223961" lon="7.7328654177076475"><ele>229.0</ele><time>2026-04-06T08:08:57Z</time></trkpt><trkpt lat="45.0806019264601" lon="7.732730044511174"><ele>229.0</ele><time>2026-04-06T08:08:59Z</time></trkpt><trkpt lat="45.080550014245574" lon="7.732591771565299"><ele>229.0</ele><time>2026-04-06T08:09:01Z</time></trkpt><trkpt lat="45.080499948288384" lon="7.732440219056318"><ele>229.0</ele><time>2026-04-06T08:09:03Z</time></trkpt><trkpt lat="45.08044950429229" lon="7.7322832409444056"><ele>228.49999999999997</ele><time>2026-04-06T08:09:05Z</time></trkpt><trkpt lat="45.080419456837376" lon="7.732184448839999"><ele>228.0</ele><time>2026-04-06T08:09:07Z</time></trkpt><trkpt lat="45.08037077903177" lon="7.732064098054692"><ele>227.5</ele><time>2026-04-06T08:09:08Z</time></trkpt><trkpt lat="45.08034537835775" lon="7.731966920262273"><ele>227.0</ele><time>2026-04-06T08:09:09Z</time></trkpt><trkpt lat="45.08032703774296" lon="7.731871746186967"><ele>226.49999999999997</ele><time>2026-04-06T08:09:10Z</time></trkpt><trkpt lat="45.080309627333165" lon="7.731782085473623"><ele>226.0</ele><time>2026-04-06T08:09:11Z</time></trkpt><trkpt lat="45.080319328182924" lon="7.731634324168092"><ele>226.0</ele><time>2026-04-06T08:09:13Z</time></trkpt><trkpt lat="45.08036813031189" lon="7.731492492954503"><ele>226.00000000000003</ele><time>2026-04-06T08:09:15Z</time></trkpt><trkpt lat="45.080386034852815" lon="7.731380397222116"><ele>226.00000000000003</ele><time>2026-04-06T08:09:17Z</time></trkpt><trkpt lat="45.080496522023786" lon="7.731369604456399"><ele>226.0</ele><time>2026-04-06T08:09:18Z</time></trkpt><trkpt lat="45.08059807272352" lon="7.731384804861694"><ele>226.0</ele><time>2026-04-06T08:09:19.999Z</time></trkpt><trkpt lat="45.08065873272334" lon="7.731486888540007"><ele>225.99999999999997</ele><time>2026-04-06T08:09:21.999Z</time></trkpt><trkpt lat="45.08071553176985" lon="7.731583643525733"><ele>226.0</ele><time>2026-04-06T08:09:23.999Z</time></trkpt><trkpt lat="45.08076850511531" lon="7.731671701888613"><ele>226.0</ele><time>2026-04-06T08:09:25.999Z</time></trkpt><trkpt lat="45.08081820781583" lon="7.731749425449612"><ele>226.0</ele><time>2026-04-06T08:09:27.999Z</time></trkpt><trkpt lat="45.0808687438795" lon="7.73182466810368"><ele>225.99999999999997</ele><time>2026-04-06T08:09:29.999Z</time></trkpt><trkpt lat="45.08091990929621" lon="7.731901618665723"><ele>226.0</ele><time>2026-04-06T08:09:31.999Z</time></trkpt><trkpt lat="45.08097112468734" lon="7.731988249973532"><ele>226.14285714285717</ele><time>2026-04-06T08:09:33.999Z</time></trkpt><trkpt lat="45.081008184226214" lon="7.732076673156125"><ele>226.28571428571428</ele><time>2026-04-06T08:09:35.999Z</time></trkpt><trkpt lat="45.0810622097965" lon="7.732144336230556"><ele>226.42857142857144</ele><time>2026-04-06T08:09:37.999Z</time></trkpt><trkpt lat="45.081103962304404" lon="7.7322223925262135"><ele>226.57142857142858</ele><time>2026-04-06T08:09:39.999Z</time></trkpt><trkpt lat="45.081147455833815" lon="7.732300081394709"><ele>226.71428571428572</ele><time>2026-04-06T08:09:41.999Z</time></trkpt><trkpt lat="45.08119818346513" lon="7.732370278397476"><ele>226.85714285714286</ele><time>2026-04-06T08:09:43.999Z</time></trkpt><trkpt lat="45.081246497775034" lon="7.732439454108381"><ele>227.0</ele><time>2026-04-06T08:09:45.999Z</time></trkpt><trkpt lat="45.08130204518582" lon="7.732489595762933"><ele>227.0</ele><time>2026-04-06T08:09:47.999Z</time></trkpt><trkpt lat="45.08133898764784" lon="7.73257579613437"><ele>227.00000000000003</ele><time>2026-04-06T08:09:49.999Z</time></trkpt><trkpt lat="45.08138730851611" lon="7.732655656442968"><ele>227.0</ele><time>2026-04-06T08:09:51.999Z</time></trkpt><trkpt lat="45.081440326032016" lon="7.732727550882205"><ele>227.0</ele><time>2026-04-06T08:09:53.999Z</time></trkpt><trkpt lat="45.08148120397612" lon="7.732803109816839"><ele>227.00000000000003</ele><time>2026-04-06T08:09:55.999Z</time></trkpt><trkpt lat="45.08153196519798" lon="7.732868505669388"><ele>227.0</ele><time>2026-04-06T08:09:57.999Z</time></trkpt><trkpt lat="45.081599671413805" lon="7.732962120103052"><ele>227.0</ele><time>2026-04-06T08:09:59.999Z</time></trkpt><trkpt lat="45.08166258490204" lon="7.733000363045814"><ele>228.33333333333334</ele><time>2026-04-06T08:10:01.999Z</time></trkpt><trkpt lat="45.08173649473921" lon="7.733006440741204"><ele>229.66666666666669</ele><time>2026-04-06T08:10:03.999Z</time></trkpt><trkpt lat="45.08181539654308" lon="7.733020806248657"><ele>231.0</ele><time>2026-04-06T08:10:05.999Z</time></trkpt><trkpt lat="45.08189603668697" lon="7.733055603502739"><ele>232.33333333333331</ele><time>2026-04-06T08:10:08.999Z</time></trkpt><trkpt lat="45.08197571995795" lon="7.733082691527748"><ele>233.66666666666666</ele><time>2026-04-06T08:10:11.998Z</time></trkpt><trkpt lat="45.08204054056408" lon="7.733113844775624"><ele>235.0</ele><time>2026-04-06T08:10:14.998Z</time></trkpt><trkpt lat="45.08210489636537" lon="7.733145619870847"><ele>235.0</ele><time>2026-04-06T08:10:17.998Z</time></trkpt><trkpt lat="45.082170542977224" lon="7.733170683050189"><ele>234.99999999999997</ele><time>2026-04-06T08:10:20.998Z</time></trkpt><trkpt lat="45.08223976635706" lon="7.733195929714603"><ele>235.0</ele><time>2026-04-06T08:10:23.998Z</time></trkpt><trkpt lat="45.08230047944252" lon="7.7332248144048945"><ele>235.0</ele><time>2026-04-06T08:10:26.998Z</time></trkpt><trkpt lat="45.08236128662231" lon="7.73327050368805"><ele>234.99999999999997</ele><time>2026-04-06T08:10:29.998Z</time></trkpt><trkpt lat="45.082433157072764" lon="7.733333361975331"><ele>235.0</ele><time>2026-04-06T08:10:33.998Z</time></trkpt><trkpt lat="45.082491894351165" lon="7.733397730493138"><ele>235.0</ele><time>2026-04-06T08:10:37.998Z</time></trkpt><trkpt lat="45.08255725366654" lon="7.733463369339961"><ele>237.28571428571428</ele><time>2026-04-06T08:10:42Z</time></trkpt><trkpt lat="45.0826079490268" lon="7.733547587397281"><ele>239.57142857142856</ele><time>2026-04-06T08:10:46Z</time></trkpt><trkpt lat="45.08263722552224" lon="7.733637640553688"><ele>241.85714285714283</ele><time>2026-04-06T08:10:50Z</time></trkpt><trkpt lat="45.08266350704887" lon="7.733735884884118"><ele>244.1428571428571</ele><time>2026-04-06T08:10:54Z</time></trkpt><trkpt lat="45.082681672811944" lon="7.73382143407015"><ele>246.42857142857142</ele><time>2026-04-06T08:10:58Z</time></trkpt><trkpt lat="45.082702297638605" lon="7.733924895438085"><ele>248.71428571428567</ele><time>2026-04-06T08:11:02Z</time></trkpt><trkpt lat="45.0827135441718" lon="7.734018809530778"><ele>250.99999999999997</ele><time>2026-04-06T08:11:06Z</time></trkpt><trkpt lat="45.08272568318227" lon="7.7341392424501425"><ele>252.28571428571425</ele><time>2026-04-06T08:11:12Z</time></trkpt><trkpt lat="45.082746243586655" lon="7.734233876682171"><ele>253.57142857142856</ele><time>2026-04-06T08:11:16Z</time></trkpt><trkpt lat="45.08274552414406" lon="7.734323719153709"><ele>254.85714285714286</ele><time>2026-04-06T08:11:19.999Z</time></trkpt><trkpt lat="45.0827683450736" lon="7.734420267499644"><ele>256.1428571428571</ele><time>2026-04-06T08:11:23.999Z</time></trkpt><trkpt lat="45.08278997431352" lon="7.7345171848243215"><ele>257.42857142857144</ele><time>2026-04-06T08:11:27.999Z</time></trkpt><trkpt lat="45.08281617033482" lon="7.734603541756917"><ele>258.7142857142857</ele><time>2026-04-06T08:11:31.999Z</time></trkpt><trkpt lat="45.08285387499612" lon="7.734691845172315"><ele>260.0</ele><time>2026-04-06T08:11:35.999Z</time></trkpt><trkpt lat="45.08289128495039" lon="7.734770533970634"><ele>261.1666666666667</ele><time>2026-04-06T08:11:39.999Z</time></trkpt><trkpt lat="45.0829480563334" lon="7.734819442000231"><ele>262.33333333333337</ele><time>2026-04-06T08:11:43.999Z</time></trkpt><trkpt lat="45.08302000625929" lon="7.734862589881724"><ele>263.5</ele><time>2026-04-06T08:11:48.999Z</time></trkpt><trkpt lat="45.0830966139554" lon="7.734884721226784"><ele>264.6666666666667</ele><time>2026-04-06T08:11:52.999Z</time></trkpt><trkpt lat="45.08315913950602" lon="7.734897746084359"><ele>265.8333333333333</ele><time>2026-04-06T08:11:56.999Z</time></trkpt><trkpt lat="45.08322891422632" lon="7.734938811008542"><ele>267.0</ele><time>2026-04-06T08:12:01.999Z</time></trkpt><trkpt lat="45.0834092673509" lon="7.734930020188853"><ele>267.7142857142857</ele><time>2026-04-06T08:12:11.998Z</time></trkpt><trkpt lat="45.08347371583262" lon="7.734966831671641"><ele>268.42857142857144</ele><time>2026-04-06T08:12:15.998Z</time></trkpt><trkpt lat="45.08353841114016" lon="7.7350289072055975"><ele>269.1428571428571</ele><time>2026-04-06T08:12:19.998Z</time></trkpt><trkpt lat="45.08357700581703" lon="7.735110891884573"><ele>269.8571428571429</ele><time>2026-04-06T08:12:23.998Z</time></trkpt><trkpt lat="45.08361411001972" lon="7.735189324059979"><ele>270.57142857142856</ele><time>2026-04-06T08:12:27.998Z</time></trkpt><trkpt lat="45.083638330720866" lon="7.7352920038748"><ele>271.2857142857143</ele><time>2026-04-06T08:12:32.998Z</time></trkpt><trkpt lat="45.08366783932668" lon="7.7353714484285945"><ele>272.0</ele><time>2026-04-06T08:12:36.998Z</time></trkpt><trkpt lat="45.083697627692935" lon="7.735458792681034"><ele>273.99999999999994</ele><time>2026-04-06T08:12:40.998Z</time></trkpt><trkpt lat="45.08371319485404" lon="7.7355473551520655"><ele>276.0</ele><time>2026-04-06T08:12:44.998Z</time></trkpt><trkpt lat="45.08375389691404" lon="7.735639554016972"><ele>278.0</ele><time>2026-04-06T08:12:49Z</time></trkpt><trkpt lat="45.08377439286234" lon="7.735734333920697"><ele>280.0</ele><time>2026-04-06T08:12:53Z</time></trkpt><trkpt lat="45.08379963911126" lon="7.7358210924081705"><ele>282.0</ele><time>2026-04-06T08:12:57Z</time></trkpt><trkpt lat="45.08384451637232" lon="7.735885493746414"><ele>283.99999999999994</ele><time>2026-04-06T08:13:01Z</time></trkpt><trkpt lat="45.083891280055894" lon="7.735956113038823"><ele>286.0</ele><time>2026-04-06T08:13:05Z</time></trkpt><trkpt lat="45.08394417151256" lon="7.736013295920718"><ele>287.3333333333333</ele><time>2026-04-06T08:13:09Z</time></trkpt><trkpt lat="45.08399606668609" lon="7.736075012854309"><ele>288.66666666666663</ele><time>2026-04-06T08:13:13Z</time></trkpt><trkpt lat="45.084056958579616" lon="7.736148596139164"><ele>290.0</ele><time>2026-04-06T08:13:18Z</time></trkpt><trkpt lat="45.08412308906813" lon="7.736212318660105"><ele>291.3333333333333</ele><time>2026-04-06T08:13:22Z</time></trkpt><trkpt lat="45.084181781338664" lon="7.736270661910892"><ele>292.6666666666667</ele><time>2026-04-06T08:13:25.999Z</time></trkpt><trkpt lat="45.084251752569166" lon="7.736337566782393"><ele>294.0</ele><time>2026-04-06T08:13:29.999Z</time></trkpt><trkpt lat="45.08431785970242" lon="7.736381250384736"><ele>294.0</ele><time>2026-04-06T08:13:33.999Z</time></trkpt><trkpt lat="45.08438908559555" lon="7.736419368906538"><ele>294.0</ele><time>2026-04-06T08:13:37.999Z</time></trkpt><trkpt lat="45.08445154642514" lon="7.736457626983298"><ele>294.0</ele><time>2026-04-06T08:13:41.999Z</time></trkpt><trkpt lat="45.08452139063509" lon="7.736507547965666"><ele>294.0</ele><time>2026-04-06T08:13:45.999Z</time></trkpt><trkpt lat="45.08459304290332" lon="7.736562862156584"><ele>294.0</ele><time>2026-04-06T08:13:49.999Z</time></trkpt><trkpt lat="45.084655885014534" lon="7.736636460217823"><ele>294.0</ele><time>2026-04-06T08:13:53.999Z</time></trkpt><trkpt lat="45.08470114421341" lon="7.736720768927096"><ele>294.0</ele><time>2026-04-06T08:13:57.999Z</time></trkpt><trkpt lat="45.0847428885008" lon="7.736790803342189"><ele>294.0</ele><time>2026-04-06T08:14:00.999Z</time></trkpt><trkpt lat="45.084757443591876" lon="7.7368953806923075"><ele>294.0</ele><time>2026-04-06T08:14:04.999Z</time></trkpt><trkpt lat="45.084758878286195" lon="7.736988274614068"><ele>294.0</ele><time>2026-04-06T08:14:08.999Z</time></trkpt><trkpt lat="45.08475161081781" lon="7.737083789315443"><ele>294.0</ele><time>2026-04-06T08:14:12.999Z</time></trkpt><trkpt lat="45.084725515547674" lon="7.7371702727310385"><ele>294.0</ele><time>2026-04-06T08:14:16.999Z</time></trkpt><trkpt lat="45.08469849017686" lon="7.737265360248925"><ele>294.0</ele><time>2026-04-06T08:14:21.998Z</time></trkpt><trkpt lat="45.08465106290645" lon="7.737344151710266"><ele>295.14285714285717</ele><time>2026-04-06T08:14:26.998Z</time></trkpt><trkpt lat="45.08459825225401" lon="7.737404620225304"><ele>296.2857142857143</ele><time>2026-04-06T08:14:31.998Z</time></trkpt><trkpt lat="45.08454558898423" lon="7.737462287212765"><ele>297.42857142857144</ele><time>2026-04-06T08:14:36.998Z</time></trkpt><trkpt lat="45.084498133561794" lon="7.737530923102836"><ele>298.57142857142856</ele><time>2026-04-06T08:14:40.998Z</time></trkpt><trkpt lat="45.08442744849707" lon="7.737571803549249"><ele>299.7142857142857</ele><time>2026-04-06T08:14:44.998Z</time></trkpt><trkpt lat="45.08435926826679" lon="7.7376051591031425"><ele>300.8571428571429</ele><time>2026-04-06T08:14:49.998Z</time></trkpt><trkpt lat="45.08431236335824" lon="7.737681269118949"><ele>302.0</ele><time>2026-04-06T08:14:55Z</time></trkpt><trkpt lat="45.08425783986136" lon="7.737743592456059"><ele>302.00000000000006</ele><time>2026-04-06T08:15:00Z</time></trkpt><trkpt lat="45.08420970891368" lon="7.737802058495463"><ele>302.0</ele><time>2026-04-06T08:15:05Z</time></trkpt><trkpt lat="45.08415265528668" lon="7.737855578272745"><ele>302.0</ele><time>2026-04-06T08:15:11Z</time></trkpt><trkpt lat="45.08410626621105" lon="7.737931004092409"><ele>302.0</ele><time>2026-04-06T08:15:16Z</time></trkpt><trkpt lat="45.08404747687092" lon="7.737971466709457"><ele>302.0</ele><time>2026-04-06T08:15:21.999Z</time></trkpt><trkpt lat="45.08403995207941" lon="7.738065072992666"><ele>302.00000000000006</ele><time>2026-04-06T08:15:25.999Z</time></trkpt><trkpt lat="45.08402291576345" lon="7.738174972766513"><ele>302.0</ele><time>2026-04-06T08:15:29.999Z</time></trkpt><trkpt lat="45.083997986359314" lon="7.738270606809989"><ele>302.00000000000006</ele><time>2026-04-06T08:15:36.999Z</time></trkpt><trkpt lat="45.08396694331068" lon="7.738353446495493"><ele>302.0</ele><time>2026-04-06T08:15:41.999Z</time></trkpt><trkpt lat="45.083966839540956" lon="7.738448723100033"><ele>302.0</ele><time>2026-04-06T08:15:46.999Z</time></trkpt><trkpt lat="45.083934457678524" lon="7.738541850937816"><ele>302.0</ele><time>2026-04-06T08:15:52.999Z</time></trkpt><trkpt lat="45.083947508258305" lon="7.738629120299291"><ele>302.0</ele><time>2026-04-06T08:15:58.999Z</time></trkpt><trkpt lat="45.083926478970795" lon="7.738721130530995"><ele>302.00000000000006</ele><time>2026-04-06T08:16:02.999Z</time></trkpt><trkpt lat="45.08389574029736" lon="7.738822917919468"><ele>302.0</ele><time>2026-04-06T08:16:08.999Z</time></trkpt><trkpt lat="45.08386928611216" lon="7.738917874111354"><ele>303.00000000000006</ele><time>2026-04-06T08:16:13.999Z</time></trkpt><trkpt lat="45.08385058259185" lon="7.7390135487360485"><ele>304.0</ele><time>2026-04-06T08:16:19.999Z</time></trkpt><trkpt lat="45.0838184407205" lon="7.739103703762952"><ele>305.0</ele><time>2026-04-06T08:16:24.998Z</time></trkpt><trkpt lat="45.083789211087094" lon="7.739189448615505"><ele>306.0</ele><time>2026-04-06T08:16:29.998Z</time></trkpt><trkpt lat="45.08374740656071" lon="7.739263323797317"><ele>307.0</ele><time>2026-04-06T08:16:33.998Z</time></trkpt><trkpt lat="45.08373196903489" lon="7.739364476311935"><ele>308.00000000000006</ele><time>2026-04-06T08:16:39.998Z</time></trkpt><trkpt lat="45.08370910429249" lon="7.739458353876031"><ele>309.0</ele><time>2026-04-06T08:16:44.998Z</time></trkpt><trkpt lat="45.08366711327606" lon="7.73954346935854"><ele>310.00000000000006</ele><time>2026-04-06T08:16:49.998Z</time></trkpt><trkpt lat="45.08364876521713" lon="7.739633114577817"><ele>311.0</ele><time>2026-04-06T08:16:53.998Z</time></trkpt><trkpt lat="45.08360780754233" lon="7.739717447335776"><ele>312.0</ele><time>2026-04-06T08:16:58.998Z</time></trkpt><trkpt lat="45.083582568049906" lon="7.739815999487865"><ele>313.0</ele><time>2026-04-06T08:17:04Z</time></trkpt><trkpt lat="45.083558398401216" lon="7.73990624500949"><ele>314.0</ele><time>2026-04-06T08:17:08Z</time></trkpt><trkpt lat="45.08353591133474" lon="7.7400121208178945"><ele>315.00000000000006</ele><time>2026-04-06T08:17:13Z</time></trkpt><trkpt lat="45.08352431677772" lon="7.74010196593977"><ele>316.0</ele><time>2026-04-06T08:17:17Z</time></trkpt><trkpt lat="45.083514292804296" lon="7.740203101737865"><ele>317.14285714285717</ele><time>2026-04-06T08:17:21Z</time></trkpt><trkpt lat="45.083500558200555" lon="7.740292784226734"><ele>318.2857142857143</ele><time>2026-04-06T08:17:25Z</time></trkpt><trkpt lat="45.08347720824371" lon="7.740383828620692"><ele>319.42857142857144</ele><time>2026-04-06T08:17:29Z</time></trkpt><trkpt lat="45.083463446657" lon="7.7404735834860645"><ele>320.57142857142856</ele><time>2026-04-06T08:17:32.999Z</time></trkpt><trkpt lat="45.08342984711397" lon="7.7405706592842485"><ele>321.7142857142857</ele><time>2026-04-06T08:17:36.999Z</time></trkpt><trkpt lat="45.0833837212909" lon="7.740659052274838"><ele>322.8571428571429</ele><time>2026-04-06T08:17:41.999Z</time></trkpt><trkpt lat="45.083345792885794" lon="7.740742056938836"><ele>324.0</ele><time>2026-04-06T08:17:45.999Z</time></trkpt><trkpt lat="45.083311753743494" lon="7.740820818115056"><ele>324.0</ele><time>2026-04-06T08:17:49.999Z</time></trkpt><trkpt lat="45.083264305594646" lon="7.74090292260275"><ele>324.0</ele><time>2026-04-06T08:17:54.999Z</time></trkpt><trkpt lat="45.08321320743237" lon="7.740975393839466"><ele>324.0</ele><time>2026-04-06T08:17:59.999Z</time></trkpt><trkpt lat="45.08317307843313" lon="7.741050005160499"><ele>324.0</ele><time>2026-04-06T08:18:03.999Z</time></trkpt><trkpt lat="45.0831415673756" lon="7.741139597354035"><ele>324.0</ele><time>2026-04-06T08:18:08.999Z</time></trkpt><trkpt lat="45.08310790434765" lon="7.741221792672133"><ele>324.0</ele><time>2026-04-06T08:18:12.999Z</time></trkpt><trkpt lat="45.08309330530958" lon="7.741309029092434"><ele>324.0</ele><time>2026-04-06T08:18:16.999Z</time></trkpt><trkpt lat="45.083106705739176" lon="7.741416086250767"><ele>323.57142857142856</ele><time>2026-04-06T08:18:20.999Z</time></trkpt><trkpt lat="45.08311809770905" lon="7.741503927048835"><ele>323.1428571428571</ele><time>2026-04-06T08:18:23.999Z</time></trkpt><trkpt lat="45.083151168175284" lon="7.741613278690946"><ele>322.71428571428567</ele><time>2026-04-06T08:18:27.999Z</time></trkpt><trkpt lat="45.083173267928856" lon="7.741703093224576"><ele>322.2857142857143</ele><time>2026-04-06T08:18:30.999Z</time></trkpt><trkpt lat="45.08321098792647" lon="7.741791201724127"><ele>321.85714285714283</ele><time>2026-04-06T08:18:33.998Z</time></trkpt><trkpt lat="45.083232425130134" lon="7.741875165634239"><ele>321.4285714285714</ele><time>2026-04-06T08:18:36.998Z</time></trkpt><trkpt lat="45.083262385338706" lon="7.7419668525888365"><ele>321.0</ele><time>2026-04-06T08:18:39.998Z</time></trkpt><trkpt lat="45.08329296849938" lon="7.742056062651968"><ele>322.57142857142856</ele><time>2026-04-06T08:18:42.998Z</time></trkpt><trkpt lat="45.08332861961274" lon="7.742140507470213"><ele>324.1428571428571</ele><time>2026-04-06T08:18:45.998Z</time></trkpt><trkpt lat="45.08335948383358" lon="7.742226238884312"><ele>325.71428571428567</ele><time>2026-04-06T08:18:48.998Z</time></trkpt><trkpt lat="45.083390446092736" lon="7.742306896685925"><ele>327.2857142857143</ele><time>2026-04-06T08:18:51.998Z</time></trkpt><trkpt lat="45.08341379625979" lon="7.742397595922794"><ele>328.8571428571429</ele><time>2026-04-06T08:18:54.998Z</time></trkpt><trkpt lat="45.08344566761126" lon="7.7424832487329995"><ele>330.4285714285714</ele><time>2026-04-06T08:18:57.998Z</time></trkpt><trkpt lat="45.083471096205294" lon="7.7425829177424665"><ele>332.0</ele><time>2026-04-06T08:19:00.998Z</time></trkpt><trkpt lat="45.083486485854436" lon="7.7426824063619035"><ele>333.1428571428571</ele><time>2026-04-06T08:19:03.998Z</time></trkpt><trkpt lat="45.08349975252094" lon="7.742779980354436"><ele>334.28571428571433</ele><time>2026-04-06T08:19:07Z</time></trkpt><trkpt lat="45.08350294011099" lon="7.7428711318535655"><ele>335.42857142857144</ele><time>2026-04-06T08:19:10Z</time></trkpt><trkpt lat="45.083497753477346" lon="7.742965451354753"><ele>336.57142857142856</ele><time>2026-04-06T08:19:13Z</time></trkpt><trkpt lat="45.0834786328767" lon="7.7430768602019775"><ele>337.71428571428567</ele><time>2026-04-06T08:19:17Z</time></trkpt><trkpt lat="45.083454006354245" lon="7.743183898431632"><ele>338.8571428571429</ele><time>2026-04-06T08:19:21Z</time></trkpt><trkpt lat="45.08342249219782" lon="7.743292968053195"><ele>340.0</ele><time>2026-04-06T08:19:25Z</time></trkpt><trkpt lat="45.0833902629595" lon="7.743393684988702"><ele>340.0</ele><time>2026-04-06T08:19:29Z</time></trkpt><trkpt lat="45.083342037341254" lon="7.743511133793774"><ele>340.0</ele><time>2026-04-06T08:19:34Z</time></trkpt><trkpt lat="45.08332006407375" lon="7.743595336779417"><ele>340.0</ele><time>2026-04-06T08:19:37Z</time></trkpt><trkpt lat="45.08330928852141" lon="7.7436874424053626"><ele>340.0</ele><time>2026-04-06T08:19:39.999Z</time></trkpt><trkpt lat="45.083264508462634" lon="7.743776688337078"><ele>340.0</ele><time>2026-04-06T08:19:43.999Z</time></trkpt><trkpt lat="45.0832392472392" lon="7.743874542486169"><ele>340.0</ele><time>2026-04-06T08:19:47.999Z</time></trkpt><trkpt lat="45.083195413221766" lon="7.743956651875577"><ele>340.0</ele><time>2026-04-06T08:19:51.999Z</time></trkpt><trkpt lat="45.08315998805765" lon="7.744045437138208"><ele>340.5714285714286</ele><time>2026-04-06T08:19:54.999Z</time></trkpt><trkpt lat="45.0831013339404" lon="7.744109683521615"><ele>341.1428571428571</ele><time>2026-04-06T08:19:58.999Z</time></trkpt><trkpt lat="45.083040958804915" lon="7.744170285756524"><ele>341.7142857142857</ele><time>2026-04-06T08:20:02.999Z</time></trkpt><trkpt lat="45.08298971204213" lon="7.7442465472792135"><ele>342.28571428571433</ele><time>2026-04-06T08:20:06.999Z</time></trkpt><trkpt lat="45.082917909664666" lon="7.744292543775056"><ele>342.8571428571429</ele><time>2026-04-06T08:20:10.999Z</time></trkpt><trkpt lat="45.08286230661599" lon="7.744370930007779"><ele>343.42857142857144</ele><time>2026-04-06T08:20:14.999Z</time></trkpt><trkpt lat="45.082809232798056" lon="7.744423676994199"><ele>344.0</ele><time>2026-04-06T08:20:17.999Z</time></trkpt><trkpt lat="45.082757088119465" lon="7.744477900684457"><ele>345.0</ele><time>2026-04-06T08:20:20.999Z</time></trkpt><trkpt lat="45.08269268945494" lon="7.7445414540707755"><ele>346.0</ele><time>2026-04-06T08:20:24.999Z</time></trkpt><trkpt lat="45.0826245539203" lon="7.744609427241154"><ele>347.0</ele><time>2026-04-06T08:20:28.999Z</time></trkpt><trkpt lat="45.082563044485816" lon="7.744644370221382"><ele>348.0</ele><time>2026-04-06T08:20:31.999Z</time></trkpt><trkpt lat="45.08248986891205" lon="7.744703398138094"><ele>349.0</ele><time>2026-04-06T08:20:35.999Z</time></trkpt><trkpt lat="45.08242423445591" lon="7.744757760155596"><ele>350.0</ele><time>2026-04-06T08:20:39.999Z</time></trkpt><trkpt lat="45.08235462776496" lon="7.744807789610872"><ele>350.1666666666667</ele><time>2026-04-06T08:20:43.998Z</time></trkpt><trkpt lat="45.08229028033022" lon="7.74486722245438"><ele>350.33333333333337</ele><time>2026-04-06T08:20:47.998Z</time></trkpt><trkpt lat="45.08221717078381" lon="7.74492300582382"><ele>350.5</ele><time>2026-04-06T08:20:51.998Z</time></trkpt><trkpt lat="45.082140173145625" lon="7.744964316186758"><ele>350.6666666666667</ele><time>2026-04-06T08:20:55.998Z</time></trkpt><trkpt lat="45.08206834679946" lon="7.7450160272390765"><ele>350.8333333333333</ele><time>2026-04-06T08:20:59.998Z</time></trkpt><trkpt lat="45.081994778374494" lon="7.745046024294677"><ele>351.0</ele><time>2026-04-06T08:21:03.998Z</time></trkpt><trkpt lat="45.08193283793401" lon="7.745075225518288"><ele>351.00000000000006</ele><time>2026-04-06T08:21:06.998Z</time></trkpt><trkpt lat="45.08186101091153" lon="7.7451022768683915"><ele>351.0</ele><time>2026-04-06T08:21:10.998Z</time></trkpt><trkpt lat="45.08179869106702" lon="7.745128578982036"><ele>351.0</ele><time>2026-04-06T08:21:14Z</time></trkpt><trkpt lat="45.08172770168757" lon="7.745161955599741"><ele>351.0</ele><time>2026-04-06T08:21:18Z</time></trkpt><trkpt lat="45.0816510758405" lon="7.745182917736305"><ele>351.0</ele><time>2026-04-06T08:21:22Z</time></trkpt><trkpt lat="45.08158308498043" lon="7.74521512293489"><ele>351.00000000000006</ele><time>2026-04-06T08:21:26Z</time></trkpt><trkpt lat="45.081508628865684" lon="7.745243599022831"><ele>351.0</ele><time>2026-04-06T08:21:30Z</time></trkpt><trkpt lat="45.08142794949941" lon="7.74526258308145"><ele>354.00000000000006</ele><time>2026-04-06T08:21:34Z</time></trkpt><trkpt lat="45.081361727911975" lon="7.745287339135271"><ele>357.0</ele><time>2026-04-06T08:21:38Z</time></trkpt><trkpt lat="45.08128796899766" lon="7.74529218870441"><ele>360.0</ele><time>2026-04-06T08:21:41.999Z</time></trkpt><trkpt lat="45.08121567234217" lon="7.745324295086297"><ele>363.0</ele><time>2026-04-06T08:21:45.999Z</time></trkpt><trkpt lat="45.08114176383448" lon="7.74533389055349"><ele>366.0</ele><time>2026-04-06T08:21:49.999Z</time></trkpt><trkpt lat="45.08107095020491" lon="7.7453640862948845"><ele>369.00000000000006</ele><time>2026-04-06T08:21:53.999Z</time></trkpt><trkpt lat="45.08099827134118" lon="7.745392568543727"><ele>372.0</ele><time>2026-04-06T08:21:57.999Z</time></trkpt><trkpt lat="45.08092559089999" lon="7.7454279612685255"><ele>372.00000000000006</ele><time>2026-04-06T08:22:01.999Z</time></trkpt><trkpt lat="45.080859477315926" lon="7.745453264666094"><ele>372.0</ele><time>2026-04-06T08:22:05.999Z</time></trkpt><trkpt lat="45.080796437644054" lon="7.745486431338568"><ele>372.0</ele><time>2026-04-06T08:22:09.999Z</time></trkpt><trkpt lat="45.08073830922268" lon="7.745539126996801"><ele>372.0</ele><time>2026-04-06T08:22:13.999Z</time></trkpt><trkpt lat="45.0806929041455" lon="7.745633553253843"><ele>372.0</ele><time>2026-04-06T08:22:18.999Z</time></trkpt><trkpt lat="45.080667695520006" lon="7.745728221316074"><ele>372.00000000000006</ele><time>2026-04-06T08:22:22.999Z</time></trkpt><trkpt lat="45.08065747157493" lon="7.745827187264136"><ele>372.0</ele><time>2026-04-06T08:22:26.999Z</time></trkpt><trkpt lat="45.08064079356917" lon="7.745943906639695"><ele>371.00000000000006</ele><time>2026-04-06T08:22:31.999Z</time></trkpt><trkpt lat="45.08064845670765" lon="7.746042666741269"><ele>370.0</ele><time>2026-04-06T08:22:35.999Z</time></trkpt><trkpt lat="45.08066248352852" lon="7.746152227315669"><ele>369.0</ele><time>2026-04-06T08:22:40.999Z</time></trkpt><trkpt lat="45.080684100608636" lon="7.746244536366228"><ele>368.0</ele><time>2026-04-06T08:22:44.999Z</time></trkpt><trkpt lat="45.08069730241115" lon="7.746335045043482"><ele>367.0</ele><time>2026-04-06T08:22:48.999Z</time></trkpt><trkpt lat="45.080701981545545" lon="7.746428247055618"><ele>366.00000000000006</ele><time>2026-04-06T08:22:52.998Z</time></trkpt><trkpt lat="45.080702445774335" lon="7.7465182093077445"><ele>365.0</ele><time>2026-04-06T08:22:56.998Z</time></trkpt><trkpt lat="45.08069348140109" lon="7.746610776161796"><ele>365.00000000000006</ele><time>2026-04-06T08:23:00.998Z</time></trkpt><trkpt lat="45.0806807955365" lon="7.746718022999334"><ele>365.0</ele><time>2026-04-06T08:23:05.998Z</time></trkpt><trkpt lat="45.08066614052832" lon="7.746806216022758"><ele>365.0</ele><time>2026-04-06T08:23:09.998Z</time></trkpt><trkpt lat="45.08065366133418" lon="7.746894257350464"><ele>365.0</ele><time>2026-04-06T08:23:13.998Z</time></trkpt><trkpt lat="45.080641137196956" lon="7.746986698195329"><ele>365.0</ele><time>2026-04-06T08:23:17.999Z</time></trkpt><trkpt lat="45.08063306945266" lon="7.747082841625055"><ele>365.00000000000006</ele><time>2026-04-06T08:23:21.999Z</time></trkpt><trkpt lat="45.08062511774453" lon="7.747173708854083"><ele>365.0</ele><time>2026-04-06T08:23:25.999Z</time></trkpt><trkpt lat="45.080615432216774" lon="7.747265057820757"><ele>366.8571428571429</ele><time>2026-04-06T08:23:29.999Z</time></trkpt><trkpt lat="45.0806056913533" lon="7.7473569842352985"><ele>368.7142857142857</ele><time>2026-04-06T08:23:33.999Z</time></trkpt><trkpt lat="45.08059192959959" lon="7.747452114806275"><ele>370.57142857142856</ele><time>2026-04-06T08:23:37.999Z</time></trkpt><trkpt lat="45.08058066181497" lon="7.747554392706837"><ele>372.42857142857144</ele><time>2026-04-06T08:23:42.999Z</time></trkpt><trkpt lat="45.08056763045346" lon="7.747657771964004"><ele>374.2857142857143</ele><time>2026-04-06T08:23:47.999Z</time></trkpt><trkpt lat="45.08056206498888" lon="7.7477494968391225"><ele>376.14285714285717</ele><time>2026-04-06T08:23:52.999Z</time></trkpt><trkpt lat="45.08056400619271" lon="7.747858822034586"><ele>378.0</ele><time>2026-04-06T08:23:57.999Z</time></trkpt><trkpt lat="45.080570001467" lon="7.747950560543404"><ele>381.0</ele><time>2026-04-06T08:24:01.999Z</time></trkpt><trkpt lat="45.08057751926227" lon="7.748046601067766"><ele>384.0</ele><time>2026-04-06T08:24:06.999Z</time></trkpt><trkpt lat="45.08061050861804" lon="7.74812940378041"><ele>387.0</ele><time>2026-04-06T08:24:11.999Z</time></trkpt><trkpt lat="45.080624338033914" lon="7.748227558017488"><ele>390.0</ele><time>2026-04-06T08:24:16.999Z</time></trkpt><trkpt lat="45.08062114281285" lon="7.74832975447694"><ele>393.0</ele><time>2026-04-06T08:24:21.999Z</time></trkpt><trkpt lat="45.08059799388802" lon="7.748418902136679"><ele>396.0</ele><time>2026-04-06T08:24:26.999Z</time></trkpt><trkpt lat="45.0805686708286" lon="7.7485211114185955"><ele>399.0</ele><time>2026-04-06T08:24:31.999Z</time></trkpt><trkpt lat="45.08054688475704" lon="7.748606178558837"><ele>401.2857142857143</ele><time>2026-04-06T08:24:35.999Z</time></trkpt><trkpt lat="45.08052762758565" lon="7.748696912094745"><ele>403.57142857142856</ele><time>2026-04-06T08:24:40.999Z</time></trkpt><trkpt lat="45.080498392891414" lon="7.748783259388301"><ele>405.8571428571429</ele><time>2026-04-06T08:24:45.999Z</time></trkpt><trkpt lat="45.08047715750463" lon="7.74887611241239"><ele>408.1428571428571</ele><time>2026-04-06T08:24:49.999Z</time></trkpt><trkpt lat="45.08044504708864" lon="7.748967992359951"><ele>410.42857142857144</ele><time>2026-04-06T08:24:54.999Z</time></trkpt><trkpt lat="45.08040673973902" lon="7.749045689483135"><ele>412.7142857142857</ele><time>2026-04-06T08:24:59.998Z</time></trkpt><trkpt lat="45.08036246692644" lon="7.749125437636615"><ele>415.0</ele><time>2026-04-06T08:25:04.998Z</time></trkpt><trkpt lat="45.08033336600475" lon="7.749219295603369"><ele>415.0</ele><time>2026-04-06T08:25:10.998Z</time></trkpt><trkpt lat="45.08030622971275" lon="7.749303410976806"><ele>415.0</ele><time>2026-04-06T08:25:15.998Z</time></trkpt><trkpt lat="45.08029418855381" lon="7.749390964746838"><ele>415.0</ele><time>2026-04-06T08:25:20.998Z</time></trkpt><trkpt lat="45.080276386076775" lon="7.749486087990728"><ele>415.0</ele><time>2026-04-06T08:25:26Z</time></trkpt><trkpt lat="45.080282022183674" lon="7.749577944819444"><ele>415.0</ele><time>2026-04-06T08:25:31Z</time></trkpt><trkpt lat="45.080296053433045" lon="7.749675828857449"><ele>415.0</ele><time>2026-04-06T08:25:37Z</time></trkpt><trkpt lat="45.08030481963937" lon="7.749772946747613"><ele>415.0</ele><time>2026-04-06T08:25:43Z</time></trkpt><trkpt lat="45.08031098473316" lon="7.749865449862155"><ele>416.0</ele><time>2026-04-06T08:25:48.999Z</time></trkpt><trkpt lat="45.08032061202378" lon="7.749964614374716"><ele>417.0</ele><time>2026-04-06T08:25:54.999Z</time></trkpt><trkpt lat="45.08035199647696" lon="7.750058547193855"><ele>418.0</ele><time>2026-04-06T08:26:00.999Z</time></trkpt><trkpt lat="45.080338743272875" lon="7.750155544158509"><ele>419.0</ele><time>2026-04-06T08:26:05.999Z</time></trkpt><trkpt lat="45.08034104258437" lon="7.750257602116531"><ele>420.0</ele><time>2026-04-06T08:26:11.999Z</time></trkpt><trkpt lat="45.08029477302991" lon="7.750331554644216"><ele>421.0</ele><time>2026-04-06T08:26:17.999Z</time></trkpt><trkpt lat="45.08024377579674" lon="7.750398324283954"><ele>422.0</ele><time>2026-04-06T08:26:23.999Z</time></trkpt><trkpt lat="45.080179770473336" lon="7.750435379802535"><ele>422.0</ele><time>2026-04-06T08:26:28.999Z</time></trkpt><trkpt lat="45.08011451484872" lon="7.750461631284887"><ele>422.0</ele><time>2026-04-06T08:26:33.999Z</time></trkpt><trkpt lat="45.08004762732828" lon="7.750496780216836"><ele>422.0</ele><time>2026-04-06T08:26:40.999Z</time></trkpt><trkpt lat="45.079979901532134" lon="7.75051451857432"><ele>422.0</ele><time>2026-04-06T08:26:46.999Z</time></trkpt><trkpt lat="45.07992413625996" lon="7.750567892815492"><ele>422.0</ele><time>2026-04-06T08:26:52.998Z</time></trkpt><trkpt lat="45.079863391824375" lon="7.750602387152177"><ele>422.0</ele><time>2026-04-06T08:26:58.998Z</time></trkpt><trkpt lat="45.07980194119397" lon="7.750661833978351"><ele>422.0</ele><time>2026-04-06T08:27:04.998Z</time></trkpt><trkpt lat="45.0797578711701" lon="7.7507276671101435"><ele>426.7142857142857</ele><time>2026-04-06T08:27:10.998Z</time></trkpt><trkpt lat="45.07970624531162" lon="7.750795891421445"><ele>431.42857142857144</ele><time>2026-04-06T08:27:17.998Z</time></trkpt><trkpt lat="45.07965678899124" lon="7.7508749532873225"><ele>436.1428571428571</ele><time>2026-04-06T08:27:23.998Z</time></trkpt><trkpt lat="45.0796165337088" lon="7.750962001110684"><ele>440.8571428571429</ele><time>2026-04-06T08:27:30Z</time></trkpt><trkpt lat="45.07959097202662" lon="7.751058549769677"><ele>445.57142857142856</ele><time>2026-04-06T08:27:37Z</time></trkpt><trkpt lat="45.07956455770594" lon="7.751152406387646"><ele>450.2857142857143</ele><time>2026-04-06T08:27:43Z</time></trkpt><trkpt lat="45.07952584878109" lon="7.7512259604197435"><ele>455.0</ele><time>2026-04-06T08:27:49Z</time></trkpt><trkpt lat="45.079490504873284" lon="7.751310601232652"><ele>455.0</ele><time>2026-04-06T08:27:55Z</time></trkpt><trkpt lat="45.07946982623445" lon="7.751410851505244"><ele>455.0</ele><time>2026-04-06T08:28:01Z</time></trkpt><trkpt lat="45.079451613406185" lon="7.751498323029328"><ele>455.0</ele><time>2026-04-06T08:28:08Z</time></trkpt><trkpt lat="45.079471027799556" lon="7.751588687493593"><ele>455.0</ele><time>2026-04-06T08:28:14Z</time></trkpt><trkpt lat="45.07947939091805" lon="7.751680400614299"><ele>455.0</ele><time>2026-04-06T08:28:20Z</time></trkpt><trkpt lat="45.0795092799141" lon="7.75177307801117"><ele>455.0</ele><time>2026-04-06T08:28:25.999Z</time></trkpt><trkpt lat="45.07952868960998" lon="7.751864360097499"><ele>455.0</ele><time>2026-04-06T08:28:32.999Z</time></trkpt><trkpt lat="45.07954574105862" lon="7.751966063334234"><ele>455.0</ele><time>2026-04-06T08:28:38.999Z</time></trkpt><trkpt lat="45.07955546679418" lon="7.752055685452368"><ele>455.0</ele><time>2026-04-06T08:28:44.999Z</time></trkpt><trkpt lat="45.079561601347905" lon="7.752145560838837"><ele>455.0</ele><time>2026-04-06T08:28:50.999Z</time></trkpt><trkpt lat="45.07957069236091" lon="7.7522387115843"><ele>455.0</ele><time>2026-04-06T08:28:57.999Z</time></trkpt><trkpt lat="45.07958087712588" lon="7.7523315834213005"><ele>455.0</ele><time>2026-04-06T08:29:03.999Z</time></trkpt><trkpt lat="45.07958845411004" lon="7.7524354391956685"><ele>455.0</ele><time>2026-04-06T08:29:09.999Z</time></trkpt><trkpt lat="45.079545121393465" lon="7.752511925402789"><ele>455.0</ele><time>2026-04-06T08:29:15.999Z</time></trkpt><trkpt lat="45.07949278459914" lon="7.752439540673676"><ele>455.0</ele><time>2026-04-06T08:29:19.999Z</time></trkpt><trkpt lat="45.07944627531462" lon="7.7523558452337"><ele>455.0</ele><time>2026-04-06T08:29:24.999Z</time></trkpt><trkpt lat="45.07941246378318" lon="7.752276043744983"><ele>455.0</ele><time>2026-04-06T08:29:29.999Z</time></trkpt><trkpt lat="45.0793684112692" lon="7.752196514302459"><ele>455.0</ele><time>2026-04-06T08:29:36Z</time></trkpt><trkpt lat="45.079335709273046" lon="7.752112665398198"><ele>455.0</ele><time>2026-04-06T08:29:42Z</time></trkpt><trkpt lat="45.0792900507823" lon="7.752040359794805"><ele>455.0</ele><time>2026-04-06T08:29:47Z</time></trkpt><trkpt lat="45.07925527838357" lon="7.751964334130089"><ele>455.0</ele><time>2026-04-06T08:29:52Z</time></trkpt><trkpt lat="45.0792164998578" lon="7.751890542395525"><ele>455.0</ele><time>2026-04-06T08:29:57Z</time></trkpt><trkpt lat="45.07918579541561" lon="7.751809375686996"><ele>455.0</ele><time>2026-04-06T08:30:02Z</time></trkpt><trkpt lat="45.079138252944965" lon="7.751735795245581"><ele>455.0</ele><time>2026-04-06T08:30:08Z</time></trkpt><trkpt lat="45.079095033051225" lon="7.751643987508936"><ele>455.0</ele><time>2026-04-06T08:30:14Z</time></trkpt><trkpt lat="45.07905172191369" lon="7.751560102218857"><ele>455.0</ele><time>2026-04-06T08:30:20Z</time></trkpt><trkpt lat="45.07902222460201" lon="7.751455704174707"><ele>455.0</ele><time>2026-04-06T08:30:27Z</time></trkpt><trkpt lat="45.0790023906472" lon="7.751364435754275"><ele>455.0</ele><time>2026-04-06T08:30:31Z</time></trkpt><trkpt lat="45.078991651419344" lon="7.751265105633977"><ele>455.42857142857144</ele><time>2026-04-06T08:30:36.999Z</time></trkpt><trkpt lat="45.07897418170615" lon="7.751148749542108"><ele>455.8571428571429</ele><time>2026-04-06T08:30:43.999Z</time></trkpt><trkpt lat="45.078963028525195" lon="7.751060750594814"><ele>456.2857142857143</ele><time>2026-04-06T08:30:49.999Z</time></trkpt><trkpt lat="45.078944832158584" lon="7.750964097323567"><ele>456.7142857142857</ele><time>2026-04-06T08:30:54.999Z</time></trkpt><trkpt lat="45.07890078638129" lon="7.750884996200184"><ele>457.14285714285717</ele><time>2026-04-06T08:30:59.999Z</time></trkpt><trkpt lat="45.07885149395267" lon="7.750820728944268"><ele>457.57142857142856</ele><time>2026-04-06T08:31:04.999Z</time></trkpt><trkpt lat="45.07878831188942" lon="7.750784247199484"><ele>458.0</ele><time>2026-04-06T08:31:10.999Z</time></trkpt><trkpt lat="45.07871811515288" lon="7.750775223218619"><ele>458.0</ele><time>2026-04-06T08:31:15.999Z</time></trkpt><trkpt lat="45.078664988476156" lon="7.75085491357885"><ele>458.0</ele><time>2026-04-06T08:31:20.999Z</time></trkpt><trkpt lat="45.078633484960676" lon="7.750951467736351"><ele>458.0</ele><time>2026-04-06T08:31:25.999Z</time></trkpt><trkpt lat="45.07859377015496" lon="7.75103226058414"><ele>458.0</ele><time>2026-04-06T08:31:30.999Z</time></trkpt><trkpt lat="45.078561727446136" lon="7.751119520063436"><ele>458.0</ele><time>2026-04-06T08:31:35.999Z</time></trkpt><trkpt lat="45.07852442279919" lon="7.751211345548066"><ele>458.0</ele><time>2026-04-06T08:31:42Z</time></trkpt><trkpt lat="45.07850058849267" lon="7.7513133645635675"><ele>458.0</ele><time>2026-04-06T08:31:48Z</time></trkpt><trkpt lat="45.07849002560488" lon="7.751401467608755"><ele>458.0</ele><time>2026-04-06T08:31:53Z</time></trkpt><trkpt lat="45.07848938603437" lon="7.751491075980495"><ele>458.0</ele><time>2026-04-06T08:31:58Z</time></trkpt><trkpt lat="45.078510130012624" lon="7.7515986243304"><ele>458.0</ele><time>2026-04-06T08:32:03Z</time></trkpt><trkpt lat="45.078534008672634" lon="7.751701129635198"><ele>458.0</ele><time>2026-04-06T08:32:08Z</time></trkpt><trkpt lat="45.078538804063456" lon="7.751799130207118"><ele>458.0</ele><time>2026-04-06T08:32:13Z</time></trkpt><trkpt lat="45.07855573428791" lon="7.751887200297069"><ele>458.0</ele><time>2026-04-06T08:32:17Z</time></trkpt><trkpt lat="45.07857027156176" lon="7.751992425418093"><ele>458.0</ele><time>2026-04-06T08:32:22Z</time></trkpt><trkpt lat="45.07858319966988" lon="7.7520865856092085"><ele>459.0</ele><time>2026-04-06T08:32:26Z</time></trkpt><trkpt lat="45.078560655564694" lon="7.7521763723014585"><ele>460.0</ele><time>2026-04-06T08:32:29.999Z</time></trkpt><trkpt lat="45.07853592269593" lon="7.752264344204081"><ele>461.0</ele><time>2026-04-06T08:32:33.999Z</time></trkpt><trkpt lat="45.07851628179516" lon="7.752374030176439"><ele>462.0</ele><time>2026-04-06T08:32:38.999Z</time></trkpt><trkpt lat="45.07847763279601" lon="7.752476954678892"><ele>463.0</ele><time>2026-04-06T08:32:43.999Z</time></trkpt><trkpt lat="45.07845313490101" lon="7.752574520405334"><ele>464.0</ele><time>2026-04-06T08:32:48.999Z</time></trkpt><trkpt lat="45.078429610167404" lon="7.752669480714285"><ele>465.0</ele><time>2026-04-06T08:32:52.999Z</time></trkpt><trkpt lat="45.078390854440904" lon="7.752740385854688"><ele>465.42857142857144</ele><time>2026-04-06T08:32:55.999Z</time></trkpt><trkpt lat="45.07836655621224" lon="7.752826150877218"><ele>465.8571428571429</ele><time>2026-04-06T08:33:00.999Z</time></trkpt><trkpt lat="45.07834984651617" lon="7.752920486998485"><ele>466.28571428571433</ele><time>2026-04-06T08:33:04.999Z</time></trkpt><trkpt lat="45.078329601715666" lon="7.7530125573546895"><ele>466.7142857142857</ele><time>2026-04-06T08:33:08.999Z</time></trkpt><trkpt lat="45.07830518220384" lon="7.753117566954754"><ele>467.1428571428572</ele><time>2026-04-06T08:33:12.999Z</time></trkpt><trkpt lat="45.07827924601437" lon="7.753209528267876"><ele>467.5714285714286</ele><time>2026-04-06T08:33:15.999Z</time></trkpt><trkpt lat="45.07826556903999" lon="7.753312396016109"><ele>468.0</ele><time>2026-04-06T08:33:18.999Z</time></trkpt><trkpt lat="45.07824776146013" lon="7.753405009549094"><ele>469.1666666666667</ele><time>2026-04-06T08:33:21.999Z</time></trkpt><trkpt lat="45.07824945024122" lon="7.753519662661444"><ele>470.33333333333337</ele><time>2026-04-06T08:33:24.999Z</time></trkpt><trkpt lat="45.078260917563604" lon="7.7536331743575095"><ele>471.5</ele><time>2026-04-06T08:33:27.999Z</time></trkpt><trkpt lat="45.07827921025796" lon="7.753728814169201"><ele>472.6666666666667</ele><time>2026-04-06T08:33:30.999Z</time></trkpt><trkpt lat="45.078302426140475" lon="7.753829781292827"><ele>473.83333333333337</ele><time>2026-04-06T08:33:33.999Z</time></trkpt><trkpt lat="45.07832011205618" lon="7.753918979612338"><ele>475.0</ele><time>2026-04-06T08:33:36.999Z</time></trkpt><trkpt lat="45.07835663153804" lon="7.754023387019229"><ele>475.0</ele><time>2026-04-06T08:33:40.999Z</time></trkpt><trkpt lat="45.078378986397084" lon="7.75412040142082"><ele>475.00000000000006</ele><time>2026-04-06T08:33:44.999Z</time></trkpt><trkpt lat="45.07839934113297" lon="7.7542250121070655"><ele>475.0</ele><time>2026-04-06T08:33:49Z</time></trkpt><trkpt lat="45.07843468846952" lon="7.754321100145523"><ele>475.0</ele><time>2026-04-06T08:33:53Z</time></trkpt><trkpt lat="45.07847195111928" lon="7.754418390886389"><ele>475.00000000000006</ele><time>2026-04-06T08:33:57Z</time></trkpt><trkpt lat="45.07848848356228" lon="7.754507693155375"><ele>475.0</ele><time>2026-04-06T08:34:00Z</time></trkpt><trkpt lat="45.07849999784258" lon="7.754595400074932"><ele>475.0</ele><time>2026-04-06T08:34:03Z</time></trkpt><trkpt lat="45.07850236110075" lon="7.754705201023365"><ele>476.00000000000006</ele><time>2026-04-06T08:34:07Z</time></trkpt><trkpt lat="45.078484364726336" lon="7.7548278140916995"><ele>477.0</ele><time>2026-04-06T08:34:11Z</time></trkpt><trkpt lat="45.07847132541991" lon="7.754919658434889"><ele>478.0</ele><time>2026-04-06T08:34:14Z</time></trkpt><trkpt lat="45.078458131570976" lon="7.755013041261532"><ele>479.0</ele><time>2026-04-06T08:34:18Z</time></trkpt><trkpt lat="45.07843423908339" lon="7.755136612102606"><ele>480.00000000000006</ele><time>2026-04-06T08:34:22Z</time></trkpt><trkpt lat="45.07844123590885" lon="7.755238583806965"><ele>481.0</ele><time>2026-04-06T08:34:25Z</time></trkpt><trkpt lat="45.07844076568305" lon="7.755370629540701"><ele>481.42857142857133</ele><time>2026-04-06T08:34:29Z</time></trkpt><trkpt lat="45.07846596124096" lon="7.755469369512485"><ele>481.85714285714283</ele><time>2026-04-06T08:34:32Z</time></trkpt><trkpt lat="45.07847273801649" lon="7.755569095887937"><ele>482.2857142857142</ele><time>2026-04-06T08:34:35Z</time></trkpt><trkpt lat="45.078486507666454" lon="7.7556718224755015"><ele>482.71428571428567</ele><time>2026-04-06T08:34:38Z</time></trkpt><trkpt lat="45.078491366172244" lon="7.755769943075157"><ele>483.1428571428571</ele><time>2026-04-06T08:34:41Z</time></trkpt><trkpt lat="45.07850852302896" lon="7.755872726230679"><ele>483.57142857142856</ele><time>2026-04-06T08:34:45Z</time></trkpt><trkpt lat="45.07850783111694" lon="7.755992392431261"><ele>484.0</ele><time>2026-04-06T08:34:47.999Z</time></trkpt><trkpt lat="45.078501884684954" lon="7.756081256216754"><ele>484.57142857142856</ele><time>2026-04-06T08:34:50.999Z</time></trkpt><trkpt lat="45.07849484341026" lon="7.756185951426819"><ele>485.1428571428571</ele><time>2026-04-06T08:34:53.999Z</time></trkpt><trkpt lat="45.07846626099164" lon="7.756289562974812"><ele>485.71428571428567</ele><time>2026-04-06T08:34:56.999Z</time></trkpt><trkpt lat="45.07844978621417" lon="7.756393478548123"><ele>486.2857142857142</ele><time>2026-04-06T08:34:59.999Z</time></trkpt><trkpt lat="45.07843918006921" lon="7.7564926231667215"><ele>486.85714285714283</ele><time>2026-04-06T08:35:02.999Z</time></trkpt><trkpt lat="45.07843459373159" lon="7.7565986856029"><ele>487.42857142857133</ele><time>2026-04-06T08:35:05.999Z</time></trkpt><trkpt lat="45.07843273691597" lon="7.7566953731534545"><ele>487.99999999999994</ele><time>2026-04-06T08:35:08.999Z</time></trkpt><trkpt lat="45.07843777217012" lon="7.756796203778127"><ele>487.8333333333333</ele><time>2026-04-06T08:35:11.999Z</time></trkpt><trkpt lat="45.078441645243885" lon="7.756902735883095"><ele>487.66666666666663</ele><time>2026-04-06T08:35:14.999Z</time></trkpt><trkpt lat="45.07845295017529" lon="7.75701094240991"><ele>487.5</ele><time>2026-04-06T08:35:18.999Z</time></trkpt><trkpt lat="45.07845178047249" lon="7.757153320719774"><ele>487.33333333333337</ele><time>2026-04-06T08:35:22.999Z</time></trkpt><trkpt lat="45.07845476766349" lon="7.757259186635816"><ele>487.1666666666667</ele><time>2026-04-06T08:35:25.999Z</time></trkpt><trkpt lat="45.07844519555935" lon="7.757356563855258"><ele>487.0</ele><time>2026-04-06T08:35:28.999Z</time></trkpt><trkpt lat="45.078444941042115" lon="7.757469061313988"><ele>487.0</ele><time>2026-04-06T08:35:31.999Z</time></trkpt><trkpt lat="45.078443569424905" lon="7.757577586677429"><ele>487.0</ele><time>2026-04-06T08:35:34.999Z</time></trkpt><trkpt lat="45.07843976718508" lon="7.757675708620867"><ele>487.0</ele><time>2026-04-06T08:35:37.999Z</time></trkpt><trkpt lat="45.0784397120961" lon="7.757775210662567"><ele>487.0</ele><time>2026-04-06T08:35:40.999Z</time></trkpt><trkpt lat="45.07843193093447" lon="7.757872751411561"><ele>487.0</ele><time>2026-04-06T08:35:43.999Z</time></trkpt><trkpt lat="45.07843013434548" lon="7.75797850080754"><ele>487.0</ele><time>2026-04-06T08:35:47.999Z</time></trkpt><trkpt lat="45.0784225350211" lon="7.75808955575421"><ele>487.0</ele><time>2026-04-06T08:35:51.999Z</time></trkpt><trkpt lat="45.07841736744331" lon="7.758196241366587"><ele>487.50000000000006</ele><time>2026-04-06T08:35:56Z</time></trkpt><trkpt lat="45.07840942760713" lon="7.7582960459263"><ele>488.0</ele><time>2026-04-06T08:36:00Z</time></trkpt><trkpt lat="45.078387091710226" lon="7.758407628888217"><ele>488.5</ele><time>2026-04-06T08:36:04Z</time></trkpt><trkpt lat="45.07838971881816" lon="7.758516815052236"><ele>489.0</ele><time>2026-04-06T08:36:09Z</time></trkpt><trkpt lat="45.07838498525515" lon="7.758628110271097"><ele>489.50000000000006</ele><time>2026-04-06T08:36:14Z</time></trkpt><trkpt lat="45.0783803728169" lon="7.7587279719534825"><ele>490.0</ele><time>2026-04-06T08:36:18Z</time></trkpt><trkpt lat="45.078377570356075" lon="7.758829172943266"><ele>491.57142857142856</ele><time>2026-04-06T08:36:23Z</time></trkpt><trkpt lat="45.07836725320125" lon="7.758939732900052"><ele>493.1428571428571</ele><time>2026-04-06T08:36:29Z</time></trkpt><trkpt lat="45.07837249106477" lon="7.759035853752489"><ele>494.7142857142857</ele><time>2026-04-06T08:36:34Z</time></trkpt><trkpt lat="45.07836647564384" lon="7.759129119029267"><ele>496.2857142857143</ele><time>2026-04-06T08:36:38.999Z</time></trkpt><trkpt lat="45.07837503937903" lon="7.759233632190511"><ele>497.85714285714283</ele><time>2026-04-06T08:36:44.999Z</time></trkpt><trkpt lat="45.078370530652386" lon="7.759327308077049"><ele>499.42857142857144</ele><time>2026-04-06T08:36:50.999Z</time></trkpt><trkpt lat="45.07835982336045" lon="7.759422903115754"><ele>501.0</ele><time>2026-04-06T08:36:55.999Z</time></trkpt><trkpt lat="45.078379614075914" lon="7.759516543117657"><ele>502.7142857142857</ele><time>2026-04-06T08:37:01.999Z</time></trkpt><trkpt lat="45.07836706415037" lon="7.759614789543202"><ele>504.42857142857144</ele><time>2026-04-06T08:37:07.999Z</time></trkpt><trkpt lat="45.07835819979105" lon="7.759708467123331"><ele>506.14285714285717</ele><time>2026-04-06T08:37:13.999Z</time></trkpt><trkpt lat="45.078359259660814" lon="7.759800269958703"><ele>507.8571428571429</ele><time>2026-04-06T08:37:19.999Z</time></trkpt><trkpt lat="45.078383909166426" lon="7.759909530835333"><ele>509.57142857142856</ele><time>2026-04-06T08:37:25.999Z</time></trkpt><trkpt lat="45.07835935996435" lon="7.759994079578511"><ele>511.28571428571433</ele><time>2026-04-06T08:37:32.999Z</time></trkpt><trkpt lat="45.07835303589888" lon="7.760083641592794"><ele>513.0</ele><time>2026-04-06T08:37:38.999Z</time></trkpt><trkpt lat="45.07836734375718" lon="7.76017675588332"><ele>513.1428571428572</ele><time>2026-04-06T08:37:44.999Z</time></trkpt><trkpt lat="45.07835582417157" lon="7.760282079626552"><ele>513.2857142857143</ele><time>2026-04-06T08:37:52.999Z</time></trkpt><trkpt lat="45.07836553921149" lon="7.760382340785288"><ele>513.4285714285714</ele><time>2026-04-06T08:37:58.999Z</time></trkpt><trkpt lat="45.078347068576065" lon="7.760488745684518"><ele>513.5714285714287</ele><time>2026-04-06T08:38:07Z</time></trkpt><trkpt lat="45.07832117076961" lon="7.760575839677795"><ele>513.7142857142858</ele><time>2026-04-06T08:38:13Z</time></trkpt><trkpt lat="45.07828854314711" lon="7.760654200925321"><ele>513.8571428571429</ele><time>2026-04-06T08:38:19Z</time></trkpt><trkpt lat="45.07826179138586" lon="7.7607404341257356"><ele>514.0</ele><time>2026-04-06T08:38:26Z</time></trkpt><trkpt lat="45.0782106335465" lon="7.760805854863521"><ele>514.0</ele><time>2026-04-06T08:38:32Z</time></trkpt><trkpt lat="45.07817589086386" lon="7.760883049872942"><ele>514.0</ele><time>2026-04-06T08:38:38Z</time></trkpt><trkpt lat="45.078133448063106" lon="7.760959201932776"><ele>514.0</ele><time>2026-04-06T08:38:45Z</time></trkpt><trkpt lat="45.07811376429285" lon="7.76104746724865"><ele>514.0</ele><time>2026-04-06T08:38:50Z</time></trkpt><trkpt lat="45.07806694661882" lon="7.761114190674987"><ele>514.0</ele><time>2026-04-06T08:38:56.999Z</time></trkpt><trkpt lat="45.078019606859165" lon="7.761188541103031"><ele>514.0</ele><time>2026-04-06T08:39:02.999Z</time></trkpt><trkpt lat="45.07796067494532" lon="7.7612313192892275"><ele>514.0</ele><time>2026-04-06T08:39:08.999Z</time></trkpt><trkpt lat="45.07789439094297" lon="7.761251912289666"><ele>515.0</ele><time>2026-04-06T08:39:13.999Z</time></trkpt><trkpt lat="45.077834224891" lon="7.7613091652181465"><ele>516.0</ele><time>2026-04-06T08:39:20.999Z</time></trkpt><trkpt lat="45.077756858691956" lon="7.761346583007721"><ele>517.0</ele><time>2026-04-06T08:39:25.999Z</time></trkpt><trkpt lat="45.07769292892394" lon="7.7613658197265964"><ele>518.0</ele><time>2026-04-06T08:39:30.999Z</time></trkpt><trkpt lat="45.077623605256086" lon="7.761370425737649"><ele>519.0</ele><time>2026-04-06T08:39:35.999Z</time></trkpt><trkpt lat="45.07755701716018" lon="7.761416616816052"><ele>520.0</ele><time>2026-04-06T08:39:40.999Z</time></trkpt><trkpt lat="45.077489498786605" lon="7.761427890305745"><ele>521.0</ele><time>2026-04-06T08:39:46.999Z</time></trkpt><trkpt lat="45.0774176935681" lon="7.761456739080444"><ele>521.0</ele><time>2026-04-06T08:39:52.999Z</time></trkpt><trkpt lat="45.077355840979635" lon="7.761511846097009"><ele>521.0</ele><time>2026-04-06T08:39:58.999Z</time></trkpt><trkpt lat="45.07729228510377" lon="7.761551526655102"><ele>521.0</ele><time>2026-04-06T08:40:03.999Z</time></trkpt><trkpt lat="45.07726496411012" lon="7.761649009832077"><ele>521.0</ele><time>2026-04-06T08:40:09Z</time></trkpt><trkpt lat="45.0772315924236" lon="7.761730357289838"><ele>521.0</ele><time>2026-04-06T08:40:15Z</time></trkpt><trkpt lat="45.07720014804695" lon="7.761815537464987"><ele>521.0</ele><time>2026-04-06T08:40:21Z</time></trkpt><trkpt lat="45.0771663809012" lon="7.761892577282628"><ele>521.0</ele><time>2026-04-06T08:40:26Z</time></trkpt><trkpt lat="45.07709906786433" lon="7.761940995528901"><ele>524.2857142857142</ele><time>2026-04-06T08:40:32Z</time></trkpt><trkpt lat="45.07703347810506" lon="7.761963999710519"><ele>527.5714285714286</ele><time>2026-04-06T08:40:39Z</time></trkpt><trkpt lat="45.07697342211934" lon="7.761992397560635"><ele>530.8571428571429</ele><time>2026-04-06T08:40:45Z</time></trkpt><trkpt lat="45.076927630316085" lon="7.762057387849107"><ele>534.1428571428571</ele><time>2026-04-06T08:40:52Z</time></trkpt><trkpt lat="45.07687070431366" lon="7.762107643439785"><ele>537.4285714285714</ele><time>2026-04-06T08:40:57Z</time></trkpt><trkpt lat="45.076829865583626" lon="7.762182998692419"><ele>540.7142857142857</ele><time>2026-04-06T08:41:02Z</time></trkpt><trkpt lat="45.07677820782855" lon="7.762247003736855"><ele>544.0</ele><time>2026-04-06T08:41:08Z</time></trkpt><trkpt lat="45.07673335166666" lon="7.762319435889831"><ele>543.9999999999999</ele><time>2026-04-06T08:41:12.999Z</time></trkpt><trkpt lat="45.07670378811347" lon="7.7624013071639375"><ele>544.0</ele><time>2026-04-06T08:41:18.999Z</time></trkpt><trkpt lat="45.07666272029758" lon="7.762481800667287"><ele>544.0</ele><time>2026-04-06T08:41:24.999Z</time></trkpt><trkpt lat="45.076631411890766" lon="7.762573087816286"><ele>544.0</ele><time>2026-04-06T08:41:30.999Z</time></trkpt><trkpt lat="45.076614383136345" lon="7.762663843587819"><ele>544.0</ele><time>2026-04-06T08:41:36.999Z</time></trkpt><trkpt lat="45.07659146744232" lon="7.762764527831694"><ele>543.9999999999999</ele><time>2026-04-06T08:41:42.999Z</time></trkpt><trkpt lat="45.07658883462536" lon="7.7628628038569545"><ele>544.0</ele><time>2026-04-06T08:41:48.999Z</time></trkpt><trkpt lat="45.07661628447531" lon="7.762962023661716"><ele>544.7142857142857</ele><time>2026-04-06T08:41:54.999Z</time></trkpt><trkpt lat="45.07664824458846" lon="7.763046551716971"><ele>545.4285714285714</ele><time>2026-04-06T08:41:59.999Z</time></trkpt><trkpt lat="45.07669870339367" lon="7.763106471843814"><ele>546.1428571428571</ele><time>2026-04-06T08:42:03.999Z</time></trkpt><trkpt lat="45.07674859270351" lon="7.763176793880114"><ele>546.8571428571429</ele><time>2026-04-06T08:42:08.999Z</time></trkpt><trkpt lat="45.07679819126073" lon="7.763264920944673"><ele>547.5714285714286</ele><time>2026-04-06T08:42:15Z</time></trkpt><trkpt lat="45.07687527108893" lon="7.763278020966038"><ele>548.2857142857142</ele><time>2026-04-06T08:42:19Z</time></trkpt><trkpt lat="45.07688316083664" lon="7.763386037466559"><ele>549.0</ele><time>2026-04-06T08:42:24Z</time></trkpt><trkpt lat="45.07692396787086" lon="7.763456493193748"><ele>549.0</ele><time>2026-04-06T08:42:30Z</time></trkpt><trkpt lat="45.07696773407536" lon="7.763525333255157"><ele>549.0</ele><time>2026-04-06T08:42:35Z</time></trkpt><trkpt lat="45.07700643133731" lon="7.763600349889549"><ele>549.0</ele><time>2026-04-06T08:42:40Z</time></trkpt><trkpt lat="45.07704715651594" lon="7.763672272139019"><ele>549.0</ele><time>2026-04-06T08:42:45Z</time></trkpt><trkpt lat="45.077088208476304" lon="7.763742675039598"><ele>549.0</ele><time>2026-04-06T08:42:50Z</time></trkpt><trkpt lat="45.077130525196154" lon="7.763809037550447"><ele>549.0</ele><time>2026-04-06T08:42:55Z</time></trkpt><trkpt lat="45.07718445039375" lon="7.763890978825212"><ele>549.0</ele><time>2026-04-06T08:43:02Z</time></trkpt><trkpt lat="45.077227416910766" lon="7.763967394564173"><ele>548.2857142857142</ele><time>2026-04-06T08:43:08Z</time></trkpt><trkpt lat="45.07727226945086" lon="7.764033222429177"><ele>547.5714285714286</ele><time>2026-04-06T08:43:12.999Z</time></trkpt><trkpt lat="45.07732934059728" lon="7.7641036448922724"><ele>546.8571428571429</ele><time>2026-04-06T08:43:18.999Z</time></trkpt><trkpt lat="45.07738190931299" lon="7.764176553947375"><ele>546.1428571428571</ele><time>2026-04-06T08:43:24.999Z</time></trkpt><trkpt lat="45.07743250101773" lon="7.764249151514051"><ele>545.4285714285714</ele><time>2026-04-06T08:43:30.999Z</time></trkpt><trkpt lat="45.077472606350085" lon="7.7643320003445835"><ele>544.7142857142857</ele><time>2026-04-06T08:43:36.999Z</time></trkpt><trkpt lat="45.07750101210512" lon="7.7644201715838665"><ele>544.0</ele><time>2026-04-06T08:43:41.999Z</time></trkpt><trkpt lat="45.07752216153792" lon="7.764509128409629"><ele>544.7142857142857</ele><time>2026-04-06T08:43:46.999Z</time></trkpt><trkpt lat="45.07754626562494" lon="7.764595013647894"><ele>545.4285714285714</ele><time>2026-04-06T08:43:51.999Z</time></trkpt><trkpt lat="45.077544037695006" lon="7.764696295546435"><ele>546.1428571428571</ele><time>2026-04-06T08:43:56.999Z</time></trkpt><trkpt lat="45.07754531599194" lon="7.764807112543508"><ele>546.8571428571429</ele><time>2026-04-06T08:44:01.999Z</time></trkpt><trkpt lat="45.07750979343374" lon="7.764891694024671"><ele>547.5714285714286</ele><time>2026-04-06T08:44:05.999Z</time></trkpt><trkpt lat="45.07748064148357" lon="7.764986780138744"><ele>548.2857142857142</ele><time>2026-04-06T08:44:09.999Z</time></trkpt><trkpt lat="45.07743834666088" lon="7.765076682882418"><ele>549.0</ele><time>2026-04-06T08:44:13.999Z</time></trkpt><trkpt lat="45.0774100360788" lon="7.76515942793629"><ele>550.5714285714286</ele><time>2026-04-06T08:44:18Z</time></trkpt><trkpt lat="45.077381190149204" lon="7.765260166308926"><ele>552.1428571428571</ele><time>2026-04-06T08:44:23Z</time></trkpt><trkpt lat="45.077359275344875" lon="7.7653465554909085"><ele>553.7142857142858</ele><time>2026-04-06T08:44:28Z</time></trkpt><trkpt lat="45.077338171270306" lon="7.765447923909905"><ele>555.2857142857142</ele><time>2026-04-06T08:44:33Z</time></trkpt><trkpt lat="45.07733736341521" lon="7.765545198490248"><ele>556.8571428571429</ele><time>2026-04-06T08:44:36Z</time></trkpt><trkpt lat="45.07731086456347" lon="7.765646440665795"><ele>558.4285714285714</ele><time>2026-04-06T08:44:42Z</time></trkpt><trkpt lat="45.07729342408293" lon="7.765747021297078"><ele>560.0</ele><time>2026-04-06T08:44:47Z</time></trkpt><trkpt lat="45.077283282698986" lon="7.765843233906234"><ele>560.0</ele><time>2026-04-06T08:44:52Z</time></trkpt><trkpt lat="45.07723144939576" lon="7.7659347780673"><ele>560.0</ele><time>2026-04-06T08:44:55Z</time></trkpt><trkpt lat="45.07722365958186" lon="7.766035888339373"><ele>560.0</ele><time>2026-04-06T08:45:01Z</time></trkpt><trkpt lat="45.07719500053289" lon="7.7661310654145295"><ele>560.0</ele><time>2026-04-06T08:45:06Z</time></trkpt><trkpt lat="45.07717357459613" lon="7.766216252504617"><ele>560.0</ele><time>2026-04-06T08:45:10Z</time></trkpt><trkpt lat="45.07714272856547" lon="7.76629966031571"><ele>560.0</ele><time>2026-04-06T08:45:14Z</time></trkpt><trkpt lat="45.07711879126901" lon="7.766388873997503"><ele>560.0</ele><time>2026-04-06T08:45:18.999Z</time></trkpt><trkpt lat="45.077084880250844" lon="7.766475706523245"><ele>562.1428571428571</ele><time>2026-04-06T08:45:23.999Z</time></trkpt><trkpt lat="45.07705317686888" lon="7.766564110796028"><ele>564.2857142857142</ele><time>2026-04-06T08:45:28.999Z</time></trkpt><trkpt lat="45.07701084727135" lon="7.76664180953645"><ele>566.4285714285714</ele><time>2026-04-06T08:45:33.999Z</time></trkpt><trkpt lat="45.07696190829164" lon="7.76671067703691"><ele>568.5714285714286</ele><time>2026-04-06T08:45:38.999Z</time></trkpt><trkpt lat="45.07692397598941" lon="7.766796986815927"><ele>570.7142857142857</ele><time>2026-04-06T08:45:44.999Z</time></trkpt><trkpt lat="45.07689027152591" lon="7.7668940823473775"><ele>572.8571428571429</ele><time>2026-04-06T08:45:48.999Z</time></trkpt><trkpt lat="45.076885990354434" lon="7.767004964473488"><ele>575.0</ele><time>2026-04-06T08:45:53.999Z</time></trkpt><trkpt lat="45.076893971128435" lon="7.767105713059831"><ele>577.3333333333333</ele><time>2026-04-06T08:45:57.999Z</time></trkpt><trkpt lat="45.07689728120541" lon="7.767199589779095"><ele>579.6666666666666</ele><time>2026-04-06T08:46:01.999Z</time></trkpt><trkpt lat="45.076891584349276" lon="7.76729373773524"><ele>582.0</ele><time>2026-04-06T08:46:05.999Z</time></trkpt><trkpt lat="45.07688686621579" lon="7.767407783140038"><ele>584.3333333333334</ele><time>2026-04-06T08:46:10.999Z</time></trkpt><trkpt lat="45.07688454559697" lon="7.767518820784638"><ele>586.6666666666667</ele><time>2026-04-06T08:46:15.999Z</time></trkpt><trkpt lat="45.07687481866631" lon="7.767637064718243"><ele>589.0</ele><time>2026-04-06T08:46:19.999Z</time></trkpt><trkpt lat="45.07685227285748" lon="7.767747275903911"><ele>589.1428571428571</ele><time>2026-04-06T08:46:24Z</time></trkpt><trkpt lat="45.07683826475556" lon="7.767842378127426"><ele>589.2857142857142</ele><time>2026-04-06T08:46:27Z</time></trkpt><trkpt lat="45.076827681835006" lon="7.76793202143831"><ele>589.4285714285714</ele><time>2026-04-06T08:46:30Z</time></trkpt><trkpt lat="45.07682559692104" lon="7.768021388399225"><ele>589.5714285714286</ele><time>2026-04-06T08:46:33Z</time></trkpt><trkpt lat="45.07680892455133" lon="7.7681184495956765"><ele>589.7142857142858</ele><time>2026-04-06T08:46:36Z</time></trkpt><trkpt lat="45.07683296342716" lon="7.768222086154212"><ele>589.8571428571429</ele><time>2026-04-06T08:46:39Z</time></trkpt><trkpt lat="45.07685616285234" lon="7.768305460678839"><ele>590.0</ele><time>2026-04-06T08:46:42Z</time></trkpt><trkpt lat="45.07687202404133" lon="7.76839909155012"><ele>590.0000000000001</ele><time>2026-04-06T08:46:45Z</time></trkpt><trkpt lat="45.076902708527" lon="7.768500288643504"><ele>590.0</ele><time>2026-04-06T08:46:48Z</time></trkpt><trkpt lat="45.076931090062146" lon="7.7685846637618425"><ele>590.0</ele><time>2026-04-06T08:46:51Z</time></trkpt><trkpt lat="45.07696280971402" lon="7.768665900847636"><ele>590.0</ele><time>2026-04-06T08:46:54Z</time></trkpt><trkpt lat="45.07699341003158" lon="7.768749756782532"><ele>590.0</ele><time>2026-04-06T08:46:57Z</time></trkpt><trkpt lat="45.0770403424416" lon="7.768852043281434"><ele>590.0000000000001</ele><time>2026-04-06T08:47:01Z</time></trkpt><trkpt lat="45.07707769979862" lon="7.768955283659683"><ele>590.0</ele><time>2026-04-06T08:47:05Z</time></trkpt><trkpt lat="45.07711368141269" lon="7.769031898510029"><ele>588.5714285714287</ele><time>2026-04-06T08:47:07Z</time></trkpt><trkpt lat="45.07713852001925" lon="7.7691222532938"><ele>587.1428571428571</ele><time>2026-04-06T08:47:11Z</time></trkpt><trkpt lat="45.07717763005331" lon="7.769223929812816"><ele>585.7142857142858</ele><time>2026-04-06T08:47:15Z</time></trkpt><trkpt lat="45.07720779685953" lon="7.769316310899313"><ele>584.2857142857143</ele><time>2026-04-06T08:47:18.999Z</time></trkpt><trkpt lat="45.07723822829544" lon="7.769400586801828"><ele>582.8571428571429</ele><time>2026-04-06T08:47:22.999Z</time></trkpt><trkpt lat="45.077262103550474" lon="7.769495633390755"><ele>581.4285714285714</ele><time>2026-04-06T08:47:26.999Z</time></trkpt><trkpt lat="45.07728923681619" lon="7.76957748313037"><ele>580.0</ele><time>2026-04-06T08:47:30.999Z</time></trkpt><trkpt lat="45.0773139672207" lon="7.769665638395548"><ele>579.2857142857143</ele><time>2026-04-06T08:47:34.999Z</time></trkpt><trkpt lat="45.07734201243669" lon="7.769750458040287"><ele>578.5714285714287</ele><time>2026-04-06T08:47:38.999Z</time></trkpt><trkpt lat="45.07738185263352" lon="7.769836499351022"><ele>577.8571428571429</ele><time>2026-04-06T08:47:42.999Z</time></trkpt><trkpt lat="45.07741591291619" lon="7.769914135049405"><ele>577.1428571428571</ele><time>2026-04-06T08:47:45.999Z</time></trkpt><trkpt lat="45.07745642841299" lon="7.769987403726499"><ele>576.4285714285713</ele><time>2026-04-06T08:47:48.999Z</time></trkpt><trkpt lat="45.077488626156004" lon="7.7700936646324275"><ele>575.7142857142857</ele><time>2026-04-06T08:47:52.999Z</time></trkpt><trkpt lat="45.077528799839065" lon="7.770196040003201"><ele>575.0</ele><time>2026-04-06T08:47:56.999Z</time></trkpt><trkpt lat="45.077564626831055" lon="7.7702770415335785"><ele>579.7142857142857</ele><time>2026-04-06T08:47:59.999Z</time></trkpt><trkpt lat="45.07759862676086" lon="7.77035971019808"><ele>584.4285714285713</ele><time>2026-04-06T08:48:02.999Z</time></trkpt><trkpt lat="45.077634889974156" lon="7.7704384183789585"><ele>589.1428571428571</ele><time>2026-04-06T08:48:05.999Z</time></trkpt><trkpt lat="45.07767492305438" lon="7.770507866667417"><ele>593.8571428571429</ele><time>2026-04-06T08:48:08.999Z</time></trkpt><trkpt lat="45.07771432264951" lon="7.770602438841189"><ele>598.5714285714287</ele><time>2026-04-06T08:48:12.999Z</time></trkpt><trkpt lat="45.07776002842244" lon="7.770693130963871"><ele>603.2857142857142</ele><time>2026-04-06T08:48:16.999Z</time></trkpt><trkpt lat="45.07780991923876" lon="7.7707835753398"><ele>608.0</ele><time>2026-04-06T08:48:20.999Z</time></trkpt><trkpt lat="45.07784836770046" lon="7.770865424208587"><ele>608.0</ele><time>2026-04-06T08:48:24.999Z</time></trkpt><trkpt lat="45.07788682140072" lon="7.77094907487565"><ele>608.0</ele><time>2026-04-06T08:48:28.999Z</time></trkpt><trkpt lat="45.07792909925805" lon="7.771035538012209"><ele>608.0</ele><time>2026-04-06T08:48:32.999Z</time></trkpt><trkpt lat="45.07796863641777" lon="7.771107074401003"><ele>608.0</ele><time>2026-04-06T08:48:35.999Z</time></trkpt><trkpt lat="45.07800121924189" lon="7.771199207771004"><ele>608.0</ele><time>2026-04-06T08:48:38.999Z</time></trkpt><trkpt lat="45.07805067127101" lon="7.771291042754796"><ele>608.0</ele><time>2026-04-06T08:48:43.999Z</time></trkpt><trkpt lat="45.078117060931056" lon="7.771335458996794"><ele>608.0</ele><time>2026-04-06T08:48:47.999Z</time></trkpt><trkpt lat="45.07820024023213" lon="7.771371675725085"><ele>607.8333333333333</ele><time>2026-04-06T08:48:51.999Z</time></trkpt><trkpt lat="45.078251467190526" lon="7.771426728625119"><ele>607.6666666666666</ele><time>2026-04-06T08:48:53.999Z</time></trkpt><trkpt lat="45.078332244402645" lon="7.77149791832311"><ele>607.5</ele><time>2026-04-06T08:48:55.999Z</time></trkpt><trkpt lat="45.07837510301813" lon="7.771592703535418"><ele>607.3333333333334</ele><time>2026-04-06T08:48:57.999Z</time></trkpt><trkpt lat="45.07839264218628" lon="7.771728265792369"><ele>607.1666666666667</ele><time>2026-04-06T08:48:59.999Z</time></trkpt><trkpt lat="45.07839065481203" lon="7.771858075978149"><ele>607.0</ele><time>2026-04-06T08:49:01.999Z</time></trkpt><trkpt lat="45.078382978763564" lon="7.771984208384903"><ele>608.5</ele><time>2026-04-06T08:49:03.999Z</time></trkpt><trkpt lat="45.07838085284905" lon="7.772095502079774"><ele>610.0</ele><time>2026-04-06T08:49:05.999Z</time></trkpt><trkpt lat="45.07838244846171" lon="7.772196277365141"><ele>611.5</ele><time>2026-04-06T08:49:07.999Z</time></trkpt><trkpt lat="45.07837207801268" lon="7.772313145395697"><ele>613.0</ele><time>2026-04-06T08:49:11.999Z</time></trkpt><trkpt lat="45.078361322931194" lon="7.772433446702441"><ele>614.5</ele><time>2026-04-06T08:49:15.999Z</time></trkpt><trkpt lat="45.078348120063616" lon="7.772527745571547"><ele>616.0</ele><time>2026-04-06T08:49:22.999Z</time></trkpt><trkpt lat="45.07833491264363" lon="7.772632817002079"><ele>616.5</ele><time>2026-04-06T08:49:25.999Z</time></trkpt><trkpt lat="45.07831029705937" lon="7.772718470691381"><ele>617.0</ele><time>2026-04-06T08:49:27.999Z</time></trkpt><trkpt lat="45.07828153682874" lon="7.772799682171808"><ele>617.5</ele><time>2026-04-06T08:49:29.999Z</time></trkpt><trkpt lat="45.07825900194343" lon="7.772886100290641"><ele>618.0</ele><time>2026-04-06T08:49:31.999Z</time></trkpt><trkpt lat="45.07821906965986" lon="7.77297475545067"><ele>618.5</ele><time>2026-04-06T08:49:33.999Z</time></trkpt><trkpt lat="45.078147682942685" lon="7.773089020839691"><ele>619.0</ele><time>2026-04-06T08:49:36.999Z</time></trkpt><trkpt lat="45.078084583784445" lon="7.773152050183196"><ele>619.0</ele><time>2026-04-06T08:49:38.999Z</time></trkpt><trkpt lat="45.078020448294794" lon="7.7732054137247815"><ele>619.0</ele><time>2026-04-06T08:49:40.999Z</time></trkpt><trkpt lat="45.077967147763076" lon="7.773266737227709"><ele>619.0</ele><time>2026-04-06T08:49:42.999Z</time></trkpt><trkpt lat="45.077906729312396" lon="7.773334092553824"><ele>619.0</ele><time>2026-04-06T08:49:45.999Z</time></trkpt><trkpt lat="45.07783999133281" lon="7.7733843366899915"><ele>619.0</ele><time>2026-04-06T08:49:48.999Z</time></trkpt><trkpt lat="45.07777861518438" lon="7.7734384237616885"><ele>619.0</ele><time>2026-04-06T08:49:51.999Z</time></trkpt><trkpt lat="45.077728376171194" lon="7.773499979726385"><ele>619.0</ele><time>2026-04-06T08:49:54.999Z</time></trkpt><trkpt lat="45.07766196875643" lon="7.773564759771666"><ele>619.7142857142857</ele><time>2026-04-06T08:49:59.999Z</time></trkpt><trkpt lat="45.07761722845786" lon="7.773635045876553"><ele>620.4285714285714</ele><time>2026-04-06T08:50:03.999Z</time></trkpt><trkpt lat="45.07756851003841" lon="7.773692081483974"><ele>621.1428571428571</ele><time>2026-04-06T08:50:07.999Z</time></trkpt><trkpt lat="45.07752055383652" lon="7.7737630752992155"><ele>621.8571428571429</ele><time>2026-04-06T08:50:11.999Z</time></trkpt><trkpt lat="45.07747377607283" lon="7.77384383737045"><ele>622.5714285714286</ele><time>2026-04-06T08:50:16.999Z</time></trkpt><trkpt lat="45.07742881349197" lon="7.773907320567694"><ele>623.2857142857143</ele><time>2026-04-06T08:50:20.999Z</time></trkpt><trkpt lat="45.0773683493757" lon="7.773960991869296"><ele>624.0</ele><time>2026-04-06T08:50:24.999Z</time></trkpt><trkpt lat="45.07730422585516" lon="7.774032493061788"><ele>626.1666666666666</ele><time>2026-04-06T08:50:29.999Z</time></trkpt><trkpt lat="45.077238265656106" lon="7.77406209037839"><ele>628.3333333333334</ele><time>2026-04-06T08:50:33.999Z</time></trkpt><trkpt lat="45.07715709357305" lon="7.774068542699465"><ele>630.5</ele><time>2026-04-06T08:50:37.999Z</time></trkpt><trkpt lat="45.077090972515016" lon="7.774092642946335"><ele>632.6666666666667</ele><time>2026-04-06T08:50:41.999Z</time></trkpt><trkpt lat="45.077013916566116" lon="7.774097322868709"><ele>634.8333333333334</ele><time>2026-04-06T08:50:45.999Z</time></trkpt><trkpt lat="45.07693701800287" lon="7.774084634607265"><ele>637.0</ele><time>2026-04-06T08:50:49.999Z</time></trkpt><trkpt lat="45.07685985068859" lon="7.774070701963616"><ele>637.0</ele><time>2026-04-06T08:50:53.999Z</time></trkpt><trkpt lat="45.07678678372698" lon="7.7740682646260755"><ele>637.0</ele><time>2026-04-06T08:50:57.999Z</time></trkpt><trkpt lat="45.07671279721741" lon="7.774053470151321"><ele>637.0</ele><time>2026-04-06T08:51:01.999Z</time></trkpt><trkpt lat="45.076632260592206" lon="7.774078417871055"><ele>637.0</ele><time>2026-04-06T08:51:05.999Z</time></trkpt><trkpt lat="45.07655367743923" lon="7.774090139598475"><ele>637.0</ele><time>2026-04-06T08:51:10.999Z</time></trkpt><trkpt lat="45.07647717412257" lon="7.77405061507935"><ele>637.0</ele><time>2026-04-06T08:51:14.999Z</time></trkpt><trkpt lat="45.076400679799406" lon="7.774021508188953"><ele>638.2857142857143</ele><time>2026-04-06T08:51:18.999Z</time></trkpt><trkpt lat="45.07633311491691" lon="7.773997004341421"><ele>639.5714285714286</ele><time>2026-04-06T08:51:21.999Z</time></trkpt><trkpt lat="45.07626995378496" lon="7.773981318642834"><ele>640.8571428571429</ele><time>2026-04-06T08:51:24.999Z</time></trkpt><trkpt lat="45.07620570090713" lon="7.773984190875922"><ele>642.1428571428571</ele><time>2026-04-06T08:51:27.999Z</time></trkpt><trkpt lat="45.07611884186611" lon="7.773974846779494"><ele>643.4285714285714</ele><time>2026-04-06T08:51:31.999Z</time></trkpt><trkpt lat="45.07604118419958" lon="7.773973648464756"><ele>644.7142857142858</ele><time>2026-04-06T08:51:35.999Z</time></trkpt><trkpt lat="45.07597378511097" lon="7.7739686078372525"><ele>646.0</ele><time>2026-04-06T08:51:38.999Z</time></trkpt><trkpt lat="45.07589981191535" lon="7.773958924040643"><ele>646.0000000000001</ele><time>2026-04-06T08:51:42.999Z</time></trkpt><trkpt lat="45.07583818908839" lon="7.773939727132597"><ele>646.0</ele><time>2026-04-06T08:51:45.999Z</time></trkpt><trkpt lat="45.07577014214552" lon="7.773917626873738"><ele>646.0</ele><time>2026-04-06T08:51:48.999Z</time></trkpt><trkpt lat="45.07570848801362" lon="7.773889682437085"><ele>646.0</ele><time>2026-04-06T08:51:51.999Z</time></trkpt><trkpt lat="45.075636894879494" lon="7.7738804779050295"><ele>646.0</ele><time>2026-04-06T08:51:54.999Z</time></trkpt><trkpt lat="45.07557064873086" lon="7.773894462714895"><ele>646.0000000000001</ele><time>2026-04-06T08:51:57.999Z</time></trkpt><trkpt lat="45.07548912252005" lon="7.773949714094182"><ele>646.0</ele><time>2026-04-06T08:52:01.999Z</time></trkpt><trkpt lat="45.07544490303186" lon="7.774032419603051"><ele>644.5</ele><time>2026-04-06T08:52:04.999Z</time></trkpt><trkpt lat="45.075404643512265" lon="7.774143101434443"><ele>643.0</ele><time>2026-04-06T08:52:07.999Z</time></trkpt><trkpt lat="45.075387979643345" lon="7.7742623025569095"><ele>641.5</ele><time>2026-04-06T08:52:10.999Z</time></trkpt><trkpt lat="45.075380501746295" lon="7.77436561513573"><ele>640.0</ele><time>2026-04-06T08:52:13.999Z</time></trkpt><trkpt lat="45.07537554825876" lon="7.7744868166000005"><ele>638.5</ele><time>2026-04-06T08:52:16.999Z</time></trkpt><trkpt lat="45.07536963142585" lon="7.774588208876031"><ele>637.0</ele><time>2026-04-06T08:52:18.999Z</time></trkpt><trkpt lat="45.07536099299802" lon="7.77469301168842"><ele>637.0</ele><time>2026-04-06T08:52:20.999Z</time></trkpt><trkpt lat="45.07534993071818" lon="7.774797376082012"><ele>637.0</ele><time>2026-04-06T08:52:22.999Z</time></trkpt><trkpt lat="45.07533733954263" lon="7.774891244658507"><ele>637.0</ele><time>2026-04-06T08:52:24.999Z</time></trkpt><trkpt lat="45.07531858990083" lon="7.774986785100857"><ele>637.0</ele><time>2026-04-06T08:52:26.999Z</time></trkpt><trkpt lat="45.0752896598885" lon="7.775078509596228"><ele>637.0</ele><time>2026-04-06T08:52:28.999Z</time></trkpt><trkpt lat="45.075260330638635" lon="7.77518025839776"><ele>637.0</ele><time>2026-04-06T08:52:30.999Z</time></trkpt><trkpt lat="45.075213280808576" lon="7.775285372928062"><ele>637.0</ele><time>2026-04-06T08:52:32.999Z</time></trkpt><trkpt lat="45.07517168080592" lon="7.775374397990119"><ele>637.1666666666667</ele><time>2026-04-06T08:52:34.999Z</time></trkpt><trkpt lat="45.07511723153435" lon="7.775453088369192"><ele>637.3333333333334</ele><time>2026-04-06T08:52:36.999Z</time></trkpt><trkpt lat="45.07506808192102" lon="7.7755313913475135"><ele>637.5</ele><time>2026-04-06T08:52:38.999Z</time></trkpt><trkpt lat="45.07501386559722" lon="7.7756006630359895"><ele>637.6666666666666</ele><time>2026-04-06T08:52:40.999Z</time></trkpt><trkpt lat="45.07496076019967" lon="7.775661515037692"><ele>637.8333333333333</ele><time>2026-04-06T08:52:42.999Z</time></trkpt><trkpt lat="45.07490366610334" lon="7.775709161863026"><ele>638.0</ele><time>2026-04-06T08:52:44.999Z</time></trkpt><trkpt lat="45.074824608037375" lon="7.775780995843571"><ele>638.0</ele><time>2026-04-06T08:52:47.999Z</time></trkpt><trkpt lat="45.074746315343724" lon="7.775827952675986"><ele>638.0</ele><time>2026-04-06T08:52:50.999Z</time></trkpt><trkpt lat="45.074666994541005" lon="7.775878445309181"><ele>638.0</ele><time>2026-04-06T08:52:53.999Z</time></trkpt><trkpt lat="45.07459314336584" lon="7.775907185128871"><ele>638.0</ele><time>2026-04-06T08:52:56.999Z</time></trkpt><trkpt lat="45.07451520458954" lon="7.7759515559605505"><ele>638.0</ele><time>2026-04-06T08:52:59.999Z</time></trkpt><trkpt lat="45.07444392465224" lon="7.775997527850447"><ele>638.0</ele><time>2026-04-06T08:53:03Z</time></trkpt><trkpt lat="45.07437809765042" lon="7.776037884629691"><ele>640.1428571428572</ele><time>2026-04-06T08:53:06Z</time></trkpt><trkpt lat="45.07432627920153" lon="7.77609094987843"><ele>642.2857142857142</ele><time>2026-04-06T08:53:09Z</time></trkpt><trkpt lat="45.07428077036499" lon="7.776158321649749"><ele>644.4285714285714</ele><time>2026-04-06T08:53:12Z</time></trkpt><trkpt lat="45.0742197437543" lon="7.776256896342083"><ele>646.5714285714287</ele><time>2026-04-06T08:53:16Z</time></trkpt><trkpt lat="45.07418625214326" lon="7.776333926491119"><ele>648.7142857142858</ele><time>2026-04-06T08:53:19Z</time></trkpt><trkpt lat="45.074164777313634" lon="7.776423567191134"><ele>650.8571428571429</ele><time>2026-04-06T08:53:22Z</time></trkpt><trkpt lat="45.074146255682045" lon="7.776518699197401"><ele>653.0</ele><time>2026-04-06T08:53:25Z</time></trkpt><trkpt lat="45.07412848937016" lon="7.776638171927263"><ele>653.0000000000001</ele><time>2026-04-06T08:53:28Z</time></trkpt><trkpt lat="45.07411243599354" lon="7.776729157201295"><ele>653.0</ele><time>2026-04-06T08:53:30Z</time></trkpt><trkpt lat="45.07410128158073" lon="7.776825797773235"><ele>653.0</ele><time>2026-04-06T08:53:32Z</time></trkpt><trkpt lat="45.07408510731791" lon="7.776912016187121"><ele>653.0</ele><time>2026-04-06T08:53:34Z</time></trkpt><trkpt lat="45.07407432735487" lon="7.777005202108015"><ele>653.0</ele><time>2026-04-06T08:53:36Z</time></trkpt><trkpt lat="45.07406452131278" lon="7.777100528265695"><ele>653.0000000000001</ele><time>2026-04-06T08:53:38Z</time></trkpt><trkpt lat="45.07405295814797" lon="7.777216222514073"><ele>653.0</ele><time>2026-04-06T08:53:41Z</time></trkpt><trkpt lat="45.07403242186207" lon="7.777338793686191"><ele>649.3333333333333</ele><time>2026-04-06T08:53:44Z</time></trkpt><trkpt lat="45.07402290394429" lon="7.777453038750951"><ele>645.6666666666666</ele><time>2026-04-06T08:53:47Z</time></trkpt><trkpt lat="45.07399616898876" lon="7.777583279258868"><ele>642.0</ele><time>2026-04-06T08:53:50Z</time></trkpt><trkpt lat="45.07398490408546" lon="7.777684097471333"><ele>638.3333333333334</ele><time>2026-04-06T08:53:52Z</time></trkpt><trkpt lat="45.07395974667295" lon="7.777791362447905"><ele>634.6666666666667</ele><time>2026-04-06T08:53:54Z</time></trkpt><trkpt lat="45.07394083984103" lon="7.777896175311525"><ele>631.0</ele><time>2026-04-06T08:53:56Z</time></trkpt><trkpt lat="45.073931526656594" lon="7.778003339281403"><ele>631.0</ele><time>2026-04-06T08:53:58Z</time></trkpt><trkpt lat="45.073929838145006" lon="7.778114597075765"><ele>631.0</ele><time>2026-04-06T08:54:00Z</time></trkpt><trkpt lat="45.073935356041616" lon="7.778220934468275"><ele>631.0</ele><time>2026-04-06T08:54:02Z</time></trkpt><trkpt lat="45.07395186274841" lon="7.778348862587191"><ele>631.0</ele><time>2026-04-06T08:54:04Z</time></trkpt><trkpt lat="45.07396953888463" lon="7.778481992071051"><ele>631.0</ele><time>2026-04-06T08:54:06Z</time></trkpt><trkpt lat="45.07399912509176" lon="7.778611818198789"><ele>631.0</ele><time>2026-04-06T08:54:08Z</time></trkpt><trkpt lat="45.07402824228504" lon="7.778754599511968"><ele>631.0</ele><time>2026-04-06T08:54:10Z</time></trkpt><trkpt lat="45.07404460853359" lon="7.778901483996692"><ele>631.0</ele><time>2026-04-06T08:54:12Z</time></trkpt><trkpt lat="45.07408121280309" lon="7.779051890347556"><ele>631.0</ele><time>2026-04-06T08:54:14Z</time></trkpt><trkpt lat="45.07409911758246" lon="7.7791943797970475"><ele>631.0</ele><time>2026-04-06T08:54:16Z</time></trkpt><trkpt lat="45.07409799604495" lon="7.77935780554066"><ele>631.0</ele><time>2026-04-06T08:54:18Z</time></trkpt><trkpt lat="45.07409156181356" lon="7.77949000310212"><ele>631.6</ele><time>2026-04-06T08:54:20Z</time></trkpt><trkpt lat="45.07407507031998" lon="7.779629833727956"><ele>632.2</ele><time>2026-04-06T08:54:22Z</time></trkpt><trkpt lat="45.07405659660213" lon="7.779764848911999"><ele>632.8</ele><time>2026-04-06T08:54:24Z</time></trkpt><trkpt lat="45.074044854427505" lon="7.779921901769952"><ele>633.4</ele><time>2026-04-06T08:54:26Z</time></trkpt><trkpt lat="45.074017544832" lon="7.78007873367678"><ele>634.0</ele><time>2026-04-06T08:54:28Z</time></trkpt><trkpt lat="45.07398637674377" lon="7.780230306250375"><ele>635.0</ele><time>2026-04-06T08:54:30Z</time></trkpt><trkpt lat="45.07395382698502" lon="7.780387542747455"><ele>636.0</ele><time>2026-04-06T08:54:32Z</time></trkpt><trkpt lat="45.07393322717986" lon="7.780544054918193"><ele>637.0</ele><time>2026-04-06T08:54:34Z</time></trkpt><trkpt lat="45.07391753319709" lon="7.780703734692748"><ele>638.0</ele><time>2026-04-06T08:54:36Z</time></trkpt><trkpt lat="45.07389277457814" lon="7.780861783101748"><ele>638.8</ele><time>2026-04-06T08:54:38Z</time></trkpt><trkpt lat="45.07387020698665" lon="7.781028468175754"><ele>639.5999999999999</ele><time>2026-04-06T08:54:40Z</time></trkpt><trkpt lat="45.073850120256104" lon="7.781114721594378"><ele>640.4000000000001</ele><time>2026-04-06T08:54:40.999Z</time></trkpt><trkpt lat="45.073817428640666" lon="7.781271512417377"><ele>641.2</ele><time>2026-04-06T08:54:42.999Z</time></trkpt><trkpt lat="45.07379333773517" lon="7.78144539579499"><ele>642.0</ele><time>2026-04-06T08:54:44.999Z</time></trkpt><trkpt lat="45.07376624787145" lon="7.781611135622246"><ele>642.0</ele><time>2026-04-06T08:54:46.999Z</time></trkpt><trkpt lat="45.0737492985993" lon="7.781699085145655"><ele>642.0</ele><time>2026-04-06T08:54:48Z</time></trkpt><trkpt lat="45.07370883300028" lon="7.781864091541335"><ele>642.0</ele><time>2026-04-06T08:54:50Z</time></trkpt><trkpt lat="45.07367054219578" lon="7.781948772494182"><ele>642.0</ele><time>2026-04-06T08:54:51Z</time></trkpt><trkpt lat="45.07360935252162" lon="7.782100366660428"><ele>642.0</ele><time>2026-04-06T08:54:53Z</time></trkpt><trkpt lat="45.07355109480796" lon="7.782250005392535"><ele>643.1666666666666</ele><time>2026-04-06T08:54:55Z</time></trkpt><trkpt lat="45.07351218988417" lon="7.782333046268043"><ele>644.3333333333334</ele><time>2026-04-06T08:54:56Z</time></trkpt><trkpt lat="45.073474315743496" lon="7.782405068226833"><ele>645.5</ele><time>2026-04-06T08:54:57Z</time></trkpt><trkpt lat="45.07339136822248" lon="7.782532763054003"><ele>646.6666666666667</ele><time>2026-04-06T08:54:59Z</time></trkpt><trkpt lat="45.0733522169563" lon="7.782619274551482"><ele>647.8333333333334</ele><time>2026-04-06T08:55:00Z</time></trkpt><trkpt lat="45.073318194009985" lon="7.782704765619104"><ele>649.0</ele><time>2026-04-06T08:55:01Z</time></trkpt><trkpt lat="45.07328844574228" lon="7.782804718906589"><ele>645.1666666666667</ele><time>2026-04-06T08:55:02Z</time></trkpt><trkpt lat="45.07325986541947" lon="7.782905657826359"><ele>641.3333333333334</ele><time>2026-04-06T08:55:03Z</time></trkpt><trkpt lat="45.07323731280225" lon="7.7830048438150525"><ele>637.5</ele><time>2026-04-06T08:55:04Z</time></trkpt><trkpt lat="45.073216994231856" lon="7.783119001995387"><ele>633.6666666666666</ele><time>2026-04-06T08:55:05Z</time></trkpt><trkpt lat="45.073184101158716" lon="7.783228013642615"><ele>629.8333333333333</ele><time>2026-04-06T08:55:06Z</time></trkpt><trkpt lat="45.073164656551526" lon="7.783347479122799"><ele>626.0</ele><time>2026-04-06T08:55:07Z</time></trkpt><trkpt lat="45.07315637406039" lon="7.783477279912306"><ele>629.4</ele><time>2026-04-06T08:55:08Z</time></trkpt><trkpt lat="45.07313571995511" lon="7.783594689639203"><ele>632.8</ele><time>2026-04-06T08:55:09Z</time></trkpt><trkpt lat="45.07310524465253" lon="7.783722831144916"><ele>636.1999999999999</ele><time>2026-04-06T08:55:10Z</time></trkpt><trkpt lat="45.07307462192325" lon="7.783849620563084"><ele>639.6</ele><time>2026-04-06T08:55:11Z</time></trkpt><trkpt lat="45.07301877986404" lon="7.7839679172549765"><ele>643.0</ele><time>2026-04-06T08:55:12Z</time></trkpt><trkpt lat="45.07295351252688" lon="7.78407299557934"><ele>643.0</ele><time>2026-04-06T08:55:13Z</time></trkpt><trkpt lat="45.072866777531246" lon="7.784155306867985"><ele>643.0</ele><time>2026-04-06T08:55:14Z</time></trkpt><trkpt lat="45.07277091833903" lon="7.784216396824666"><ele>643.0</ele><time>2026-04-06T08:55:15Z</time></trkpt><trkpt lat="45.07267233679293" lon="7.784243366626872"><ele>643.0</ele><time>2026-04-06T08:55:16Z</time></trkpt><trkpt lat="45.07257070592495" lon="7.784250501051285"><ele>643.0</ele><time>2026-04-06T08:55:17Z</time></trkpt><trkpt lat="45.07246527077013" lon="7.784235956187779"><ele>641.0</ele><time>2026-04-06T08:55:18Z</time></trkpt><trkpt lat="45.07235743416932" lon="7.784223282403113"><ele>639.0</ele><time>2026-04-06T08:55:19Z</time></trkpt><trkpt lat="45.0722486420551" lon="7.784210875512235"><ele>637.0</ele><time>2026-04-06T08:55:20Z</time></trkpt><trkpt lat="45.072136766998696" lon="7.784201096100071"><ele>635.0</ele><time>2026-04-06T08:55:21Z</time></trkpt><trkpt lat="45.072035638178825" lon="7.784173713255159"><ele>633.0</ele><time>2026-04-06T08:55:22Z</time></trkpt><trkpt lat="45.07191494780529" lon="7.784175316040866"><ele>633.0</ele><time>2026-04-06T08:55:23Z</time></trkpt><trkpt lat="45.0718122219203" lon="7.784161540216437"><ele>633.0</ele><time>2026-04-06T08:55:24Z</time></trkpt><trkpt lat="45.071720209620985" lon="7.784156108426437"><ele>633.0</ele><time>2026-04-06T08:55:25Z</time></trkpt><trkpt lat="45.07163853892541" lon="7.784153725931928"><ele>633.0</ele><time>2026-04-06T08:55:26Z</time></trkpt><trkpt lat="45.071561944868016" lon="7.784162701818838"><ele>633.0</ele><time>2026-04-06T08:55:27Z</time></trkpt><trkpt lat="45.071489927753966" lon="7.7841699486270315"><ele>633.0</ele><time>2026-04-06T08:55:28Z</time></trkpt><trkpt lat="45.071378001801854" lon="7.784184865557464"><ele>632.6666666666666</ele><time>2026-04-06T08:55:30Z</time></trkpt><trkpt lat="45.0712952464276" lon="7.784203935068427"><ele>632.3333333333334</ele><time>2026-04-06T08:55:32Z</time></trkpt><trkpt lat="45.071263189696715" lon="7.7843068369280575"><ele>632.0</ele><time>2026-04-06T08:55:34Z</time></trkpt><trkpt lat="45.07130080235711" lon="7.784411711366452"><ele>631.6666666666667</ele><time>2026-04-06T08:55:36Z</time></trkpt><trkpt lat="45.07134961503146" lon="7.784499185078048"><ele>631.3333333333334</ele><time>2026-04-06T08:55:38Z</time></trkpt><trkpt lat="45.07139385066823" lon="7.784636989773643"><ele>631.0</ele><time>2026-04-06T08:55:40Z</time></trkpt><trkpt lat="45.07143211399966" lon="7.7848006882312095"><ele>627.8</ele><time>2026-04-06T08:55:42Z</time></trkpt><trkpt lat="45.07151176209248" lon="7.784932259025889"><ele>624.6</ele><time>2026-04-06T08:55:44Z</time></trkpt><trkpt lat="45.07154982823368" lon="7.785014107136905"><ele>621.4</ele><time>2026-04-06T08:55:45Z</time></trkpt><trkpt lat="45.071595858389" lon="7.785121146321609"><ele>618.2</ele><time>2026-04-06T08:55:46Z</time></trkpt><trkpt lat="45.07164041709555" lon="7.7852305800084025"><ele>615.0</ele><time>2026-04-06T08:55:47Z</time></trkpt><trkpt lat="45.07168639384148" lon="7.785339355073959"><ele>614.2</ele><time>2026-04-06T08:55:48Z</time></trkpt><trkpt lat="45.071746048117845" lon="7.785440855281434"><ele>613.4</ele><time>2026-04-06T08:55:49Z</time></trkpt><trkpt lat="45.071806386318755" lon="7.7855435101250885"><ele>612.6</ele><time>2026-04-06T08:55:50Z</time></trkpt><trkpt lat="45.07186981189023" lon="7.785640572784077"><ele>611.8</ele><time>2026-04-06T08:55:51Z</time></trkpt><trkpt lat="45.07193467961611" lon="7.7857332644470985"><ele>611.0</ele><time>2026-04-06T08:55:52Z</time></trkpt><trkpt lat="45.07199835767494" lon="7.785820157377193"><ele>611.0</ele><time>2026-04-06T08:55:53Z</time></trkpt><trkpt lat="45.07205809560621" lon="7.78589547039426"><ele>611.0</ele><time>2026-04-06T08:55:54Z</time></trkpt><trkpt lat="45.072120500484594" lon="7.78596809791262"><ele>611.0</ele><time>2026-04-06T08:55:55Z</time></trkpt><trkpt lat="45.07217509166942" lon="7.786054372158382"><ele>611.0</ele><time>2026-04-06T08:55:56Z</time></trkpt><trkpt lat="45.07224357079135" lon="7.78611498915284"><ele>611.0</ele><time>2026-04-06T08:55:57Z</time></trkpt><trkpt lat="45.072294966677134" lon="7.786181510282315"><ele>611.0</ele><time>2026-04-06T08:55:58Z</time></trkpt><trkpt lat="45.07234433312266" lon="7.7863263731431545"><ele>609.2857142857143</ele><time>2026-04-06T08:56:00Z</time></trkpt><trkpt lat="45.07234512282958" lon="7.786428071620652"><ele>607.5714285714286</ele><time>2026-04-06T08:56:01Z</time></trkpt><trkpt lat="45.07231163744388" lon="7.786517914544125"><ele>605.8571428571429</ele><time>2026-04-06T08:56:02Z</time></trkpt><trkpt lat="45.07226088578536" lon="7.78659969199084"><ele>604.1428571428571</ele><time>2026-04-06T08:56:03Z</time></trkpt><trkpt lat="45.072203988204556" lon="7.786650493973147"><ele>602.4285714285714</ele><time>2026-04-06T08:56:04Z</time></trkpt><trkpt lat="45.072136803750496" lon="7.786698105093609"><ele>600.7142857142858</ele><time>2026-04-06T08:56:05Z</time></trkpt><trkpt lat="45.07206758282275" lon="7.786735155469384"><ele>599.0</ele><time>2026-04-06T08:56:06Z</time></trkpt><trkpt lat="45.07199969630524" lon="7.7867818715904"><ele>599.0</ele><time>2026-04-06T08:56:07Z</time></trkpt><trkpt lat="45.07191338659089" lon="7.786829004549993"><ele>599.0</ele><time>2026-04-06T08:56:09Z</time></trkpt><trkpt lat="45.07183695575448" lon="7.786886136314759"><ele>599.0</ele><time>2026-04-06T08:56:11Z</time></trkpt><trkpt lat="45.071789800901314" lon="7.7869469065928065"><ele>599.0</ele><time>2026-04-06T08:56:13Z</time></trkpt><trkpt lat="45.071767286692385" lon="7.787068041451771"><ele>599.0</ele><time>2026-04-06T08:56:15Z</time></trkpt><trkpt lat="45.071793861573056" lon="7.787225702334157"><ele>599.0</ele><time>2026-04-06T08:56:17Z</time></trkpt><trkpt lat="45.07183173540322" lon="7.787389104005571"><ele>598.0</ele><time>2026-04-06T08:56:19Z</time></trkpt><trkpt lat="45.07180274940999" lon="7.787566494829819"><ele>597.0</ele><time>2026-04-06T08:56:21Z</time></trkpt><trkpt lat="45.0717551556745" lon="7.787638783617715"><ele>596.0</ele><time>2026-04-06T08:56:22Z</time></trkpt><trkpt lat="45.07169382905108" lon="7.78766296130028"><ele>595.0</ele><time>2026-04-06T08:56:23Z</time></trkpt><trkpt lat="45.07163586077478" lon="7.787710645335218"><ele>594.0</ele><time>2026-04-06T08:56:24Z</time></trkpt><trkpt lat="45.07153151625426" lon="7.787815535034634"><ele>589.8333333333334</ele><time>2026-04-06T08:56:26Z</time></trkpt><trkpt lat="45.07149236530847" lon="7.787916781146853"><ele>585.6666666666666</ele><time>2026-04-06T08:56:27Z</time></trkpt><trkpt lat="45.071444775898506" lon="7.787989174241363"><ele>581.5</ele><time>2026-04-06T08:56:28Z</time></trkpt><trkpt lat="45.071411997993636" lon="7.788079569566081"><ele>577.3333333333333</ele><time>2026-04-06T08:56:29Z</time></trkpt><trkpt lat="45.07137737485924" lon="7.788190808435342"><ele>573.1666666666666</ele><time>2026-04-06T08:56:30Z</time></trkpt><trkpt lat="45.07133552548137" lon="7.788305702691515"><ele>569.0</ele><time>2026-04-06T08:56:31Z</time></trkpt><trkpt lat="45.07129488103367" lon="7.78842674660504"><ele>570.4</ele><time>2026-04-06T08:56:32Z</time></trkpt><trkpt lat="45.071259880382726" lon="7.7885517017476085"><ele>571.8</ele><time>2026-04-06T08:56:33Z</time></trkpt><trkpt lat="45.071217841093315" lon="7.788681706235912"><ele>573.2</ele><time>2026-04-06T08:56:34Z</time></trkpt><trkpt lat="45.07117707944848" lon="7.788792720495457"><ele>574.6</ele><time>2026-04-06T08:56:35Z</time></trkpt><trkpt lat="45.071129623915446" lon="7.788893326927148"><ele>576.0</ele><time>2026-04-06T08:56:36Z</time></trkpt><trkpt lat="45.07108690773484" lon="7.788990569936797"><ele>576.0</ele><time>2026-04-06T08:56:37Z</time></trkpt><trkpt lat="45.07103723649333" lon="7.78907415176263"><ele>576.0</ele><time>2026-04-06T08:56:38Z</time></trkpt><trkpt lat="45.07099769235255" lon="7.789155008972748"><ele>576.0</ele><time>2026-04-06T08:56:39Z</time></trkpt><trkpt lat="45.07096734489718" lon="7.789314987426186"><ele>576.0</ele><time>2026-04-06T08:56:41Z</time></trkpt><trkpt lat="45.070984764753845" lon="7.789405989180021"><ele>576.0</ele><time>2026-04-06T08:56:42Z</time></trkpt><trkpt lat="45.07103406705468" lon="7.789480551702916"><ele>576.0</ele><time>2026-04-06T08:56:43Z</time></trkpt><trkpt lat="45.07110500081368" lon="7.7895944162249195"><ele>575.4</ele><time>2026-04-06T08:56:44Z</time></trkpt><trkpt lat="45.071174529829726" lon="7.789695200719698"><ele>574.8</ele><time>2026-04-06T08:56:46Z</time></trkpt><trkpt lat="45.071206982339994" lon="7.789842514825986"><ele>574.1999999999999</ele><time>2026-04-06T08:56:48Z</time></trkpt><trkpt lat="45.07121075908398" lon="7.7899337360269865"><ele>573.6</ele><time>2026-04-06T08:56:49Z</time></trkpt><trkpt lat="45.071210883996116" lon="7.790100813803591"><ele>573.0</ele><time>2026-04-06T08:56:51Z</time></trkpt><trkpt lat="45.07119355596761" lon="7.790186665749037"><ele>573.0</ele><time>2026-04-06T08:56:52Z</time></trkpt><trkpt lat="45.07116918542056" lon="7.790274593946265"><ele>573.0</ele><time>2026-04-06T08:56:53Z</time></trkpt><trkpt lat="45.07115577288444" lon="7.790365697390199"><ele>573.0</ele><time>2026-04-06T08:56:54.001Z</time></trkpt><trkpt lat="45.0711320898972" lon="7.790560014834988"><ele>573.0</ele><time>2026-04-06T08:56:56.001Z</time></trkpt><trkpt lat="45.07109580426909" lon="7.7907360436146815"><ele>573.0</ele><time>2026-04-06T08:56:58.001Z</time></trkpt><trkpt lat="45.071081294448334" lon="7.790827665967115"><ele>573.0</ele><time>2026-04-06T08:56:59.001Z</time></trkpt><trkpt lat="45.07099543085943" lon="7.790939504342025"><ele>573.0</ele><time>2026-04-06T08:57:01.001Z</time></trkpt><trkpt lat="45.07093024775245" lon="7.790971443455342"><ele>573.0</ele><time>2026-04-06T08:57:02.001Z</time></trkpt><trkpt lat="45.070863285285164" lon="7.791100462033115"><ele>573.0</ele><time>2026-04-06T08:57:04.001Z</time></trkpt><trkpt lat="45.07083695360593" lon="7.791248240396574"><ele>573.0</ele><time>2026-04-06T08:57:06.001Z</time></trkpt><trkpt lat="45.07090555077427" lon="7.791378940950725"><ele>573.1999999999999</ele><time>2026-04-06T08:57:08.001Z</time></trkpt><trkpt lat="45.07101434024633" lon="7.791471259435727"><ele>573.4</ele><time>2026-04-06T08:57:10.001Z</time></trkpt><trkpt lat="45.07108340804272" lon="7.791503230519633"><ele>573.5999999999999</ele><time>2026-04-06T08:57:11.001Z</time></trkpt><trkpt lat="45.07115753541335" lon="7.791538813965992"><ele>573.8</ele><time>2026-04-06T08:57:12.001Z</time></trkpt><trkpt lat="45.07123956095443" lon="7.791566466967787"><ele>574.0</ele><time>2026-04-06T08:57:13.001Z</time></trkpt><trkpt lat="45.07132086016094" lon="7.79161745742099"><ele>574.0</ele><time>2026-04-06T08:57:14.001Z</time></trkpt><trkpt lat="45.0713881795183" lon="7.791644872902699"><ele>574.0</ele><time>2026-04-06T08:57:15.001Z</time></trkpt><trkpt lat="45.07148523340887" lon="7.791677315812021"><ele>574.0</ele><time>2026-04-06T08:57:17.001Z</time></trkpt><trkpt lat="45.071591918976395" lon="7.791704506991968"><ele>574.0</ele><time>2026-04-06T08:57:19Z</time></trkpt><trkpt lat="45.07171394819761" lon="7.791715558739848"><ele>574.0</ele><time>2026-04-06T08:57:21Z</time></trkpt><trkpt lat="45.07183724990135" lon="7.79166802811594"><ele>572.6666666666667</ele><time>2026-04-06T08:57:23Z</time></trkpt><trkpt lat="45.07188658426876" lon="7.791594762492803"><ele>571.3333333333334</ele><time>2026-04-06T08:57:24Z</time></trkpt><trkpt lat="45.07194909610222" lon="7.791534594650709"><ele>570.0</ele><time>2026-04-06T08:57:25Z</time></trkpt><trkpt lat="45.072006141482454" lon="7.791463866936455"><ele>568.6666666666666</ele><time>2026-04-06T08:57:26Z</time></trkpt><trkpt lat="45.072057629629846" lon="7.791400029355391"><ele>567.3333333333333</ele><time>2026-04-06T08:57:27Z</time></trkpt><trkpt lat="45.07216727539609" lon="7.791303330159007"><ele>566.0</ele><time>2026-04-06T08:57:29Z</time></trkpt><trkpt lat="45.072237659851965" lon="7.7912587741367645"><ele>566.0</ele><time>2026-04-06T08:57:30Z</time></trkpt><trkpt lat="45.07230479657199" lon="7.791195928334309"><ele>566.0</ele><time>2026-04-06T08:57:31Z</time></trkpt><trkpt lat="45.07236684278972" lon="7.791178351753476"><ele>566.0</ele><time>2026-04-06T08:57:32Z</time></trkpt><trkpt lat="45.07243523309404" lon="7.791170018831098"><ele>566.0</ele><time>2026-04-06T08:57:33Z</time></trkpt><trkpt lat="45.07251025277477" lon="7.79113189049737"><ele>566.0</ele><time>2026-04-06T08:57:34Z</time></trkpt><trkpt lat="45.07257899253255" lon="7.791116678566938"><ele>566.0</ele><time>2026-04-06T08:57:35Z</time></trkpt><trkpt lat="45.07269663603823" lon="7.791101096218986"><ele>563.4</ele><time>2026-04-06T08:57:37Z</time></trkpt><trkpt lat="45.072814800289095" lon="7.791095453304101"><ele>560.8</ele><time>2026-04-06T08:57:39Z</time></trkpt><trkpt lat="45.07290838950873" lon="7.791105809859318"><ele>558.1999999999999</ele><time>2026-04-06T08:57:41Z</time></trkpt><trkpt lat="45.07300676095645" lon="7.791100684870335"><ele>555.6</ele><time>2026-04-06T08:57:43Z</time></trkpt><trkpt lat="45.07308337167233" lon="7.791120930734968"><ele>553.0</ele><time>2026-04-06T08:57:46Z</time></trkpt><trkpt lat="45.073151703100166" lon="7.7911279779224705"><ele>553.0</ele><time>2026-04-06T08:57:48Z</time></trkpt><trkpt lat="45.0732181957884" lon="7.79112847239089"><ele>553.0</ele><time>2026-04-06T08:57:50Z</time></trkpt><trkpt lat="45.07328465597839" lon="7.791080455887721"><ele>553.0</ele><time>2026-04-06T08:57:52Z</time></trkpt><trkpt lat="45.07334985744018" lon="7.791073542460074"><ele>553.0</ele><time>2026-04-06T08:57:55Z</time></trkpt><trkpt lat="45.073377748529744" lon="7.7911915110414975"><ele>553.0</ele><time>2026-04-06T08:57:56Z</time></trkpt><trkpt lat="45.07341285464687" lon="7.791347427040006"><ele>553.0</ele><time>2026-04-06T08:57:58Z</time></trkpt><trkpt lat="45.07344521838446" lon="7.791499081279074"><ele>553.0</ele><time>2026-04-06T08:58:00Z</time></trkpt><trkpt lat="45.07346773858587" lon="7.7916777402606545"><ele>553.0</ele><time>2026-04-06T08:58:02Z</time></trkpt><trkpt lat="45.07347711357026" lon="7.791767468119831"><ele>553.0</ele><time>2026-04-06T08:58:03Z</time></trkpt><trkpt lat="45.07348194658706" lon="7.791863503120416"><ele>553.0</ele><time>2026-04-06T08:58:04Z</time></trkpt><trkpt lat="45.07347909917189" lon="7.791986409996984"><ele>553.0</ele><time>2026-04-06T08:58:05Z</time></trkpt><trkpt lat="45.07347889821406" lon="7.792091629220257"><ele>553.0</ele><time>2026-04-06T08:58:06Z</time></trkpt><trkpt lat="45.07347846272959" lon="7.792200659059709"><ele>552.8333333333334</ele><time>2026-04-06T08:58:07Z</time></trkpt><trkpt lat="45.0734789005164" lon="7.792313733805279"><ele>552.6666666666667</ele><time>2026-04-06T08:58:08Z</time></trkpt><trkpt lat="45.07347960128779" lon="7.79242946442839"><ele>552.5</ele><time>2026-04-06T08:58:09Z</time></trkpt><trkpt lat="45.07347830166032" lon="7.792545859115936"><ele>552.3333333333334</ele><time>2026-04-06T08:58:10Z</time></trkpt><trkpt lat="45.073473322964794" lon="7.792663795495048"><ele>552.1666666666666</ele><time>2026-04-06T08:58:11Z</time></trkpt><trkpt lat="45.07347350126128" lon="7.792782007385975"><ele>552.0</ele><time>2026-04-06T08:58:12Z</time></trkpt><trkpt lat="45.073476493655114" lon="7.79290127494148"><ele>552.0</ele><time>2026-04-06T08:58:13Z</time></trkpt><trkpt lat="45.07348239496908" lon="7.793018223834277"><ele>552.0</ele><time>2026-04-06T08:58:14Z</time></trkpt><trkpt lat="45.07348927482031" lon="7.793131598961005"><ele>552.0</ele><time>2026-04-06T08:58:15Z</time></trkpt><trkpt lat="45.07349610940421" lon="7.793249564160213"><ele>552.0</ele><time>2026-04-06T08:58:16Z</time></trkpt><trkpt lat="45.07350869079156" lon="7.793357047541286"><ele>552.0</ele><time>2026-04-06T08:58:17Z</time></trkpt><trkpt lat="45.073520600291864" lon="7.793468452753252"><ele>552.0</ele><time>2026-04-06T08:58:18Z</time></trkpt><trkpt lat="45.07353974359734" lon="7.793578028849678"><ele>553.0</ele><time>2026-04-06T08:58:19Z</time></trkpt><trkpt lat="45.07356123537675" lon="7.793679207523996"><ele>554.0</ele><time>2026-04-06T08:58:20Z</time></trkpt><trkpt lat="45.07360227306767" lon="7.7937682311049565"><ele>555.0</ele><time>2026-04-06T08:58:21Z</time></trkpt><trkpt lat="45.07364976814706" lon="7.793867531413428"><ele>556.0</ele><time>2026-04-06T08:58:22Z</time></trkpt><trkpt lat="45.073691796804326" lon="7.793940496700635"><ele>557.0</ele><time>2026-04-06T08:58:23Z</time></trkpt><trkpt lat="45.073738428238514" lon="7.794013972967168"><ele>558.0</ele><time>2026-04-06T08:58:24Z</time></trkpt><trkpt lat="45.07380176559319" lon="7.794144491512136"><ele>558.0</ele><time>2026-04-06T08:58:26Z</time></trkpt><trkpt lat="45.073853534644996" lon="7.794204826470167"><ele>558.0</ele><time>2026-04-06T08:58:27Z</time></trkpt><trkpt lat="45.07392557380069" lon="7.79433285859771"><ele>558.0</ele><time>2026-04-06T08:58:29Z</time></trkpt><trkpt lat="45.073998672019144" lon="7.794428593423696"><ele>558.0</ele><time>2026-04-06T08:58:31Z</time></trkpt><trkpt lat="45.07407586148673" lon="7.794510347526375"><ele>558.0</ele><time>2026-04-06T08:58:33Z</time></trkpt><trkpt lat="45.0741377788089" lon="7.794614543207719"><ele>559.6</ele><time>2026-04-06T08:58:35Z</time></trkpt><trkpt lat="45.07419911372091" lon="7.794731212173068"><ele>561.1999999999999</ele><time>2026-04-06T08:58:37Z</time></trkpt><trkpt lat="45.07424446739643" lon="7.794855708807039"><ele>562.8</ele><time>2026-04-06T08:58:39Z</time></trkpt><trkpt lat="45.07429901888893" lon="7.7949750004825695"><ele>564.4</ele><time>2026-04-06T08:58:41Z</time></trkpt><trkpt lat="45.07432112079067" lon="7.795115357652349"><ele>566.0</ele><time>2026-04-06T08:58:43Z</time></trkpt><trkpt lat="45.07433263188227" lon="7.79525877912653"><ele>566.1666666666666</ele><time>2026-04-06T08:58:45Z</time></trkpt><trkpt lat="45.07433366562342" lon="7.795403467397804"><ele>566.3333333333333</ele><time>2026-04-06T08:58:47Z</time></trkpt><trkpt lat="45.07433037551931" lon="7.7954990285306165"><ele>566.5</ele><time>2026-04-06T08:58:48Z</time></trkpt><trkpt lat="45.074330164373904" lon="7.795631448517941"><ele>566.6666666666666</ele><time>2026-04-06T08:58:50Z</time></trkpt><trkpt lat="45.0743275606435" lon="7.795766731799685"><ele>566.8333333333334</ele><time>2026-04-06T08:58:52Z</time></trkpt><trkpt lat="45.07432623216951" lon="7.795882489606257"><ele>567.0</ele><time>2026-04-06T08:58:54Z</time></trkpt><trkpt lat="45.0743183128609" lon="7.795976279963623"><ele>565.8000000000001</ele><time>2026-04-06T08:58:55Z</time></trkpt><trkpt lat="45.07429495022983" lon="7.796115511141726"><ele>564.6</ele><time>2026-04-06T08:58:57Z</time></trkpt><trkpt lat="45.07428337192194" lon="7.796252054572942"><ele>563.4000000000001</ele><time>2026-04-06T08:58:59Z</time></trkpt><trkpt lat="45.07424540775928" lon="7.796398754876239"><ele>562.2</ele><time>2026-04-06T08:59:01.001Z</time></trkpt><trkpt lat="45.07422654246837" lon="7.796548857862475"><ele>561.0</ele><time>2026-04-06T08:59:03.001Z</time></trkpt><trkpt lat="45.074204855130944" lon="7.796715499798643"><ele>561.0</ele><time>2026-04-06T08:59:05.001Z</time></trkpt><trkpt lat="45.074193800541714" lon="7.796808105738844"><ele>561.0</ele><time>2026-04-06T08:59:06.001Z</time></trkpt><trkpt lat="45.074182102578106" lon="7.79691419569747"><ele>561.0</ele><time>2026-04-06T08:59:07.001Z</time></trkpt><trkpt lat="45.07417632887698" lon="7.7970210231173"><ele>561.0</ele><time>2026-04-06T08:59:08.001Z</time></trkpt><trkpt lat="45.07416861511638" lon="7.797131401018407"><ele>561.0</ele><time>2026-04-06T08:59:09.001Z</time></trkpt><trkpt lat="45.07416468045768" lon="7.797247304905681"><ele>561.0</ele><time>2026-04-06T08:59:10.001Z</time></trkpt><trkpt lat="45.07416229090531" lon="7.797372171767629"><ele>561.1666666666666</ele><time>2026-04-06T08:59:11.001Z</time></trkpt><trkpt lat="45.074159469068746" lon="7.797487274036489"><ele>561.3333333333334</ele><time>2026-04-06T08:59:12.001Z</time></trkpt><trkpt lat="45.07415752076287" lon="7.7976039370269365"><ele>561.5</ele><time>2026-04-06T08:59:13.001Z</time></trkpt><trkpt lat="45.07415274889979" lon="7.79772147187554"><ele>561.6666666666667</ele><time>2026-04-06T08:59:14.001Z</time></trkpt><trkpt lat="45.074145823985" lon="7.79784023412678"><ele>561.8333333333334</ele><time>2026-04-06T08:59:15.001Z</time></trkpt><trkpt lat="45.07412710695426" lon="7.7979544998749395"><ele>562.0</ele><time>2026-04-06T08:59:16.001Z</time></trkpt><trkpt lat="45.074088864494044" lon="7.798065586978125"><ele>559.6666666666667</ele><time>2026-04-06T08:59:17.001Z</time></trkpt><trkpt lat="45.07403830702433" lon="7.7981741114337275"><ele>557.3333333333334</ele><time>2026-04-06T08:59:18.001Z</time></trkpt><trkpt lat="45.07397365818126" lon="7.798256483084295"><ele>555.0</ele><time>2026-04-06T08:59:19.001Z</time></trkpt><trkpt lat="45.07390662520432" lon="7.798310959927214"><ele>552.6666666666666</ele><time>2026-04-06T08:59:20.001Z</time></trkpt><trkpt lat="45.07383571000959" lon="7.798349595397686"><ele>550.3333333333333</ele><time>2026-04-06T08:59:21.001Z</time></trkpt><trkpt lat="45.07376330248809" lon="7.798400648366978"><ele>548.0</ele><time>2026-04-06T08:59:22.001Z</time></trkpt><trkpt lat="45.073690277103076" lon="7.798452922521722"><ele>548.8333333333333</ele><time>2026-04-06T08:59:23.001Z</time></trkpt><trkpt lat="45.07361804918289" lon="7.798508297747498"><ele>549.6666666666666</ele><time>2026-04-06T08:59:24.001Z</time></trkpt><trkpt lat="45.0735432327059" lon="7.798565689119099"><ele>550.5</ele><time>2026-04-06T08:59:25Z</time></trkpt><trkpt lat="45.07347288169745" lon="7.798641219572007"><ele>551.3333333333334</ele><time>2026-04-06T08:59:26Z</time></trkpt><trkpt lat="45.073410695327524" lon="7.798729474616036"><ele>552.1666666666667</ele><time>2026-04-06T08:59:27Z</time></trkpt><trkpt lat="45.07336073204453" lon="7.798839552166074"><ele>553.0</ele><time>2026-04-06T08:59:28Z</time></trkpt><trkpt lat="45.073320619176485" lon="7.798964001731242"><ele>553.0</ele><time>2026-04-06T08:59:29Z</time></trkpt><trkpt lat="45.07329237783583" lon="7.79908725734426"><ele>553.0</ele><time>2026-04-06T08:59:30Z</time></trkpt><trkpt lat="45.07326618774815" lon="7.79921881909973"><ele>553.0</ele><time>2026-04-06T08:59:31Z</time></trkpt><trkpt lat="45.07326936699809" lon="7.79938828548934"><ele>553.0</ele><time>2026-04-06T08:59:32Z</time></trkpt><trkpt lat="45.0732758510044" lon="7.799549114273711"><ele>553.0</ele><time>2026-04-06T08:59:33Z</time></trkpt><trkpt lat="45.073295980103815" lon="7.799693784686371"><ele>552.4</ele><time>2026-04-06T08:59:34Z</time></trkpt><trkpt lat="45.07333389271686" lon="7.799843843083911"><ele>551.8</ele><time>2026-04-06T08:59:35Z</time></trkpt><trkpt lat="45.0733734334652" lon="7.800001159982814"><ele>551.2</ele><time>2026-04-06T08:59:36Z</time></trkpt><trkpt lat="45.073408069980665" lon="7.8001431230151"><ele>550.6</ele><time>2026-04-06T08:59:37Z</time></trkpt><trkpt lat="45.07343700841322" lon="7.80028369584808"><ele>550.0</ele><time>2026-04-06T08:59:38Z</time></trkpt><trkpt lat="45.07345263823193" lon="7.800412268012739"><ele>549.0</ele><time>2026-04-06T08:59:39Z</time></trkpt><trkpt lat="45.07344540317431" lon="7.800551729166797"><ele>548.0</ele><time>2026-04-06T08:59:40Z</time></trkpt><trkpt lat="45.07342530905744" lon="7.800690546632424"><ele>547.0</ele><time>2026-04-06T08:59:41Z</time></trkpt><trkpt lat="45.073399737426115" lon="7.800834685833489"><ele>546.0</ele><time>2026-04-06T08:59:42Z</time></trkpt><trkpt lat="45.07334936495334" lon="7.800958003479568"><ele>545.0</ele><time>2026-04-06T08:59:43Z</time></trkpt><trkpt lat="45.073301629284884" lon="7.801090611122996"><ele>541.25</ele><time>2026-04-06T08:59:44Z</time></trkpt><trkpt lat="45.073259800200596" lon="7.801213600051569"><ele>537.5</ele><time>2026-04-06T08:59:45Z</time></trkpt><trkpt lat="45.073210779344265" lon="7.801359634499195"><ele>533.75</ele><time>2026-04-06T08:59:46Z</time></trkpt><trkpt lat="45.073154974607135" lon="7.801509514265008"><ele>530.0</ele><time>2026-04-06T08:59:47Z</time></trkpt><trkpt lat="45.07309683657093" lon="7.801660816719346"><ele>530.0</ele><time>2026-04-06T08:59:48Z</time></trkpt><trkpt lat="45.07304898634367" lon="7.801810698170548"><ele>530.0</ele><time>2026-04-06T08:59:49Z</time></trkpt><trkpt lat="45.07300404971851" lon="7.80195938245299"><ele>530.0</ele><time>2026-04-06T08:59:50Z</time></trkpt><trkpt lat="45.072964681966184" lon="7.8021169603957325"><ele>530.0</ele><time>2026-04-06T08:59:51Z</time></trkpt><trkpt lat="45.07293100253154" lon="7.802284195796285"><ele>531.0</ele><time>2026-04-06T08:59:52Z</time></trkpt><trkpt lat="45.07290543080937" lon="7.8024421584470325"><ele>532.0</ele><time>2026-04-06T08:59:53Z</time></trkpt><trkpt lat="45.07287603091264" lon="7.802612965827306"><ele>533.0</ele><time>2026-04-06T08:59:54Z</time></trkpt><trkpt lat="45.07284784077525" lon="7.802775910256938"><ele>534.0</ele><time>2026-04-06T08:59:55Z</time></trkpt><trkpt lat="45.07281199281791" lon="7.802936496080996"><ele>531.75</ele><time>2026-04-06T08:59:56Z</time></trkpt><trkpt lat="45.07276492409178" lon="7.803082901252178"><ele>529.5</ele><time>2026-04-06T08:59:57Z</time></trkpt><trkpt lat="45.072702410594744" lon="7.803239944241413"><ele>527.25</ele><time>2026-04-06T08:59:58Z</time></trkpt><trkpt lat="45.07262874023577" lon="7.803395141215215"><ele>525.0</ele><time>2026-04-06T08:59:59Z</time></trkpt><trkpt lat="45.07255450233548" lon="7.803550333115616"><ele>522.25</ele><time>2026-04-06T09:00:00Z</time></trkpt><trkpt lat="45.0724808427469" lon="7.8037261738888075"><ele>519.5</ele><time>2026-04-06T09:00:01Z</time></trkpt><trkpt lat="45.07239995934907" lon="7.803896354092785"><ele>516.75</ele><time>2026-04-06T09:00:02Z</time></trkpt><trkpt lat="45.072323752501205" lon="7.804074099052374"><ele>514.0</ele><time>2026-04-06T09:00:03Z</time></trkpt><trkpt lat="45.072258311208856" lon="7.804248188285127"><ele>511.5</ele><time>2026-04-06T09:00:04Z</time></trkpt><trkpt lat="45.07219243315028" lon="7.804395959686541"><ele>509.0</ele><time>2026-04-06T09:00:05Z</time></trkpt><trkpt lat="45.072127642568034" lon="7.804549240909823"><ele>506.5</ele><time>2026-04-06T09:00:06Z</time></trkpt><trkpt lat="45.07208045344813" lon="7.804676310313033"><ele>504.0</ele><time>2026-04-06T09:00:07Z</time></trkpt><trkpt lat="45.07202640993037" lon="7.804795056392666"><ele>504.0</ele><time>2026-04-06T09:00:08Z</time></trkpt><trkpt lat="45.07196985917577" lon="7.8049101120774225"><ele>504.0</ele><time>2026-04-06T09:00:09Z</time></trkpt><trkpt lat="45.07191114562651" lon="7.80503601793022"><ele>504.0</ele><time>2026-04-06T09:00:10Z</time></trkpt><trkpt lat="45.07186674884729" lon="7.8051569890709285"><ele>504.0</ele><time>2026-04-06T09:00:11Z</time></trkpt><trkpt lat="45.07182442145415" lon="7.805281282098289"><ele>504.0</ele><time>2026-04-06T09:00:12Z</time></trkpt><trkpt lat="45.071788899398896" lon="7.805404999309875"><ele>503.6</ele><time>2026-04-06T09:00:13Z</time></trkpt><trkpt lat="45.071761536834664" lon="7.805539361015248"><ele>503.2</ele><time>2026-04-06T09:00:14Z</time></trkpt><trkpt lat="45.07174411278077" lon="7.80567630977825"><ele>502.80000000000007</ele><time>2026-04-06T09:00:15Z</time></trkpt><trkpt lat="45.07173409552896" lon="7.805818915014469"><ele>502.40000000000003</ele><time>2026-04-06T09:00:16Z</time></trkpt><trkpt lat="45.071724777988365" lon="7.805960940875302"><ele>502.0</ele><time>2026-04-06T09:00:17Z</time></trkpt><trkpt lat="45.07171171262437" lon="7.806093426110975"><ele>501.6</ele><time>2026-04-06T09:00:18Z</time></trkpt><trkpt lat="45.07170083308309" lon="7.806230832149787"><ele>501.20000000000005</ele><time>2026-04-06T09:00:19Z</time></trkpt><trkpt lat="45.07168556312856" lon="7.806363558055156"><ele>500.8</ele><time>2026-04-06T09:00:20Z</time></trkpt><trkpt lat="45.07167265768562" lon="7.806494179086083"><ele>500.4</ele><time>2026-04-06T09:00:21Z</time></trkpt><trkpt lat="45.071644059278555" lon="7.806619995418808"><ele>500.0</ele><time>2026-04-06T09:00:22Z</time></trkpt><trkpt lat="45.07160686167899" lon="7.80674418869975"><ele>498.6</ele><time>2026-04-06T09:00:23Z</time></trkpt><trkpt lat="45.0715693209535" lon="7.806861616736065"><ele>497.2</ele><time>2026-04-06T09:00:24Z</time></trkpt><trkpt lat="45.07152183687329" lon="7.806969453447192"><ele>495.79999999999995</ele><time>2026-04-06T09:00:25Z</time></trkpt><trkpt lat="45.071469270093914" lon="7.8070773199657015"><ele>494.4</ele><time>2026-04-06T09:00:26Z</time></trkpt><trkpt lat="45.07142146922805" lon="7.807184644983541"><ele>493.0</ele><time>2026-04-06T09:00:27Z</time></trkpt><trkpt lat="45.071371696226734" lon="7.80729503866086"><ele>493.00000000000006</ele><time>2026-04-06T09:00:28Z</time></trkpt><trkpt lat="45.07132339347682" lon="7.807400095329895"><ele>493.0</ele><time>2026-04-06T09:00:29Z</time></trkpt><trkpt lat="45.07126507484009" lon="7.80750587725165"><ele>493.0</ele><time>2026-04-06T09:00:30Z</time></trkpt><trkpt lat="45.071214582780414" lon="7.807614131671054"><ele>493.0</ele><time>2026-04-06T09:00:31Z</time></trkpt><trkpt lat="45.071177632418646" lon="7.807721851596932"><ele>493.00000000000006</ele><time>2026-04-06T09:00:32Z</time></trkpt><trkpt lat="45.07115695086465" lon="7.807834775386865"><ele>493.0</ele><time>2026-04-06T09:00:33Z</time></trkpt><trkpt lat="45.07114130336125" lon="7.807961230689438"><ele>492.79999999999995</ele><time>2026-04-06T09:00:34Z</time></trkpt><trkpt lat="45.07114327668337" lon="7.808091564057932"><ele>492.59999999999997</ele><time>2026-04-06T09:00:35Z</time></trkpt><trkpt lat="45.07114128886277" lon="7.808226856775337"><ele>492.40000000000003</ele><time>2026-04-06T09:00:36Z</time></trkpt><trkpt lat="45.07113749989276" lon="7.808360782739938"><ele>492.20000000000005</ele><time>2026-04-06T09:00:37Z</time></trkpt><trkpt lat="45.07112209053494" lon="7.808495310308952"><ele>492.0</ele><time>2026-04-06T09:00:38Z</time></trkpt><trkpt lat="45.071086505086285" lon="7.8086375336961"><ele>492.6</ele><time>2026-04-06T09:00:39Z</time></trkpt><trkpt lat="45.071042874156355" lon="7.8087679512475425"><ele>493.20000000000005</ele><time>2026-04-06T09:00:40Z</time></trkpt><trkpt lat="45.07098696325738" lon="7.808891419925117"><ele>493.8</ele><time>2026-04-06T09:00:41Z</time></trkpt><trkpt lat="45.07092878197548" lon="7.809017234086014"><ele>494.4</ele><time>2026-04-06T09:00:42Z</time></trkpt><trkpt lat="45.070878015517465" lon="7.809134544310498"><ele>495.0</ele><time>2026-04-06T09:00:43Z</time></trkpt><trkpt lat="45.07082038954749" lon="7.809250413593939"><ele>494.1666666666667</ele><time>2026-04-06T09:00:44Z</time></trkpt><trkpt lat="45.07076555017952" lon="7.809361723289952"><ele>493.33333333333337</ele><time>2026-04-06T09:00:45Z</time></trkpt><trkpt lat="45.07072171088399" lon="7.809477956568177"><ele>492.5</ele><time>2026-04-06T09:00:46Z</time></trkpt><trkpt lat="45.0706768791914" lon="7.809578505385163"><ele>491.6666666666667</ele><time>2026-04-06T09:00:47Z</time></trkpt><trkpt lat="45.07062392559092" lon="7.809674619095029"><ele>490.83333333333337</ele><time>2026-04-06T09:00:48Z</time></trkpt><trkpt lat="45.07056558718815" lon="7.809756770589041"><ele>490.0</ele><time>2026-04-06T09:00:49Z</time></trkpt><trkpt lat="45.07049230220871" lon="7.809832270370914"><ele>490.0</ele><time>2026-04-06T09:00:50Z</time></trkpt><trkpt lat="45.07041261480728" lon="7.8099012537704855"><ele>490.0</ele><time>2026-04-06T09:00:51Z</time></trkpt><trkpt lat="45.07033154138499" lon="7.809959680379173"><ele>490.0</ele><time>2026-04-06T09:00:52Z</time></trkpt><trkpt lat="45.070246548444224" lon="7.8100201813850605"><ele>490.0</ele><time>2026-04-06T09:00:53Z</time></trkpt><trkpt lat="45.07016552378587" lon="7.810073608034419"><ele>490.0</ele><time>2026-04-06T09:00:54Z</time></trkpt><trkpt lat="45.07008030200398" lon="7.810107870278837"><ele>490.00000000000006</ele><time>2026-04-06T09:00:55Z</time></trkpt><trkpt lat="45.07000005255884" lon="7.8100854655022385"><ele>490.0</ele><time>2026-04-06T09:00:56Z</time></trkpt><trkpt lat="45.069913185369025" lon="7.8100701761423235"><ele>490.0</ele><time>2026-04-06T09:00:57Z</time></trkpt><trkpt lat="45.06982419897849" lon="7.810048998710828"><ele>490.0</ele><time>2026-04-06T09:00:58Z</time></trkpt><trkpt lat="45.06974125106939" lon="7.810035354189348"><ele>490.00000000000006</ele><time>2026-04-06T09:00:59Z</time></trkpt><trkpt lat="45.06965229955102" lon="7.810011798194511"><ele>490.0</ele><time>2026-04-06T09:01:00Z</time></trkpt><trkpt lat="45.06956675152937" lon="7.810002159000709"><ele>488.83333333333337</ele><time>2026-04-06T09:01:01Z</time></trkpt><trkpt lat="45.069484672150466" lon="7.809994458041349"><ele>487.6666666666667</ele><time>2026-04-06T09:01:02Z</time></trkpt><trkpt lat="45.06940244587663" lon="7.809997216143963"><ele>486.5</ele><time>2026-04-06T09:01:03Z</time></trkpt><trkpt lat="45.069325828011685" lon="7.81000688824091"><ele>485.33333333333337</ele><time>2026-04-06T09:01:04Z</time></trkpt><trkpt lat="45.069254323589846" lon="7.81002731280074"><ele>484.1666666666667</ele><time>2026-04-06T09:01:05Z</time></trkpt><trkpt lat="45.069186551078275" lon="7.81006370520474"><ele>483.0</ele><time>2026-04-06T09:01:06.001Z</time></trkpt><trkpt lat="45.06912039257843" lon="7.810109636573701"><ele>480.6666666666667</ele><time>2026-04-06T09:01:07.001Z</time></trkpt><trkpt lat="45.06905189912874" lon="7.810168246951745"><ele>478.33333333333337</ele><time>2026-04-06T09:01:08.001Z</time></trkpt><trkpt lat="45.068996241626074" lon="7.810252984582795"><ele>476.0</ele><time>2026-04-06T09:01:09.001Z</time></trkpt><trkpt lat="45.06895004537809" lon="7.810358209080412"><ele>473.6666666666667</ele><time>2026-04-06T09:01:10.001Z</time></trkpt><trkpt lat="45.06891067473348" lon="7.810483581741861"><ele>471.33333333333337</ele><time>2026-04-06T09:01:11.001Z</time></trkpt><trkpt lat="45.068881920755544" lon="7.810610460885307"><ele>469.0</ele><time>2026-04-06T09:01:12.001Z</time></trkpt><trkpt lat="45.068849559970324" lon="7.81073343635484"><ele>469.0</ele><time>2026-04-06T09:01:13.001Z</time></trkpt><trkpt lat="45.06882286828637" lon="7.810861137315298"><ele>469.0</ele><time>2026-04-06T09:01:14.001Z</time></trkpt><trkpt lat="45.068799570593875" lon="7.810988063306772"><ele>469.0</ele><time>2026-04-06T09:01:15.001Z</time></trkpt><trkpt lat="45.0687716036679" lon="7.81111020521003"><ele>469.0</ele><time>2026-04-06T09:01:16.001Z</time></trkpt><trkpt lat="45.0687442449303" lon="7.811228660958841"><ele>469.0</ele><time>2026-04-06T09:01:17.001Z</time></trkpt><trkpt lat="45.068713920759635" lon="7.811341351040701"><ele>468.6666666666667</ele><time>2026-04-06T09:01:18.001Z</time></trkpt><trkpt lat="45.06868454835878" lon="7.811450932493401"><ele>468.33333333333337</ele><time>2026-04-06T09:01:19.001Z</time></trkpt><trkpt lat="45.06865259106539" lon="7.811554484696082"><ele>468.0</ele><time>2026-04-06T09:01:20.001Z</time></trkpt><trkpt lat="45.068621207079254" lon="7.811663398938592"><ele>467.66666666666663</ele><time>2026-04-06T09:01:21.001Z</time></trkpt><trkpt lat="45.06858610523682" lon="7.811764505393115"><ele>467.3333333333333</ele><time>2026-04-06T09:01:22.001Z</time></trkpt><trkpt lat="45.068560274034226" lon="7.811855513011936"><ele>467.0</ele><time>2026-04-06T09:01:23.001Z</time></trkpt><trkpt lat="45.06853290031136" lon="7.81194556042829"><ele>466.5714285714285</ele><time>2026-04-06T09:01:24.001Z</time></trkpt><trkpt lat="45.06850711436456" lon="7.8120302888215445"><ele>466.1428571428571</ele><time>2026-04-06T09:01:25Z</time></trkpt><trkpt lat="45.06847097255513" lon="7.812119438989015"><ele>465.7142857142857</ele><time>2026-04-06T09:01:26Z</time></trkpt><trkpt lat="45.068429774623496" lon="7.81220981240358"><ele>465.2857142857143</ele><time>2026-04-06T09:01:27Z</time></trkpt><trkpt lat="45.068376119541085" lon="7.812295043765832"><ele>464.8571428571429</ele><time>2026-04-06T09:01:28Z</time></trkpt><trkpt lat="45.0683199813905" lon="7.812368269836897"><ele>464.4285714285715</ele><time>2026-04-06T09:01:29Z</time></trkpt><trkpt lat="45.06826203513232" lon="7.812432620206521"><ele>464.00000000000006</ele><time>2026-04-06T09:01:30Z</time></trkpt><trkpt lat="45.06820449138497" lon="7.812486934085109"><ele>463.3333333333333</ele><time>2026-04-06T09:01:31Z</time></trkpt><trkpt lat="45.068150678364525" lon="7.812539112482624"><ele>462.66666666666663</ele><time>2026-04-06T09:01:32Z</time></trkpt><trkpt lat="45.068057794982835" lon="7.81262821283343"><ele>462.0</ele><time>2026-04-06T09:01:34Z</time></trkpt><trkpt lat="45.06798865148474" lon="7.8126972075342245"><ele>461.33333333333337</ele><time>2026-04-06T09:01:36Z</time></trkpt><trkpt lat="45.06793183598399" lon="7.812750290297723"><ele>460.6666666666667</ele><time>2026-04-06T09:01:38Z</time></trkpt><trkpt lat="45.06789320179423" lon="7.812837446175281"><ele>460.0</ele><time>2026-04-06T09:01:40Z</time></trkpt><trkpt lat="45.06794401478556" lon="7.812917333739029"><ele>459.6666666666667</ele><time>2026-04-06T09:01:41Z</time></trkpt><trkpt lat="45.06804699594347" lon="7.812969534988401"><ele>459.33333333333337</ele><time>2026-04-06T09:01:43Z</time></trkpt><trkpt lat="45.06815350682195" lon="7.813059311676405"><ele>459.0</ele><time>2026-04-06T09:01:45Z</time></trkpt><trkpt lat="45.068207680857164" lon="7.81312032114153"><ele>458.66666666666663</ele><time>2026-04-06T09:01:46Z</time></trkpt><trkpt lat="45.068269005181826" lon="7.813172333198089"><ele>458.3333333333333</ele><time>2026-04-06T09:01:47Z</time></trkpt><trkpt lat="45.06833186023227" lon="7.813208091995686"><ele>458.0</ele><time>2026-04-06T09:01:48Z</time></trkpt><trkpt lat="45.06839723876686" lon="7.813235370872026"><ele>457.49999999999994</ele><time>2026-04-06T09:01:49Z</time></trkpt><trkpt lat="45.068466406208785" lon="7.813244716129539"><ele>457.0</ele><time>2026-04-06T09:01:50Z</time></trkpt><trkpt lat="45.0685438786641" lon="7.81322788395014"><ele>456.5</ele><time>2026-04-06T09:01:51Z</time></trkpt><trkpt lat="45.06861687362819" lon="7.8131736695592595"><ele>456.0</ele><time>2026-04-06T09:01:52Z</time></trkpt><trkpt lat="45.068684558694166" lon="7.813102294855784"><ele>455.49999999999994</ele><time>2026-04-06T09:01:53Z</time></trkpt><trkpt lat="45.06874803465204" lon="7.8130284077364465"><ele>455.0</ele><time>2026-04-06T09:01:54Z</time></trkpt><trkpt lat="45.068818389966765" lon="7.812965726617973"><ele>454.99999999999994</ele><time>2026-04-06T09:01:55Z</time></trkpt><trkpt lat="45.06888665074806" lon="7.812893096680409"><ele>455.0</ele><time>2026-04-06T09:01:56Z</time></trkpt><trkpt lat="45.06895803652505" lon="7.812832089565495"><ele>455.0</ele><time>2026-04-06T09:01:57Z</time></trkpt><trkpt lat="45.06902645602764" lon="7.812770617170441"><ele>455.0</ele><time>2026-04-06T09:01:58Z</time></trkpt><trkpt lat="45.06910032234046" lon="7.812725998501703"><ele>454.99999999999994</ele><time>2026-04-06T09:01:59Z</time></trkpt><trkpt lat="45.069177835214504" lon="7.812715410858001"><ele>455.0</ele><time>2026-04-06T09:02:00Z</time></trkpt><trkpt lat="45.06925526443239" lon="7.81273085291874"><ele>452.8333333333333</ele><time>2026-04-06T09:02:01Z</time></trkpt><trkpt lat="45.06933049130558" lon="7.8127833564988185"><ele>450.66666666666663</ele><time>2026-04-06T09:02:02Z</time></trkpt><trkpt lat="45.06939576621238" lon="7.812853522915447"><ele>448.5</ele><time>2026-04-06T09:02:03Z</time></trkpt><trkpt lat="45.06945686289518" lon="7.812947417841209"><ele>446.33333333333337</ele><time>2026-04-06T09:02:04Z</time></trkpt><trkpt lat="45.06950620206513" lon="7.813055703641376"><ele>444.1666666666667</ele><time>2026-04-06T09:02:05Z</time></trkpt><trkpt lat="45.069549107125326" lon="7.813164240536739"><ele>442.0</ele><time>2026-04-06T09:02:06Z</time></trkpt><trkpt lat="45.06957019401696" lon="7.813287326588286"><ele>442.0</ele><time>2026-04-06T09:02:07Z</time></trkpt><trkpt lat="45.06957100359022" lon="7.8134267476279655"><ele>442.00000000000006</ele><time>2026-04-06T09:02:08Z</time></trkpt><trkpt lat="45.0695772901973" lon="7.813565688076998"><ele>442.00000000000006</ele><time>2026-04-06T09:02:09Z</time></trkpt><trkpt lat="45.06957487603642" lon="7.813706996906495"><ele>442.0</ele><time>2026-04-06T09:02:10Z</time></trkpt><trkpt lat="45.06957068766749" lon="7.813855733326523"><ele>442.0</ele><time>2026-04-06T09:02:11Z</time></trkpt><trkpt lat="45.06956671238858" lon="7.814002863496614"><ele>440.0</ele><time>2026-04-06T09:02:12Z</time></trkpt><trkpt lat="45.06954793617821" lon="7.8141375300318385"><ele>438.00000000000006</ele><time>2026-04-06T09:02:13Z</time></trkpt><trkpt lat="45.069532172721736" lon="7.814277433288821"><ele>436.00000000000006</ele><time>2026-04-06T09:02:14Z</time></trkpt><trkpt lat="45.0695282466066" lon="7.8144218046425395"><ele>434.0</ele><time>2026-04-06T09:02:15Z</time></trkpt><trkpt lat="45.06951400346796" lon="7.814552059604348"><ele>432.0</ele><time>2026-04-06T09:02:16Z</time></trkpt><trkpt lat="45.06949950352811" lon="7.814678829230471"><ele>431.0</ele><time>2026-04-06T09:02:17Z</time></trkpt><trkpt lat="45.06948247168098" lon="7.814803183101121"><ele>430.0</ele><time>2026-04-06T09:02:18Z</time></trkpt><trkpt lat="45.06946507650068" lon="7.814929336492865"><ele>429.0</ele><time>2026-04-06T09:02:19Z</time></trkpt><trkpt lat="45.069452035565384" lon="7.81505111982207"><ele>428.0</ele><time>2026-04-06T09:02:20Z</time></trkpt><trkpt lat="45.069441132188224" lon="7.815170729560202"><ele>427.0</ele><time>2026-04-06T09:02:21Z</time></trkpt><trkpt lat="45.06942855749725" lon="7.815290462471757"><ele>426.0</ele><time>2026-04-06T09:02:22Z</time></trkpt><trkpt lat="45.06941773155535" lon="7.815404894247878"><ele>425.57142857142856</ele><time>2026-04-06T09:02:23Z</time></trkpt><trkpt lat="45.06941098532933" lon="7.815513674395549"><ele>425.1428571428571</ele><time>2026-04-06T09:02:24Z</time></trkpt><trkpt lat="45.069393108089905" lon="7.815625317790921"><ele>424.71428571428567</ele><time>2026-04-06T09:02:25Z</time></trkpt><trkpt lat="45.06938956740101" lon="7.815731654737569"><ele>424.2857142857143</ele><time>2026-04-06T09:02:26Z</time></trkpt><trkpt lat="45.069381706541094" lon="7.8158373715594465"><ele>423.8571428571429</ele><time>2026-04-06T09:02:27Z</time></trkpt><trkpt lat="45.06937121405465" lon="7.815926673182275"><ele>423.4285714285714</ele><time>2026-04-06T09:02:28Z</time></trkpt><trkpt lat="45.06936304270599" lon="7.816019615822022"><ele>423.0</ele><time>2026-04-06T09:02:29Z</time></trkpt><trkpt lat="45.06933170238722" lon="7.816190611382631"><ele>422.7142857142857</ele><time>2026-04-06T09:02:31Z</time></trkpt><trkpt lat="45.06929559787705" lon="7.816263785905451"><ele>422.42857142857144</ele><time>2026-04-06T09:02:32Z</time></trkpt><trkpt lat="45.06923969149078" lon="7.81631424187137"><ele>422.14285714285717</ele><time>2026-04-06T09:02:33Z</time></trkpt><trkpt lat="45.06916544914461" lon="7.816342429652717"><ele>421.8571428571429</ele><time>2026-04-06T09:02:34Z</time></trkpt><trkpt lat="45.069085691111745" lon="7.816340044308199"><ele>421.57142857142856</ele><time>2026-04-06T09:02:35Z</time></trkpt><trkpt lat="45.0690084500832" lon="7.816335056837728"><ele>421.28571428571433</ele><time>2026-04-06T09:02:36Z</time></trkpt><trkpt lat="45.06893599933396" lon="7.816331919024108"><ele>421.0</ele><time>2026-04-06T09:02:37Z</time></trkpt><trkpt lat="45.068873494680176" lon="7.816355688281326"><ele>418.4</ele><time>2026-04-06T09:02:38Z</time></trkpt><trkpt lat="45.06880141323486" lon="7.81642761794774"><ele>415.8</ele><time>2026-04-06T09:02:39Z</time></trkpt><trkpt lat="45.068723695216256" lon="7.8165503948173845"><ele>413.2</ele><time>2026-04-06T09:02:41Z</time></trkpt><trkpt lat="45.0686488231774" lon="7.81662144448047"><ele>410.59999999999997</ele><time>2026-04-06T09:02:43Z</time></trkpt><trkpt lat="45.068576657073436" lon="7.816724657939332"><ele>408.0</ele><time>2026-04-06T09:02:45Z</time></trkpt><trkpt lat="45.06848369680145" lon="7.816739268271492"><ele>408.4</ele><time>2026-04-06T09:02:47Z</time></trkpt><trkpt lat="45.068467178052515" lon="7.816966519205991"><ele>408.79999999999995</ele><time>2026-04-06T09:02:49Z</time></trkpt><trkpt lat="45.06842928710091" lon="7.817071653342467"><ele>409.2</ele><time>2026-04-06T09:02:51Z</time></trkpt><trkpt lat="45.06841489519765" lon="7.817184035916257"><ele>409.6</ele><time>2026-04-06T09:02:53Z</time></trkpt><trkpt lat="45.06840059531612" lon="7.817276434499753"><ele>410.0</ele><time>2026-04-06T09:02:57Z</time></trkpt><trkpt lat="45.06833455589164" lon="7.81734675959394"><ele>406.8333333333333</ele><time>2026-04-06T09:03:09.999Z</time></trkpt><trkpt lat="45.06824915732491" lon="7.817394539876273"><ele>403.66666666666663</ele><time>2026-04-06T09:03:14.001Z</time></trkpt><trkpt lat="45.06816799518328" lon="7.817462707412549"><ele>400.5</ele><time>2026-04-06T09:03:17.001Z</time></trkpt><trkpt lat="45.06810134548554" lon="7.81750457737126"><ele>397.33333333333337</ele><time>2026-04-06T09:03:19.001Z</time></trkpt><trkpt lat="45.06804322427911" lon="7.817561457517618"><ele>394.1666666666667</ele><time>2026-04-06T09:03:21.001Z</time></trkpt><trkpt lat="45.067988487969835" lon="7.817619081645726"><ele>391.0</ele><time>2026-04-06T09:03:23.001Z</time></trkpt><trkpt lat="45.067936272635556" lon="7.8177354724603285"><ele>390.00000000000006</ele><time>2026-04-06T09:03:26.001Z</time></trkpt><trkpt lat="45.06790969516424" lon="7.817819242085193"><ele>389.0</ele><time>2026-04-06T09:03:28.001Z</time></trkpt><trkpt lat="45.067822245015314" lon="7.817794938060634"><ele>388.0</ele><time>2026-04-06T09:03:29Z</time></trkpt><trkpt lat="45.06776076751899" lon="7.817840544125228"><ele>387.0</ele><time>2026-04-06T09:03:31Z</time></trkpt><trkpt lat="45.067691010654485" lon="7.817893078224595"><ele>386.00000000000006</ele><time>2026-04-06T09:03:33Z</time></trkpt><trkpt lat="45.06763379079372" lon="7.81794409115873"><ele>385.0</ele><time>2026-04-06T09:03:35Z</time></trkpt><trkpt lat="45.06758148968728" lon="7.818038263937625"><ele>385.00000000000006</ele><time>2026-04-06T09:03:38Z</time></trkpt><trkpt lat="45.06753860267689" lon="7.818104719245639"><ele>385.0</ele><time>2026-04-06T09:03:40Z</time></trkpt><trkpt lat="45.0675218962299" lon="7.818219431187316"><ele>385.0</ele><time>2026-04-06T09:03:43Z</time></trkpt><trkpt lat="45.06755097902933" lon="7.818310399312994"><ele>385.0</ele><time>2026-04-06T09:03:45Z</time></trkpt><trkpt lat="45.06757196975621" lon="7.818436463581212"><ele>385.00000000000006</ele><time>2026-04-06T09:03:48Z</time></trkpt><trkpt lat="45.06760578646864" lon="7.818540316141877"><ele>385.0</ele><time>2026-04-06T09:03:50Z</time></trkpt><trkpt lat="45.067619701453104" lon="7.818645123573096"><ele>383.1666666666667</ele><time>2026-04-06T09:03:52Z</time></trkpt><trkpt lat="45.06765053069702" lon="7.818725970575984"><ele>381.33333333333337</ele><time>2026-04-06T09:03:54Z</time></trkpt><trkpt lat="45.067663971431216" lon="7.818826848669567"><ele>379.5</ele><time>2026-04-06T09:03:57Z</time></trkpt><trkpt lat="45.06766471551753" lon="7.818940653354344"><ele>377.6666666666667</ele><time>2026-04-06T09:04:06Z</time></trkpt><trkpt lat="45.06767907849674" lon="7.819044139459817"><ele>375.83333333333337</ele><time>2026-04-06T09:04:08Z</time></trkpt><trkpt lat="45.06778803460825" lon="7.819112341362996"><ele>374.0</ele><time>2026-04-06T09:04:10Z</time></trkpt><trkpt lat="45.06784855033666" lon="7.819142295066465"><ele>374.0</ele><time>2026-04-06T09:04:11Z</time></trkpt><trkpt lat="45.067939324000236" lon="7.8192509848144"><ele>374.0</ele><time>2026-04-06T09:04:13Z</time></trkpt><trkpt lat="45.06797869347015" lon="7.819322859739136"><ele>374.0</ele><time>2026-04-06T09:04:14Z</time></trkpt><trkpt lat="45.06801973631502" lon="7.819420793545971"><ele>374.0</ele><time>2026-04-06T09:04:15Z</time></trkpt><trkpt lat="45.068070110700226" lon="7.819512287886916"><ele>374.0</ele><time>2026-04-06T09:04:16Z</time></trkpt><trkpt lat="45.06811521357238" lon="7.819602882983162"><ele>374.0</ele><time>2026-04-06T09:04:17Z</time></trkpt><trkpt lat="45.068166224485964" lon="7.819689683399203"><ele>373.1666666666667</ele><time>2026-04-06T09:04:18Z</time></trkpt><trkpt lat="45.06822060512192" lon="7.819774782753616"><ele>372.33333333333337</ele><time>2026-04-06T09:04:19Z</time></trkpt><trkpt lat="45.068266474944444" lon="7.819856555555571"><ele>371.5</ele><time>2026-04-06T09:04:20Z</time></trkpt><trkpt lat="45.06830899017363" lon="7.819926723346346"><ele>370.6666666666667</ele><time>2026-04-06T09:04:21Z</time></trkpt><trkpt lat="45.068373591144464" lon="7.820053992912076"><ele>369.8333333333333</ele><time>2026-04-06T09:04:23Z</time></trkpt><trkpt lat="45.068468416910775" lon="7.820121726396229"><ele>369.0</ele><time>2026-04-06T09:04:25Z</time></trkpt><trkpt lat="45.068576359534795" lon="7.820135500014543"><ele>371.0</ele><time>2026-04-06T09:04:27Z</time></trkpt><trkpt lat="45.068663730154654" lon="7.820185113345852"><ele>373.0</ele><time>2026-04-06T09:04:29Z</time></trkpt><trkpt lat="45.06873559326028" lon="7.820232206382914"><ele>375.0</ele><time>2026-04-06T09:04:31Z</time></trkpt><trkpt lat="45.06881227956151" lon="7.820271400000651"><ele>377.0</ele><time>2026-04-06T09:04:33Z</time></trkpt><trkpt lat="45.068879486153854" lon="7.820325515217433"><ele>379.0</ele><time>2026-04-06T09:04:34.999Z</time></trkpt><trkpt lat="45.06894780181707" lon="7.820353868461114"><ele>381.0</ele><time>2026-04-06T09:04:36.999Z</time></trkpt><trkpt lat="45.06901244269845" lon="7.820362402100508"><ele>381.0</ele><time>2026-04-06T09:04:38.999Z</time></trkpt><trkpt lat="45.069083944612004" lon="7.8203624888533065"><ele>381.0</ele><time>2026-04-06T09:04:40.999Z</time></trkpt><trkpt lat="45.069150421228024" lon="7.820363308872311"><ele>381.0</ele><time>2026-04-06T09:04:42.999Z</time></trkpt><trkpt lat="45.069226078290455" lon="7.820364446518517"><ele>381.0</ele><time>2026-04-06T09:04:44.999Z</time></trkpt><trkpt lat="45.06929987496566" lon="7.820374265874373"><ele>381.0</ele><time>2026-04-06T09:04:46.999Z</time></trkpt><trkpt lat="45.06940020525728" lon="7.820345472944828"><ele>381.0</ele><time>2026-04-06T09:04:49.999Z</time></trkpt><trkpt lat="45.06947821429223" lon="7.820337933839712"><ele>381.2857142857143</ele><time>2026-04-06T09:04:51.999Z</time></trkpt><trkpt lat="45.06955094929575" lon="7.820328142187261"><ele>381.5714285714286</ele><time>2026-04-06T09:04:53.999Z</time></trkpt><trkpt lat="45.06961935407654" lon="7.820317975357803"><ele>381.8571428571429</ele><time>2026-04-06T09:04:55.999Z</time></trkpt><trkpt lat="45.06968893287182" lon="7.82030762079146"><ele>382.1428571428571</ele><time>2026-04-06T09:04:57.999Z</time></trkpt><trkpt lat="45.069764275640274" lon="7.820292155221483"><ele>382.42857142857144</ele><time>2026-04-06T09:04:59.999Z</time></trkpt><trkpt lat="45.06982930386951" lon="7.820267674657528"><ele>382.7142857142857</ele><time>2026-04-06T09:05:01.999Z</time></trkpt><trkpt lat="45.06990109733017" lon="7.820262156316826"><ele>383.0</ele><time>2026-04-06T09:05:03.999Z</time></trkpt><trkpt lat="45.06998109241822" lon="7.820263130224836"><ele>383.57142857142856</ele><time>2026-04-06T09:05:05.999Z</time></trkpt><trkpt lat="45.0700481993826" lon="7.820254366449544"><ele>384.1428571428571</ele><time>2026-04-06T09:05:07.999Z</time></trkpt><trkpt lat="45.07011074657762" lon="7.8202326074294275"><ele>384.7142857142857</ele><time>2026-04-06T09:05:09.999Z</time></trkpt><trkpt lat="45.07018012734893" lon="7.820220705924969"><ele>385.2857142857143</ele><time>2026-04-06T09:05:11.999Z</time></trkpt><trkpt lat="45.070244557394446" lon="7.820188105977179"><ele>385.8571428571429</ele><time>2026-04-06T09:05:13.999Z</time></trkpt><trkpt lat="45.070310333316954" lon="7.82016075953422"><ele>386.42857142857144</ele><time>2026-04-06T09:05:15.999Z</time></trkpt><trkpt lat="45.07040309773073" lon="7.820126078752059"><ele>387.0</ele><time>2026-04-06T09:05:19Z</time></trkpt><trkpt lat="45.07046693525034" lon="7.820099477085068"><ele>386.42857142857144</ele><time>2026-04-06T09:05:21Z</time></trkpt><trkpt lat="45.070530440495" lon="7.820075334763276"><ele>385.8571428571429</ele><time>2026-04-06T09:05:23Z</time></trkpt><trkpt lat="45.070588846660016" lon="7.820036115331279"><ele>385.2857142857143</ele><time>2026-04-06T09:05:25Z</time></trkpt><trkpt lat="45.07065205827676" lon="7.820011585302974"><ele>384.7142857142857</ele><time>2026-04-06T09:05:27Z</time></trkpt><trkpt lat="45.07071160718091" lon="7.81996722094789"><ele>384.1428571428571</ele><time>2026-04-06T09:05:29Z</time></trkpt><trkpt lat="45.07078243979364" lon="7.81995027982802"><ele>383.57142857142856</ele><time>2026-04-06T09:05:31Z</time></trkpt><trkpt lat="45.07084775522343" lon="7.819926984909688"><ele>383.0</ele><time>2026-04-06T09:05:33Z</time></trkpt><trkpt lat="45.07091136118715" lon="7.819901248034838"><ele>383.0</ele><time>2026-04-06T09:05:35Z</time></trkpt><trkpt lat="45.070978301767504" lon="7.819888543793348"><ele>383.0</ele><time>2026-04-06T09:05:37Z</time></trkpt><trkpt lat="45.071045923215436" lon="7.819883621144164"><ele>383.0</ele><time>2026-04-06T09:05:39Z</time></trkpt><trkpt lat="45.07112237004397" lon="7.819892214305583"><ele>383.0</ele><time>2026-04-06T09:05:41Z</time></trkpt><trkpt lat="45.07120903245598" lon="7.819871979442739"><ele>383.0</ele><time>2026-04-06T09:05:44Z</time></trkpt><trkpt lat="45.07127551667498" lon="7.8198700387589355"><ele>383.0</ele><time>2026-04-06T09:05:46Z</time></trkpt><trkpt lat="45.07134825490256" lon="7.819876828458502"><ele>383.0</ele><time>2026-04-06T09:05:48Z</time></trkpt><trkpt lat="45.07141728642434" lon="7.819874808750183"><ele>383.0</ele><time>2026-04-06T09:05:50Z</time></trkpt><trkpt lat="45.07148273166622" lon="7.8198634566396565"><ele>383.0</ele><time>2026-04-06T09:05:52Z</time></trkpt><trkpt lat="45.071555464272535" lon="7.81984897417072"><ele>383.0</ele><time>2026-04-06T09:05:54Z</time></trkpt><trkpt lat="45.07163291769801" lon="7.819835347278891"><ele>383.0</ele><time>2026-04-06T09:05:56Z</time></trkpt><trkpt lat="45.071707358893455" lon="7.819819604575421"><ele>383.0</ele><time>2026-04-06T09:05:58Z</time></trkpt><trkpt lat="45.071778739785145" lon="7.81980601703058"><ele>383.0</ele><time>2026-04-06T09:06:00Z</time></trkpt><trkpt lat="45.07185918348468" lon="7.819822067066144"><ele>383.0</ele><time>2026-04-06T09:06:02Z</time></trkpt><trkpt lat="45.071923575079694" lon="7.819839893947881"><ele>384.1666666666667</ele><time>2026-04-06T09:06:04Z</time></trkpt><trkpt lat="45.071993344577955" lon="7.819869820626229"><ele>385.33333333333337</ele><time>2026-04-06T09:06:06Z</time></trkpt><trkpt lat="45.07206066269407" lon="7.819910117356152"><ele>386.5</ele><time>2026-04-06T09:06:08Z</time></trkpt><trkpt lat="45.07213559094161" lon="7.819996744330242"><ele>387.6666666666667</ele><time>2026-04-06T09:06:11Z</time></trkpt><trkpt lat="45.072209608209526" lon="7.820066569387567"><ele>388.8333333333333</ele><time>2026-04-06T09:06:14Z</time></trkpt><trkpt lat="45.072270250785216" lon="7.820155535885193"><ele>390.0</ele><time>2026-04-06T09:06:17Z</time></trkpt><trkpt lat="45.07233768906693" lon="7.820222080652997"><ele>390.0</ele><time>2026-04-06T09:06:20Z</time></trkpt><trkpt lat="45.072406152865945" lon="7.820286887625092"><ele>390.0</ele><time>2026-04-06T09:06:23Z</time></trkpt><trkpt lat="45.072468561459836" lon="7.820345914329761"><ele>390.0</ele><time>2026-04-06T09:06:26Z</time></trkpt><trkpt lat="45.0725255775616" lon="7.820409017699017"><ele>390.0</ele><time>2026-04-06T09:06:28.999Z</time></trkpt><trkpt lat="45.07257993637848" lon="7.820466574393072"><ele>390.0</ele><time>2026-04-06T09:06:31.999Z</time></trkpt><trkpt lat="45.07262778511408" lon="7.820529592981773"><ele>390.0</ele><time>2026-04-06T09:06:34.999Z</time></trkpt><trkpt lat="45.07267927600569" lon="7.820589423724652"><ele>390.0</ele><time>2026-04-06T09:06:37.999Z</time></trkpt><trkpt lat="45.072745077575824" lon="7.820667407416982"><ele>390.0</ele><time>2026-04-06T09:06:41.999Z</time></trkpt><trkpt lat="45.0728001554069" lon="7.8207246175362855"><ele>390.0</ele><time>2026-04-06T09:06:44.999Z</time></trkpt><trkpt lat="45.07284822373868" lon="7.820790205348377"><ele>390.0</ele><time>2026-04-06T09:06:47.999Z</time></trkpt><trkpt lat="45.072907560194885" lon="7.820844540834464"><ele>390.0</ele><time>2026-04-06T09:06:50.999Z</time></trkpt><trkpt lat="45.07296319273086" lon="7.820910916959577"><ele>390.0</ele><time>2026-04-06T09:06:53.999Z</time></trkpt><trkpt lat="45.073027162147405" lon="7.8209746504757"><ele>390.0</ele><time>2026-04-06T09:06:56.999Z</time></trkpt><trkpt lat="45.073087337321184" lon="7.821027259566931"><ele>390.0</ele><time>2026-04-06T09:06:59.999Z</time></trkpt><trkpt lat="45.07313507942459" lon="7.821096714918069"><ele>390.8333333333333</ele><time>2026-04-06T09:07:02.999Z</time></trkpt><trkpt lat="45.07319037910616" lon="7.821178177722515"><ele>391.66666666666663</ele><time>2026-04-06T09:07:06.999Z</time></trkpt><trkpt lat="45.07324079479171" lon="7.821249154221295"><ele>392.5</ele><time>2026-04-06T09:07:10.999Z</time></trkpt><trkpt lat="45.073300232959234" lon="7.8212998364623"><ele>393.3333333333333</ele><time>2026-04-06T09:07:13.999Z</time></trkpt><trkpt lat="45.07336185695834" lon="7.82137271125675"><ele>394.16666666666663</ele><time>2026-04-06T09:07:17.999Z</time></trkpt><trkpt lat="45.07341326692048" lon="7.821455191270901"><ele>395.0</ele><time>2026-04-06T09:07:21.999Z</time></trkpt><trkpt lat="45.07346628217255" lon="7.821530486629265"><ele>395.57142857142856</ele><time>2026-04-06T09:07:26Z</time></trkpt><trkpt lat="45.073516289928044" lon="7.821595437233407"><ele>396.14285714285717</ele><time>2026-04-06T09:07:30Z</time></trkpt><trkpt lat="45.07357674504091" lon="7.82164814559079"><ele>396.7142857142857</ele><time>2026-04-06T09:07:35Z</time></trkpt><trkpt lat="45.07363248085976" lon="7.821692094758153"><ele>397.2857142857143</ele><time>2026-04-06T09:07:39Z</time></trkpt><trkpt lat="45.073688372449574" lon="7.82174133402286"><ele>397.8571428571429</ele><time>2026-04-06T09:07:44Z</time></trkpt><trkpt lat="45.07374529099775" lon="7.821781196090433"><ele>398.42857142857144</ele><time>2026-04-06T09:07:48Z</time></trkpt><trkpt lat="45.073808262937625" lon="7.821821286649527"><ele>399.0</ele><time>2026-04-06T09:07:53Z</time></trkpt><trkpt lat="45.073878042391804" lon="7.821848991802655"><ele>399.0</ele><time>2026-04-06T09:07:58Z</time></trkpt><trkpt lat="45.073968491510406" lon="7.8218764074092535"><ele>399.0</ele><time>2026-04-06T09:08:04Z</time></trkpt><trkpt lat="45.07404176622837" lon="7.8219107364803735"><ele>399.0</ele><time>2026-04-06T09:08:10Z</time></trkpt><trkpt lat="45.07410606912414" lon="7.8219222752938915"><ele>399.0</ele><time>2026-04-06T09:08:14.999Z</time></trkpt><trkpt lat="45.07418267267232" lon="7.82194281631625"><ele>399.0</ele><time>2026-04-06T09:08:20.999Z</time></trkpt><trkpt lat="45.07424677445581" lon="7.821959253253066"><ele>399.0</ele><time>2026-04-06T09:08:25.999Z</time></trkpt><trkpt lat="45.074336840741935" lon="7.821980637181905"><ele>400.3333333333333</ele><time>2026-04-06T09:08:32.999Z</time></trkpt><trkpt lat="45.07440612236436" lon="7.82199631896708"><ele>401.66666666666663</ele><time>2026-04-06T09:08:37.999Z</time></trkpt><trkpt lat="45.0744769395565" lon="7.821995283815782"><ele>403.0</ele><time>2026-04-06T09:08:43.999Z</time></trkpt><trkpt lat="45.07461170101901" lon="7.822001029581667"><ele>404.3333333333333</ele><time>2026-04-06T09:08:54.999Z</time></trkpt><trkpt lat="45.0746742021941" lon="7.822019154021824"><ele>405.66666666666663</ele><time>2026-04-06T09:08:59.999Z</time></trkpt><trkpt lat="45.07473936396744" lon="7.822010652025442"><ele>407.0</ele><time>2026-04-06T09:09:04.999Z</time></trkpt><trkpt lat="45.07481002508865" lon="7.822002482149209"><ele>407.00000000000006</ele><time>2026-04-06T09:09:10.999Z</time></trkpt><trkpt lat="45.074874577930636" lon="7.821993411063947"><ele>407.0</ele><time>2026-04-06T09:09:16.999Z</time></trkpt><trkpt lat="45.07494476205121" lon="7.821983349831198"><ele>407.0</ele><time>2026-04-06T09:09:22.999Z</time></trkpt><trkpt lat="45.07501431800198" lon="7.821964515907324"><ele>407.0</ele><time>2026-04-06T09:09:28.998Z</time></trkpt><trkpt lat="45.07508397844279" lon="7.821944236916706"><ele>407.0</ele><time>2026-04-06T09:09:35Z</time></trkpt><trkpt lat="45.075148406305914" lon="7.821942577555808"><ele>407.00000000000006</ele><time>2026-04-06T09:09:40Z</time></trkpt><trkpt lat="45.07521677529767" lon="7.821936389823752"><ele>407.0</ele><time>2026-04-06T09:09:46Z</time></trkpt><trkpt lat="45.07528485328616" lon="7.821920129873081"><ele>408.99999999999994</ele><time>2026-04-06T09:09:52Z</time></trkpt><trkpt lat="45.07535419938845" lon="7.821889783501528"><ele>411.0</ele><time>2026-04-06T09:09:59Z</time></trkpt><trkpt lat="45.07545249575249" lon="7.821871849100106"><ele>413.0</ele><time>2026-04-06T09:10:07Z</time></trkpt><trkpt lat="45.07551674767127" lon="7.821863832654908"><ele>415.0</ele><time>2026-04-06T09:10:12Z</time></trkpt><trkpt lat="45.07558266488611" lon="7.821849278356504"><ele>416.99999999999994</ele><time>2026-04-06T09:10:17Z</time></trkpt><trkpt lat="45.07566282811512" lon="7.821831711606276"><ele>419.0</ele><time>2026-04-06T09:10:21.999Z</time></trkpt><trkpt lat="45.07573870605626" lon="7.821836079742186"><ele>421.3333333333333</ele><time>2026-04-06T09:10:26.999Z</time></trkpt><trkpt lat="45.07585672384782" lon="7.821839288187619"><ele>423.66666666666663</ele><time>2026-04-06T09:10:34.999Z</time></trkpt><trkpt lat="45.07594425518373" lon="7.821854281623946"><ele>426.0</ele><time>2026-04-06T09:10:40.999Z</time></trkpt><trkpt lat="45.07601536482898" lon="7.821865894933931"><ele>428.33333333333337</ele><time>2026-04-06T09:10:45.999Z</time></trkpt><trkpt lat="45.076089307226134" lon="7.821873353231013"><ele>430.6666666666667</ele><time>2026-04-06T09:10:50.999Z</time></trkpt><trkpt lat="45.07615662701239" lon="7.821889560679238"><ele>433.0</ele><time>2026-04-06T09:10:55.999Z</time></trkpt><trkpt lat="45.07622070466681" lon="7.821910157109903"><ele>433.0</ele><time>2026-04-06T09:10:59.999Z</time></trkpt><trkpt lat="45.07642799625383" lon="7.821945804765757"><ele>433.0</ele><time>2026-04-06T09:11:13.999Z</time></trkpt><trkpt lat="45.07649618336227" lon="7.821973810334818"><ele>433.0</ele><time>2026-04-06T09:11:18.999Z</time></trkpt><trkpt lat="45.07658304902955" lon="7.821981160988525"><ele>433.0</ele><time>2026-04-06T09:11:24.999Z</time></trkpt><trkpt lat="45.07669713571411" lon="7.821999361830373"><ele>435.1666666666667</ele><time>2026-04-06T09:11:33.999Z</time></trkpt><trkpt lat="45.076780052618716" lon="7.8220293852996825"><ele>437.33333333333337</ele><time>2026-04-06T09:11:39.999Z</time></trkpt><trkpt lat="45.07690187177558" lon="7.822052645666323"><ele>439.5</ele><time>2026-04-06T09:11:50.999Z</time></trkpt><trkpt lat="45.076985813446385" lon="7.8220589276255135"><ele>441.66666666666663</ele><time>2026-04-06T09:11:57.999Z</time></trkpt><trkpt lat="45.077067688654076" lon="7.82207719161719"><ele>443.8333333333333</ele><time>2026-04-06T09:12:03.999Z</time></trkpt><trkpt lat="45.07712862916906" lon="7.822124507329761"><ele>446.0</ele><time>2026-04-06T09:12:08.999Z</time></trkpt><trkpt lat="45.07718828950391" lon="7.822169435911005"><ele>445.99999999999994</ele><time>2026-04-06T09:12:13.999Z</time></trkpt><trkpt lat="45.077216398872544" lon="7.822249354924221"><ele>446.0</ele><time>2026-04-06T09:12:17.999Z</time></trkpt><trkpt lat="45.07725105583977" lon="7.8223622154708465"><ele>446.0</ele><time>2026-04-06T09:12:21.999Z</time></trkpt><trkpt lat="45.07729827262198" lon="7.82247800239318"><ele>446.0</ele><time>2026-04-06T09:12:24.999Z</time></trkpt><trkpt lat="45.077355025308016" lon="7.822539210918101"><ele>445.99999999999994</ele><time>2026-04-06T09:12:26.999Z</time></trkpt><trkpt lat="45.07742193592119" lon="7.822575005724533"><ele>446.0</ele><time>2026-04-06T09:12:28.999Z</time></trkpt><trkpt lat="45.077486916071166" lon="7.822614196813792"><ele>446.99999999999994</ele><time>2026-04-06T09:12:30.999Z</time></trkpt><trkpt lat="45.077553830569194" lon="7.8226451753089465"><ele>448.0</ele><time>2026-04-06T09:12:32.999Z</time></trkpt><trkpt lat="45.077643800263886" lon="7.822663919858657"><ele>449.0</ele><time>2026-04-06T09:12:36.999Z</time></trkpt><trkpt lat="45.07772303708494" lon="7.822683496489993"><ele>450.0</ele><time>2026-04-06T09:12:39.999Z</time></trkpt><trkpt lat="45.07779999552813" lon="7.822708119384778"><ele>450.99999999999994</ele><time>2026-04-06T09:12:42.999Z</time></trkpt><trkpt lat="45.077877193038475" lon="7.822725736689169"><ele>452.0</ele><time>2026-04-06T09:12:45.999Z</time></trkpt><trkpt lat="45.07794006487516" lon="7.822740023567258"><ele>449.8333333333333</ele><time>2026-04-06T09:12:47.999Z</time></trkpt><trkpt lat="45.07802786077171" lon="7.82275422390047"><ele>447.66666666666663</ele><time>2026-04-06T09:12:50.999Z</time></trkpt><trkpt lat="45.078135013382806" lon="7.822770982499893"><ele>445.5</ele><time>2026-04-06T09:12:54.999Z</time></trkpt><trkpt lat="45.078212916378064" lon="7.822782757761201"><ele>443.33333333333337</ele><time>2026-04-06T09:12:57.999Z</time></trkpt><trkpt lat="45.07828239668874" lon="7.8227715980978525"><ele>441.1666666666667</ele><time>2026-04-06T09:13:00.999Z</time></trkpt><trkpt lat="45.07835185666113" lon="7.822737650367377"><ele>439.0</ele><time>2026-04-06T09:13:04.999Z</time></trkpt><trkpt lat="45.078412804140626" lon="7.822664716935058"><ele>441.6666666666667</ele><time>2026-04-06T09:13:08.999Z</time></trkpt><trkpt lat="45.07845435005571" lon="7.822567502434118"><ele>444.33333333333337</ele><time>2026-04-06T09:13:12.999Z</time></trkpt><trkpt lat="45.07848069080878" lon="7.822462639206877"><ele>447.0</ele><time>2026-04-06T09:13:16.999Z</time></trkpt><trkpt lat="45.078505486200264" lon="7.822358595109151"><ele>449.66666666666663</ele><time>2026-04-06T09:13:20.999Z</time></trkpt><trkpt lat="45.0785413535972" lon="7.82225417839166"><ele>452.3333333333333</ele><time>2026-04-06T09:13:24.999Z</time></trkpt><trkpt lat="45.078571632758575" lon="7.822162479097646"><ele>455.0</ele><time>2026-04-06T09:13:27.999Z</time></trkpt><trkpt lat="45.07860000730755" lon="7.822054922852186"><ele>454.99999999999994</ele><time>2026-04-06T09:13:31.999Z</time></trkpt><trkpt lat="45.07865986044576" lon="7.821977980221436"><ele>455.0</ele><time>2026-04-06T09:13:34.999Z</time></trkpt><trkpt lat="45.07871108146459" lon="7.821883027059503"><ele>455.0</ele><time>2026-04-06T09:13:37.999Z</time></trkpt><trkpt lat="45.078761477749964" lon="7.821829520614382"><ele>455.0</ele><time>2026-04-06T09:13:39.999Z</time></trkpt><trkpt lat="45.0788353008246" lon="7.8217640293142425"><ele>454.99999999999994</ele><time>2026-04-06T09:13:42.998Z</time></trkpt><trkpt lat="45.07891642998764" lon="7.821724348259379"><ele>455.0</ele><time>2026-04-06T09:13:45.998Z</time></trkpt><trkpt lat="45.07900124363626" lon="7.82170779367195"><ele>456.66666666666663</ele><time>2026-04-06T09:13:48.998Z</time></trkpt><trkpt lat="45.07908307699492" lon="7.821684552082145"><ele>458.3333333333333</ele><time>2026-04-06T09:13:51.998Z</time></trkpt><trkpt lat="45.07914900548021" lon="7.821674519831055"><ele>460.0</ele><time>2026-04-06T09:13:53.998Z</time></trkpt><trkpt lat="45.079227682084145" lon="7.821653132631745"><ele>461.66666666666663</ele><time>2026-04-06T09:13:56.998Z</time></trkpt><trkpt lat="45.079308011239576" lon="7.821638090692917"><ele>463.3333333333333</ele><time>2026-04-06T09:13:59.999Z</time></trkpt><trkpt lat="45.07939236415274" lon="7.821626311256047"><ele>465.0</ele><time>2026-04-06T09:14:02.999Z</time></trkpt><trkpt lat="45.07947440401877" lon="7.821606937047209"><ele>465.0</ele><time>2026-04-06T09:14:05.999Z</time></trkpt><trkpt lat="45.07954132805033" lon="7.821591642251852"><ele>465.0</ele><time>2026-04-06T09:14:08.999Z</time></trkpt><trkpt lat="45.07960954821548" lon="7.821576719045747"><ele>465.0</ele><time>2026-04-06T09:14:11.999Z</time></trkpt><trkpt lat="45.079709099291996" lon="7.821556846421484"><ele>465.0</ele><time>2026-04-06T09:14:14.999Z</time></trkpt><trkpt lat="45.07977631652002" lon="7.821547214172693"><ele>465.0</ele><time>2026-04-06T09:14:16.999Z</time></trkpt><trkpt lat="45.07989478358111" lon="7.8214661427054395"><ele>465.0</ele><time>2026-04-06T09:14:18.999Z</time></trkpt><trkpt lat="45.079937978415884" lon="7.8213690349365965"><ele>465.5</ele><time>2026-04-06T09:14:19.999Z</time></trkpt><trkpt lat="45.07997782815872" lon="7.821270127649674"><ele>466.0</ele><time>2026-04-06T09:14:20.999Z</time></trkpt><trkpt lat="45.080011447907324" lon="7.821165921235897"><ele>466.5</ele><time>2026-04-06T09:14:21.999Z</time></trkpt><trkpt lat="45.0800478637472" lon="7.821038087143073"><ele>467.0</ele><time>2026-04-06T09:14:22.999Z</time></trkpt><trkpt lat="45.080075039446946" lon="7.820901611520735"><ele>467.5</ele><time>2026-04-06T09:14:23.999Z</time></trkpt><trkpt lat="45.08009167008288" lon="7.820783011877891"><ele>468.0</ele><time>2026-04-06T09:14:24.999Z</time></trkpt><trkpt lat="45.080118446897536" lon="7.820649682288144"><ele>468.0</ele><time>2026-04-06T09:14:25.999Z</time></trkpt><trkpt lat="45.080129555118226" lon="7.820521141344328"><ele>467.99999999999994</ele><time>2026-04-06T09:14:26.999Z</time></trkpt><trkpt lat="45.08014808841829" lon="7.820392318859816"><ele>467.99999999999994</ele><time>2026-04-06T09:14:27.999Z</time></trkpt><trkpt lat="45.08017786336151" lon="7.820266609107055"><ele>468.0</ele><time>2026-04-06T09:14:28.999Z</time></trkpt><trkpt lat="45.0802055621075" lon="7.82014520038079"><ele>468.0</ele><time>2026-04-06T09:14:29.999Z</time></trkpt><trkpt lat="45.080232265824684" lon="7.820027081598651"><ele>469.4</ele><time>2026-04-06T09:14:30.999Z</time></trkpt><trkpt lat="45.08025650102904" lon="7.819903108378153"><ele>470.79999999999995</ele><time>2026-04-06T09:14:31.999Z</time></trkpt><trkpt lat="45.08029379332858" lon="7.819791850290539"><ele>472.2</ele><time>2026-04-06T09:14:32.999Z</time></trkpt><trkpt lat="45.08034253425088" lon="7.81969611632649"><ele>473.6</ele><time>2026-04-06T09:14:33.999Z</time></trkpt><trkpt lat="45.08039472311605" lon="7.819611327390009"><ele>475.0</ele><time>2026-04-06T09:14:34.999Z</time></trkpt><trkpt lat="45.08046303113473" lon="7.819483649541246"><ele>475.00000000000006</ele><time>2026-04-06T09:14:36.999Z</time></trkpt><trkpt lat="45.08049704984524" lon="7.819407309801648"><ele>475.0</ele><time>2026-04-06T09:14:37.999Z</time></trkpt><trkpt lat="45.08055186527308" lon="7.8193589743508625"><ele>475.0</ele><time>2026-04-06T09:14:38.999Z</time></trkpt><trkpt lat="45.08061193417677" lon="7.819323663006245"><ele>475.0</ele><time>2026-04-06T09:14:39.999Z</time></trkpt><trkpt lat="45.08075539586126" lon="7.819346394318389"><ele>475.00000000000006</ele><time>2026-04-06T09:14:41.999Z</time></trkpt><trkpt lat="45.080817628212465" lon="7.819392493591145"><ele>475.0</ele><time>2026-04-06T09:14:42.999Z</time></trkpt><trkpt lat="45.08094093290654" lon="7.819465916746298"><ele>470.8571428571429</ele><time>2026-04-06T09:14:44.999Z</time></trkpt><trkpt lat="45.0809992771733" lon="7.819501966652551"><ele>466.7142857142858</ele><time>2026-04-06T09:14:45.999Z</time></trkpt><trkpt lat="45.081063021896405" lon="7.819536291955204"><ele>462.57142857142856</ele><time>2026-04-06T09:14:46.999Z</time></trkpt><trkpt lat="45.0811336664858" lon="7.819556333492803"><ele>458.42857142857144</ele><time>2026-04-06T09:14:47.999Z</time></trkpt><trkpt lat="45.08120837264257" lon="7.819572017602301"><ele>454.2857142857143</ele><time>2026-04-06T09:14:48.999Z</time></trkpt><trkpt lat="45.08128792279717" lon="7.819584401913668"><ele>450.1428571428571</ele><time>2026-04-06T09:14:49.999Z</time></trkpt><trkpt lat="45.08135517924909" lon="7.819599101454049"><ele>446.0</ele><time>2026-04-06T09:14:50.999Z</time></trkpt><trkpt lat="45.08144308741502" lon="7.819593633656264"><ele>446.0</ele><time>2026-04-06T09:14:51.999Z</time></trkpt><trkpt lat="45.08153477068972" lon="7.819579683665695"><ele>446.0</ele><time>2026-04-06T09:14:52.999Z</time></trkpt><trkpt lat="45.0816260158303" lon="7.81956438555528"><ele>446.0</ele><time>2026-04-06T09:14:53.999Z</time></trkpt><trkpt lat="45.081719020142195" lon="7.819573293113427"><ele>446.0</ele><time>2026-04-06T09:14:54.999Z</time></trkpt><trkpt lat="45.08180742852257" lon="7.81959520431267"><ele>446.0</ele><time>2026-04-06T09:14:55.999Z</time></trkpt><trkpt lat="45.081900345720044" lon="7.819602386952078"><ele>445.3333333333333</ele><time>2026-04-06T09:14:56.999Z</time></trkpt><trkpt lat="45.08198079743429" lon="7.819587249325083"><ele>444.66666666666663</ele><time>2026-04-06T09:14:57.999Z</time></trkpt><trkpt lat="45.08205540663293" lon="7.819536823581671"><ele>444.0</ele><time>2026-04-06T09:14:58.999Z</time></trkpt><trkpt lat="45.082129685595866" lon="7.819475957498566"><ele>443.33333333333337</ele><time>2026-04-06T09:14:59.999Z</time></trkpt><trkpt lat="45.08221783882985" lon="7.819423308164165"><ele>442.6666666666667</ele><time>2026-04-06T09:15:00.999Z</time></trkpt><trkpt lat="45.08229177785534" lon="7.819359248176803"><ele>442.0</ele><time>2026-04-06T09:15:01.999Z</time></trkpt><trkpt lat="45.082364254655545" lon="7.819292386615559"><ele>444.00000000000006</ele><time>2026-04-06T09:15:02.999Z</time></trkpt><trkpt lat="45.082426325359286" lon="7.8192146771964"><ele>446.0</ele><time>2026-04-06T09:15:03.999Z</time></trkpt><trkpt lat="45.08248378838991" lon="7.819105724971515"><ele>448.0</ele><time>2026-04-06T09:15:04.999Z</time></trkpt><trkpt lat="45.08254888999515" lon="7.8190411753971345"><ele>450.0</ele><time>2026-04-06T09:15:05.999Z</time></trkpt><trkpt lat="45.08263841245772" lon="7.819023448250582"><ele>452.00000000000006</ele><time>2026-04-06T09:15:06.999Z</time></trkpt><trkpt lat="45.082720918427405" lon="7.8190050514330185"><ele>454.0</ele><time>2026-04-06T09:15:07.999Z</time></trkpt><trkpt lat="45.08280844629007" lon="7.818988572811748"><ele>454.00000000000006</ele><time>2026-04-06T09:15:08.999Z</time></trkpt><trkpt lat="45.08289189896068" lon="7.818960753259834"><ele>454.0</ele><time>2026-04-06T09:15:09.999Z</time></trkpt><trkpt lat="45.08296694713531" lon="7.818904753018586"><ele>454.0</ele><time>2026-04-06T09:15:10.999Z</time></trkpt><trkpt lat="45.08303708506105" lon="7.818829578342629"><ele>454.0</ele><time>2026-04-06T09:15:11.999Z</time></trkpt><trkpt lat="45.08309470058852" lon="7.818752374896901"><ele>454.00000000000006</ele><time>2026-04-06T09:15:12.999Z</time></trkpt><trkpt lat="45.08313806235122" lon="7.81867112522186"><ele>454.0</ele><time>2026-04-06T09:15:13.999Z</time></trkpt><trkpt lat="45.08318254752405" lon="7.818590079190225"><ele>454.00000000000006</ele><time>2026-04-06T09:15:14.999Z</time></trkpt><trkpt lat="45.083241135900415" lon="7.818518862002203"><ele>454.0</ele><time>2026-04-06T09:15:15.999Z</time></trkpt><trkpt lat="45.08331576094637" lon="7.818402895316714"><ele>454.0</ele><time>2026-04-06T09:15:17.999Z</time></trkpt><trkpt lat="45.0833842515422" lon="7.818378613636803"><ele>454.0</ele><time>2026-04-06T09:15:19.999Z</time></trkpt><trkpt lat="45.08342549939229" lon="7.818500642377398"><ele>454.00000000000006</ele><time>2026-04-06T09:15:21.999Z</time></trkpt><trkpt lat="45.08340876215832" lon="7.818603233070054"><ele>454.0</ele><time>2026-04-06T09:15:26.999Z</time></trkpt><trkpt lat="45.08344673063506" lon="7.818730114006723"><ele>452.6666666666667</ele><time>2026-04-06T09:15:30.999Z</time></trkpt><trkpt lat="45.08347362211966" lon="7.818824434262121"><ele>451.33333333333337</ele><time>2026-04-06T09:15:32.999Z</time></trkpt><trkpt lat="45.0835026028931" lon="7.818916476204529"><ele>450.0</ele><time>2026-04-06T09:15:34.999Z</time></trkpt><trkpt lat="45.08351180310829" lon="7.819010278231006"><ele>448.66666666666663</ele><time>2026-04-06T09:15:36.999Z</time></trkpt><trkpt lat="45.083542246148006" lon="7.819126085621108"><ele>447.3333333333333</ele><time>2026-04-06T09:15:39.999Z</time></trkpt><trkpt lat="45.083578408950366" lon="7.819233227139707"><ele>446.0</ele><time>2026-04-06T09:15:42.999Z</time></trkpt><trkpt lat="45.08360848833595" lon="7.81932851060116"><ele>445.99999999999994</ele><time>2026-04-06T09:15:45.999Z</time></trkpt><trkpt lat="45.08363827263781" lon="7.819423300879373"><ele>446.0</ele><time>2026-04-06T09:15:48.999Z</time></trkpt><trkpt lat="45.08366377318575" lon="7.81952687207679"><ele>446.0</ele><time>2026-04-06T09:15:51.999Z</time></trkpt><trkpt lat="45.08369417715857" lon="7.819619518221536"><ele>446.0</ele><time>2026-04-06T09:15:54.999Z</time></trkpt><trkpt lat="45.08371789132398" lon="7.819713482327608"><ele>445.99999999999994</ele><time>2026-04-06T09:15:57.999Z</time></trkpt><trkpt lat="45.083755824195244" lon="7.8198151926886545"><ele>446.0</ele><time>2026-04-06T09:16:01.999Z</time></trkpt><trkpt lat="45.08378680400857" lon="7.8199200964475635"><ele>445.99999999999994</ele><time>2026-04-06T09:16:05.999Z</time></trkpt><trkpt lat="45.083816863812075" lon="7.820006950340838"><ele>446.0</ele><time>2026-04-06T09:16:08.999Z</time></trkpt><trkpt lat="45.08384458296431" lon="7.820107272085537"><ele>446.0</ele><time>2026-04-06T09:16:11.999Z</time></trkpt><trkpt lat="45.08387994504601" lon="7.82018258871044"><ele>446.0</ele><time>2026-04-06T09:16:13.999Z</time></trkpt><trkpt lat="45.08394252921691" lon="7.820284783141503"><ele>445.99999999999994</ele><time>2026-04-06T09:16:15.999Z</time></trkpt><trkpt lat="45.08401877145478" lon="7.820426027037741"><ele>446.0</ele><time>2026-04-06T09:16:17.999Z</time></trkpt><trkpt lat="45.084059486188465" lon="7.820509558102769"><ele>446.8333333333333</ele><time>2026-04-06T09:16:18.999Z</time></trkpt><trkpt lat="45.0840889564299" lon="7.82061123559924"><ele>447.66666666666663</ele><time>2026-04-06T09:16:19.999Z</time></trkpt><trkpt lat="45.084101119722064" lon="7.820720342785382"><ele>448.5</ele><time>2026-04-06T09:16:20.999Z</time></trkpt><trkpt lat="45.08411631146549" lon="7.820831311278234"><ele>449.33333333333337</ele><time>2026-04-06T09:16:21.999Z</time></trkpt><trkpt lat="45.08412177951174" lon="7.820940500491788"><ele>450.1666666666667</ele><time>2026-04-06T09:16:22.999Z</time></trkpt><trkpt lat="45.084113751321595" lon="7.821049137293247"><ele>451.0</ele><time>2026-04-06T09:16:23.999Z</time></trkpt><trkpt lat="45.08411503783683" lon="7.82115711807177"><ele>451.00000000000006</ele><time>2026-04-06T09:16:24.999Z</time></trkpt><trkpt lat="45.08411854259012" lon="7.8212650663486345"><ele>451.0</ele><time>2026-04-06T09:16:25.999Z</time></trkpt><trkpt lat="45.08412400464677" lon="7.821367319872066"><ele>451.0</ele><time>2026-04-06T09:16:26.999Z</time></trkpt><trkpt lat="45.084137541110074" lon="7.821469202087307"><ele>451.0</ele><time>2026-04-06T09:16:27.999Z</time></trkpt><trkpt lat="45.08416404241619" lon="7.821556157769781"><ele>451.00000000000006</ele><time>2026-04-06T09:16:29Z</time></trkpt><trkpt lat="45.08423378243998" lon="7.821697781357994"><ele>451.0</ele><time>2026-04-06T09:16:31Z</time></trkpt><trkpt lat="45.084319591128356" lon="7.821798472463155"><ele>450.57142857142856</ele><time>2026-04-06T09:16:33Z</time></trkpt><trkpt lat="45.08438236337143" lon="7.821864367144086"><ele>450.14285714285717</ele><time>2026-04-06T09:16:35Z</time></trkpt><trkpt lat="45.084438062562725" lon="7.821918811468537"><ele>449.7142857142857</ele><time>2026-04-06T09:16:37Z</time></trkpt><trkpt lat="45.08448623015096" lon="7.821978995248882"><ele>449.2857142857143</ele><time>2026-04-06T09:16:40Z</time></trkpt><trkpt lat="45.08454211966184" lon="7.822047960750037"><ele>448.8571428571429</ele><time>2026-04-06T09:16:45Z</time></trkpt><trkpt lat="45.08459302318802" lon="7.8221166071513775"><ele>448.42857142857144</ele><time>2026-04-06T09:16:49Z</time></trkpt><trkpt lat="45.08463728560235" lon="7.822201761115947"><ele>448.0</ele><time>2026-04-06T09:16:52Z</time></trkpt><trkpt lat="45.084655848115034" lon="7.822294139490999"><ele>448.0</ele><time>2026-04-06T09:16:55Z</time></trkpt><trkpt lat="45.08468122792543" lon="7.8224062754576895"><ele>448.0</ele><time>2026-04-06T09:16:59Z</time></trkpt><trkpt lat="45.08470962024129" lon="7.822508110882727"><ele>448.0</ele><time>2026-04-06T09:17:03Z</time></trkpt><trkpt lat="45.08473780734173" lon="7.8225904174543714"><ele>448.0</ele><time>2026-04-06T09:17:07Z</time></trkpt><trkpt lat="45.084762307160055" lon="7.822685750332231"><ele>448.0</ele><time>2026-04-06T09:17:12Z</time></trkpt><trkpt lat="45.084783423223115" lon="7.822774321649793"><ele>448.0</ele><time>2026-04-06T09:17:17Z</time></trkpt><trkpt lat="45.0848164988432" lon="7.822862819601215"><ele>448.0</ele><time>2026-04-06T09:17:22Z</time></trkpt><trkpt lat="45.084841055337556" lon="7.8229884780984165"><ele>449.79999999999995</ele><time>2026-04-06T09:17:25Z</time></trkpt><trkpt lat="45.08488929469705" lon="7.8231023886581665"><ele>451.59999999999997</ele><time>2026-04-06T09:17:27Z</time></trkpt><trkpt lat="45.0849379426232" lon="7.823219559222618"><ele>453.40000000000003</ele><time>2026-04-06T09:17:29Z</time></trkpt><trkpt lat="45.08501916003945" lon="7.823365981326919"><ele>455.20000000000005</ele><time>2026-04-06T09:17:31Z</time></trkpt><trkpt lat="45.0850614450984" lon="7.823438012825744"><ele>457.0</ele><time>2026-04-06T09:17:32Z</time></trkpt><trkpt lat="45.0851147560935" lon="7.823506973791286"><ele>460.1666666666667</ele><time>2026-04-06T09:17:33Z</time></trkpt><trkpt lat="45.08516782412171" lon="7.823581942528855"><ele>463.33333333333337</ele><time>2026-04-06T09:17:34Z</time></trkpt><trkpt lat="45.085218903123" lon="7.823658623276039"><ele>466.5</ele><time>2026-04-06T09:17:35Z</time></trkpt><trkpt lat="45.085281940245686" lon="7.823810971464954"><ele>469.66666666666663</ele><time>2026-04-06T09:17:37Z</time></trkpt><trkpt lat="45.0853164968518" lon="7.823894886141551"><ele>472.8333333333333</ele><time>2026-04-06T09:17:38Z</time></trkpt><trkpt lat="45.0853343386963" lon="7.823986432522961"><ele>476.0</ele><time>2026-04-06T09:17:39Z</time></trkpt><trkpt lat="45.085340289847466" lon="7.824089788509206"><ele>475.99999999999994</ele><time>2026-04-06T09:17:40Z</time></trkpt><trkpt lat="45.0853358648276" lon="7.824207288809653"><ele>476.0</ele><time>2026-04-06T09:17:41Z</time></trkpt><trkpt lat="45.08533105957357" lon="7.824324410106483"><ele>476.0</ele><time>2026-04-06T09:17:42Z</time></trkpt><trkpt lat="45.08532584352595" lon="7.824427860542766"><ele>476.0</ele><time>2026-04-06T09:17:43Z</time></trkpt><trkpt lat="45.08530958409059" lon="7.824531294029428"><ele>475.99999999999994</ele><time>2026-04-06T09:17:44Z</time></trkpt><trkpt lat="45.08532066804519" lon="7.824642099442071"><ele>476.0</ele><time>2026-04-06T09:17:45Z</time></trkpt><trkpt lat="45.08533281862441" lon="7.824743645529656"><ele>475.49999999999994</ele><time>2026-04-06T09:17:46Z</time></trkpt><trkpt lat="45.08536927070469" lon="7.824838113648739"><ele>475.0</ele><time>2026-04-06T09:17:47Z</time></trkpt><trkpt lat="45.0853839534842" lon="7.82493894561716"><ele>474.5</ele><time>2026-04-06T09:17:48Z</time></trkpt><trkpt lat="45.08548087933304" lon="7.824960657065898"><ele>474.0</ele><time>2026-04-06T09:17:49Z</time></trkpt><trkpt lat="45.085528891124234" lon="7.825019365490842"><ele>473.49999999999994</ele><time>2026-04-06T09:17:50Z</time></trkpt><trkpt lat="45.0856330968152" lon="7.825063208513351"><ele>473.0</ele><time>2026-04-06T09:17:52Z</time></trkpt><trkpt lat="45.08573204341923" lon="7.825069075003739"><ele>470.66666666666663</ele><time>2026-04-06T09:17:54Z</time></trkpt><trkpt lat="45.085831863768554" lon="7.825066983713308"><ele>468.3333333333333</ele><time>2026-04-06T09:17:56Z</time></trkpt><trkpt lat="45.085918976920546" lon="7.825093260589966"><ele>466.0</ele><time>2026-04-06T09:17:58Z</time></trkpt><trkpt lat="45.086002213596075" lon="7.82519876075274"><ele>463.66666666666663</ele><time>2026-04-06T09:18:00Z</time></trkpt><trkpt lat="45.086031826665526" lon="7.8252787648222215"><ele>461.3333333333333</ele><time>2026-04-06T09:18:01Z</time></trkpt><trkpt lat="45.08605119960425" lon="7.825375596112057"><ele>459.0</ele><time>2026-04-06T09:18:02Z</time></trkpt><trkpt lat="45.08605567959664" lon="7.825481527647048"><ele>458.0</ele><time>2026-04-06T09:18:03Z</time></trkpt><trkpt lat="45.086060854915374" lon="7.825585372363739"><ele>457.0</ele><time>2026-04-06T09:18:04Z</time></trkpt><trkpt lat="45.086073365205905" lon="7.825691057876959"><ele>456.0</ele><time>2026-04-06T09:18:05Z</time></trkpt><trkpt lat="45.08608125663006" lon="7.8257931343555835"><ele>455.0</ele><time>2026-04-06T09:18:06Z</time></trkpt><trkpt lat="45.08609725220599" lon="7.8258920402104035"><ele>454.0</ele><time>2026-04-06T09:18:07Z</time></trkpt><trkpt lat="45.08612106382448" lon="7.825986512063201"><ele>453.0</ele><time>2026-04-06T09:18:08Z</time></trkpt><trkpt lat="45.08614692991063" lon="7.826068657745752"><ele>452.0</ele><time>2026-04-06T09:18:09Z</time></trkpt><trkpt lat="45.08620525938947" lon="7.826188941486827"><ele>449.0</ele><time>2026-04-06T09:18:11Z</time></trkpt><trkpt lat="45.08623745208104" lon="7.826330984049569"><ele>446.00000000000006</ele><time>2026-04-06T09:18:13Z</time></trkpt><trkpt lat="45.08622407558553" lon="7.826456110880685"><ele>443.00000000000006</ele><time>2026-04-06T09:18:15Z</time></trkpt><trkpt lat="45.08621092225433" lon="7.826597930171803"><ele>440.0</ele><time>2026-04-06T09:18:17Z</time></trkpt><trkpt lat="45.086208426509856" lon="7.826737988491206"><ele>437.0</ele><time>2026-04-06T09:18:19Z</time></trkpt><trkpt lat="45.086283830425565" lon="7.826805879477837"><ele>434.49999999999994</ele><time>2026-04-06T09:18:20Z</time></trkpt><trkpt lat="45.08631598747526" lon="7.826894536097608"><ele>432.0</ele><time>2026-04-06T09:18:21Z</time></trkpt><trkpt lat="45.08640286917497" lon="7.8270310076556475"><ele>429.5</ele><time>2026-04-06T09:18:23Z</time></trkpt><trkpt lat="45.08643885746409" lon="7.827123900956537"><ele>427.0</ele><time>2026-04-06T09:18:24Z</time></trkpt><trkpt lat="45.08647733435099" lon="7.827203161787216"><ele>424.49999999999994</ele><time>2026-04-06T09:18:25Z</time></trkpt><trkpt lat="45.08651696945452" lon="7.82728633844333"><ele>422.0</ele><time>2026-04-06T09:18:26Z</time></trkpt><trkpt lat="45.08654890984105" lon="7.827364554120659"><ele>422.0</ele><time>2026-04-06T09:18:27Z</time></trkpt><trkpt lat="45.08659007779191" lon="7.827504323071672"><ele>422.0</ele><time>2026-04-06T09:18:29Z</time></trkpt><trkpt lat="45.08656470862472" lon="7.827658145291823"><ele>422.0</ele><time>2026-04-06T09:18:31Z</time></trkpt><trkpt lat="45.08654465677431" lon="7.827789273262875"><ele>422.0</ele><time>2026-04-06T09:18:33Z</time></trkpt><trkpt lat="45.08651488897722" lon="7.827871087628155"><ele>422.0</ele><time>2026-04-06T09:18:34Z</time></trkpt><trkpt lat="45.086453739394415" lon="7.828014230440662"><ele>422.8</ele><time>2026-04-06T09:18:36Z</time></trkpt><trkpt lat="45.08638813683513" lon="7.828141573002578"><ele>423.6</ele><time>2026-04-06T09:18:38Z</time></trkpt><trkpt lat="45.08631403738351" lon="7.828265967144374"><ele>424.40000000000003</ele><time>2026-04-06T09:18:40Z</time></trkpt><trkpt lat="45.08624025480086" lon="7.828371894811188"><ele>425.20000000000005</ele><time>2026-04-06T09:18:42Z</time></trkpt><trkpt lat="45.08616330157192" lon="7.828465980548395"><ele>426.0</ele><time>2026-04-06T09:18:44Z</time></trkpt><trkpt lat="45.0861175219532" lon="7.828543782563926"><ele>426.0</ele><time>2026-04-06T09:18:45Z</time></trkpt><trkpt lat="45.08607147547289" lon="7.82861412059987"><ele>426.0</ele><time>2026-04-06T09:18:46Z</time></trkpt><trkpt lat="45.08601601075481" lon="7.828674218075204"><ele>426.0</ele><time>2026-04-06T09:18:47Z</time></trkpt><trkpt lat="45.08596840802264" lon="7.828739873264282"><ele>426.0</ele><time>2026-04-06T09:18:48Z</time></trkpt><trkpt lat="45.0859108640558" lon="7.828800749011177"><ele>426.0</ele><time>2026-04-06T09:18:49Z</time></trkpt><trkpt lat="45.085848748805404" lon="7.8288448227552125"><ele>426.0</ele><time>2026-04-06T09:18:50Z</time></trkpt><trkpt lat="45.08574239356571" lon="7.828914916554146"><ele>424.2857142857143</ele><time>2026-04-06T09:18:52Z</time></trkpt><trkpt lat="45.08566766064374" lon="7.828953354762645"><ele>422.57142857142856</ele><time>2026-04-06T09:18:53Z</time></trkpt><trkpt lat="45.085596950346485" lon="7.828961995982501"><ele>420.8571428571429</ele><time>2026-04-06T09:18:54Z</time></trkpt><trkpt lat="45.0855297390263" lon="7.8290039250434695"><ele>419.1428571428571</ele><time>2026-04-06T09:18:55Z</time></trkpt><trkpt lat="45.085461670166005" lon="7.829025130155657"><ele>417.42857142857144</ele><time>2026-04-06T09:18:56Z</time></trkpt><trkpt lat="45.085399277552476" lon="7.829044823527601"><ele>415.7142857142857</ele><time>2026-04-06T09:18:57Z</time></trkpt><trkpt lat="45.08532932244078" lon="7.8290724708151105"><ele>414.0</ele><time>2026-04-06T09:18:58Z</time></trkpt><trkpt lat="45.08521487100043" lon="7.829131028973778"><ele>414.0</ele><time>2026-04-06T09:19:00Z</time></trkpt><trkpt lat="45.085095641935446" lon="7.829184980675277"><ele>414.0</ele><time>2026-04-06T09:19:02Z</time></trkpt><trkpt lat="45.08503890693483" lon="7.82922533591148"><ele>414.0</ele><time>2026-04-06T09:19:03Z</time></trkpt><trkpt lat="45.08492670990258" lon="7.82929208921063"><ele>414.0</ele><time>2026-04-06T09:19:05Z</time></trkpt><trkpt lat="45.08486875573418" lon="7.829345718903308"><ele>414.0</ele><time>2026-04-06T09:19:06Z</time></trkpt><trkpt lat="45.08480521014468" lon="7.829395309538191"><ele>414.79999999999995</ele><time>2026-04-06T09:19:07Z</time></trkpt><trkpt lat="45.08473458146792" lon="7.829441179299188"><ele>415.59999999999997</ele><time>2026-04-06T09:19:08Z</time></trkpt><trkpt lat="45.084598050902166" lon="7.829542041044537"><ele>416.4</ele><time>2026-04-06T09:19:10Z</time></trkpt><trkpt lat="45.08453133383883" lon="7.829596714427514"><ele>417.2</ele><time>2026-04-06T09:19:11Z</time></trkpt><trkpt lat="45.08445402488398" lon="7.829649995047096"><ele>418.0</ele><time>2026-04-06T09:19:12Z</time></trkpt><trkpt lat="45.08438076708982" lon="7.829695723196998"><ele>418.00000000000006</ele><time>2026-04-06T09:19:13Z</time></trkpt><trkpt lat="45.084306531072905" lon="7.829743376409251"><ele>418.0</ele><time>2026-04-06T09:19:14Z</time></trkpt><trkpt lat="45.084225586575386" lon="7.829765425142356"><ele>418.0</ele><time>2026-04-06T09:19:15Z</time></trkpt><trkpt lat="45.084165025374936" lon="7.829803956044989"><ele>418.0</ele><time>2026-04-06T09:19:16Z</time></trkpt><trkpt lat="45.08406651896632" lon="7.829833616391463"><ele>418.00000000000006</ele><time>2026-04-06T09:19:18Z</time></trkpt><trkpt lat="45.08396394803795" lon="7.829858145272387"><ele>418.0</ele><time>2026-04-06T09:19:20Z</time></trkpt><trkpt lat="45.08387909848027" lon="7.82987601765175"><ele>415.4</ele><time>2026-04-06T09:19:22Z</time></trkpt><trkpt lat="45.08380637037845" lon="7.82990040291532"><ele>412.79999999999995</ele><time>2026-04-06T09:19:24Z</time></trkpt><trkpt lat="45.08372758674654" lon="7.8298926186947915"><ele>410.2</ele><time>2026-04-06T09:19:26Z</time></trkpt><trkpt lat="45.08364085633926" lon="7.829894105677229"><ele>407.6</ele><time>2026-04-06T09:19:28Z</time></trkpt><trkpt lat="45.08352872279862" lon="7.829908225164358"><ele>405.0</ele><time>2026-04-06T09:19:30Z</time></trkpt><trkpt lat="45.08351207378527" lon="7.830079819816932"><ele>403.2</ele><time>2026-04-06T09:19:34Z</time></trkpt><trkpt lat="45.08355314996636" lon="7.830160235546089"><ele>401.4</ele><time>2026-04-06T09:19:36Z</time></trkpt><trkpt lat="45.08363868957332" lon="7.830235949395086"><ele>399.6</ele><time>2026-04-06T09:19:38Z</time></trkpt><trkpt lat="45.083711509024134" lon="7.830346666842246"><ele>397.8</ele><time>2026-04-06T09:19:40Z</time></trkpt><trkpt lat="45.083775803569836" lon="7.830458485205164"><ele>396.0</ele><time>2026-04-06T09:19:42Z</time></trkpt><trkpt lat="45.083846589971735" lon="7.830578478486347"><ele>396.0</ele><time>2026-04-06T09:19:44Z</time></trkpt><trkpt lat="45.08391917247048" lon="7.830691695174038"><ele>396.0</ele><time>2026-04-06T09:19:46Z</time></trkpt><trkpt lat="45.08396788848884" lon="7.830821600365993"><ele>396.0</ele><time>2026-04-06T09:19:48Z</time></trkpt><trkpt lat="45.08401619160364" lon="7.830952902192785"><ele>396.0</ele><time>2026-04-06T09:19:50Z</time></trkpt><trkpt lat="45.08406649344992" lon="7.831098983277747"><ele>396.0</ele><time>2026-04-06T09:19:52Z</time></trkpt><trkpt lat="45.08408520635943" lon="7.831185228352459"><ele>396.3333333333333</ele><time>2026-04-06T09:19:53Z</time></trkpt><trkpt lat="45.08411733555262" lon="7.831344630306598"><ele>396.66666666666663</ele><time>2026-04-06T09:19:55Z</time></trkpt><trkpt lat="45.08414338839653" lon="7.8315134991591755"><ele>397.0</ele><time>2026-04-06T09:19:57Z</time></trkpt><trkpt lat="45.084173809820996" lon="7.831596447968371"><ele>397.3333333333333</ele><time>2026-04-06T09:19:58Z</time></trkpt><trkpt lat="45.08419480036646" lon="7.831689537645591"><ele>397.66666666666663</ele><time>2026-04-06T09:19:59Z</time></trkpt><trkpt lat="45.08422626872071" lon="7.8317737171545945"><ele>398.0</ele><time>2026-04-06T09:20:00Z</time></trkpt><trkpt lat="45.08428085924149" lon="7.831863788217687"><ele>398.0</ele><time>2026-04-06T09:20:01Z</time></trkpt><trkpt lat="45.08434123463571" lon="7.831914141044231"><ele>398.0</ele><time>2026-04-06T09:20:02Z</time></trkpt><trkpt lat="45.08448309798241" lon="7.831885286435318"><ele>398.0</ele><time>2026-04-06T09:20:04Z</time></trkpt><trkpt lat="45.08455541932422" lon="7.831860359778554"><ele>398.0</ele><time>2026-04-06T09:20:05Z</time></trkpt><trkpt lat="45.084671051954736" lon="7.8318066869653835"><ele>398.0</ele><time>2026-04-06T09:20:07Z</time></trkpt><trkpt lat="45.084734691178426" lon="7.831792593353199"><ele>399.57142857142856</ele><time>2026-04-06T09:20:08Z</time></trkpt><trkpt lat="45.084797417232686" lon="7.831783756502479"><ele>401.1428571428571</ele><time>2026-04-06T09:20:09Z</time></trkpt><trkpt lat="45.08486593751967" lon="7.831780081234583"><ele>402.71428571428567</ele><time>2026-04-06T09:20:10Z</time></trkpt><trkpt lat="45.08493703322805" lon="7.831776969821525"><ele>404.2857142857143</ele><time>2026-04-06T09:20:11Z</time></trkpt><trkpt lat="45.08501215075291" lon="7.831772813296487"><ele>405.8571428571429</ele><time>2026-04-06T09:20:12Z</time></trkpt><trkpt lat="45.085090773407586" lon="7.831764735551991"><ele>407.4285714285714</ele><time>2026-04-06T09:20:13Z</time></trkpt><trkpt lat="45.085176888897344" lon="7.831731591469374"><ele>409.0</ele><time>2026-04-06T09:20:14Z</time></trkpt><trkpt lat="45.085268651711154" lon="7.831725022395649"><ele>408.83333333333337</ele><time>2026-04-06T09:20:15Z</time></trkpt><trkpt lat="45.085359671646046" lon="7.831701566720339"><ele>408.6666666666667</ele><time>2026-04-06T09:20:16Z</time></trkpt><trkpt lat="45.085436572585934" lon="7.83170560275175"><ele>408.5</ele><time>2026-04-06T09:20:17Z</time></trkpt><trkpt lat="45.085503905565545" lon="7.831693358372634"><ele>408.33333333333337</ele><time>2026-04-06T09:20:18Z</time></trkpt><trkpt lat="45.085605131182696" lon="7.8317080975970335"><ele>408.1666666666667</ele><time>2026-04-06T09:20:19Z</time></trkpt><trkpt lat="45.08569573228499" lon="7.8317072476017815"><ele>408.0</ele><time>2026-04-06T09:20:20Z</time></trkpt><trkpt lat="45.08578284498492" lon="7.831679169709846"><ele>408.0</ele><time>2026-04-06T09:20:21Z</time></trkpt><trkpt lat="45.08585150645286" lon="7.831644957299442"><ele>408.0</ele><time>2026-04-06T09:20:22Z</time></trkpt><trkpt lat="45.08592820787455" lon="7.83160794496681"><ele>408.0</ele><time>2026-04-06T09:20:23Z</time></trkpt><trkpt lat="45.08600606809525" lon="7.8315738108262885"><ele>408.0</ele><time>2026-04-06T09:20:24Z</time></trkpt><trkpt lat="45.086091645698545" lon="7.8315371314431985"><ele>408.0</ele><time>2026-04-06T09:20:25Z</time></trkpt><trkpt lat="45.08616593355407" lon="7.83148695479712"><ele>408.0</ele><time>2026-04-06T09:20:26Z</time></trkpt><trkpt lat="45.086241210040335" lon="7.831439474625258"><ele>408.0</ele><time>2026-04-06T09:20:27Z</time></trkpt><trkpt lat="45.08631622780581" lon="7.8313928389964245"><ele>408.0</ele><time>2026-04-06T09:20:28Z</time></trkpt><trkpt lat="45.086375585438475" lon="7.831334115532021"><ele>408.0</ele><time>2026-04-06T09:20:29Z</time></trkpt><trkpt lat="45.086445310458174" lon="7.831279223316128"><ele>408.0</ele><time>2026-04-06T09:20:30Z</time></trkpt><trkpt lat="45.086504315772146" lon="7.831207956089805"><ele>408.0</ele><time>2026-04-06T09:20:31Z</time></trkpt><trkpt lat="45.086595328255974" lon="7.831155420598637"><ele>408.0</ele><time>2026-04-06T09:20:32Z</time></trkpt><trkpt lat="45.08672304899324" lon="7.8312365836637055"><ele>408.4</ele><time>2026-04-06T09:20:34Z</time></trkpt><trkpt lat="45.0867536387887" lon="7.831340711799252"><ele>408.79999999999995</ele><time>2026-04-06T09:20:35Z</time></trkpt><trkpt lat="45.08675994553937" lon="7.831453146427645"><ele>409.2</ele><time>2026-04-06T09:20:36Z</time></trkpt><trkpt lat="45.086762378087165" lon="7.831607159499152"><ele>409.6</ele><time>2026-04-06T09:20:38Z</time></trkpt><trkpt lat="45.08675966958497" lon="7.831764799394286"><ele>410.0</ele><time>2026-04-06T09:20:40Z</time></trkpt><trkpt lat="45.086764770865244" lon="7.831910953381572"><ele>408.66666666666663</ele><time>2026-04-06T09:20:42Z</time></trkpt><trkpt lat="45.086782995726935" lon="7.83204241628141"><ele>407.3333333333333</ele><time>2026-04-06T09:20:44Z</time></trkpt><trkpt lat="45.0868034218428" lon="7.8321648738288285"><ele>406.0</ele><time>2026-04-06T09:20:46Z</time></trkpt><trkpt lat="45.08684694737893" lon="7.832284709117439"><ele>404.66666666666663</ele><time>2026-04-06T09:20:48Z</time></trkpt><trkpt lat="45.086904687504834" lon="7.832379853056804"><ele>403.3333333333333</ele><time>2026-04-06T09:20:50Z</time></trkpt><trkpt lat="45.08695774311145" lon="7.8324602390051865"><ele>402.0</ele><time>2026-04-06T09:20:52Z</time></trkpt><trkpt lat="45.087019804121766" lon="7.832528998211584"><ele>402.0</ele><time>2026-04-06T09:20:54Z</time></trkpt><trkpt lat="45.08710949219608" lon="7.8326097649687165"><ele>402.0</ele><time>2026-04-06T09:20:56Z</time></trkpt><trkpt lat="45.0872344587054" lon="7.83267816706567"><ele>402.0</ele><time>2026-04-06T09:20:58Z</time></trkpt><trkpt lat="45.087302040155464" lon="7.832726293552172"><ele>402.0</ele><time>2026-04-06T09:20:59Z</time></trkpt><trkpt lat="45.08736584781112" lon="7.832755226315178"><ele>402.0</ele><time>2026-04-06T09:21:00Z</time></trkpt><trkpt lat="45.08743560020969" lon="7.832791917361502"><ele>401.5</ele><time>2026-04-06T09:21:01Z</time></trkpt><trkpt lat="45.08749979028945" lon="7.832827486634735"><ele>401.0</ele><time>2026-04-06T09:21:02Z</time></trkpt><trkpt lat="45.087626002360096" lon="7.8329102346928945"><ele>400.5</ele><time>2026-04-06T09:21:04Z</time></trkpt><trkpt lat="45.08769473863413" lon="7.832941899091584"><ele>400.0</ele><time>2026-04-06T09:21:05Z</time></trkpt><trkpt lat="45.08776980412039" lon="7.832984013346094"><ele>399.5</ele><time>2026-04-06T09:21:06Z</time></trkpt><trkpt lat="45.08783836313977" lon="7.832990015127901"><ele>399.0</ele><time>2026-04-06T09:21:07Z</time></trkpt><trkpt lat="45.08792899706035" lon="7.833025983775543"><ele>399.0</ele><time>2026-04-06T09:21:08Z</time></trkpt><trkpt lat="45.08801369013844" lon="7.833063808304135"><ele>399.0</ele><time>2026-04-06T09:21:09Z</time></trkpt><trkpt lat="45.08808135706799" lon="7.833060836225575"><ele>399.0</ele><time>2026-04-06T09:21:10Z</time></trkpt><trkpt lat="45.08815562293572" lon="7.833065896219348"><ele>399.0</ele><time>2026-04-06T09:21:11Z</time></trkpt><trkpt lat="45.08822809757399" lon="7.833077141943585"><ele>399.0</ele><time>2026-04-06T09:21:12Z</time></trkpt><trkpt lat="45.088296342574395" lon="7.833082003763666"><ele>399.0</ele><time>2026-04-06T09:21:13Z</time></trkpt><trkpt lat="45.088364752862425" lon="7.833092871297069"><ele>399.0</ele><time>2026-04-06T09:21:14Z</time></trkpt><trkpt lat="45.08843137424166" lon="7.833102416548368"><ele>400.8333333333333</ele><time>2026-04-06T09:21:15Z</time></trkpt><trkpt lat="45.08850150072904" lon="7.833117358036815"><ele>402.66666666666663</ele><time>2026-04-06T09:21:16Z</time></trkpt><trkpt lat="45.088628124846004" lon="7.83310984714834"><ele>404.5</ele><time>2026-04-06T09:21:18Z</time></trkpt><trkpt lat="45.088691640500805" lon="7.833112171197889"><ele>406.3333333333333</ele><time>2026-04-06T09:21:19Z</time></trkpt><trkpt lat="45.08876842722549" lon="7.833115701845217"><ele>408.16666666666663</ele><time>2026-04-06T09:21:20Z</time></trkpt><trkpt lat="45.08884318200703" lon="7.833141762494138"><ele>410.0</ele><time>2026-04-06T09:21:21Z</time></trkpt><trkpt lat="45.0889090894613" lon="7.833182114024578"><ele>410.0</ele><time>2026-04-06T09:21:22Z</time></trkpt><trkpt lat="45.088970869633926" lon="7.8332250183635646"><ele>410.0</ele><time>2026-04-06T09:21:23Z</time></trkpt><trkpt lat="45.08905937380325" lon="7.833352335395496"><ele>410.0</ele><time>2026-04-06T09:21:25Z</time></trkpt><trkpt lat="45.08910539715887" lon="7.8334141152709655"><ele>410.0</ele><time>2026-04-06T09:21:26Z</time></trkpt><trkpt lat="45.08919687773225" lon="7.8335267880796255"><ele>410.0</ele><time>2026-04-06T09:21:28Z</time></trkpt><trkpt lat="45.08928612471156" lon="7.833613034265089"><ele>411.4</ele><time>2026-04-06T09:21:30Z</time></trkpt><trkpt lat="45.08933503223051" lon="7.833673957267156"><ele>412.8</ele><time>2026-04-06T09:21:31Z</time></trkpt><trkpt lat="45.08943554148259" lon="7.833772480414525"><ele>414.20000000000005</ele><time>2026-04-06T09:21:33Z</time></trkpt><trkpt lat="45.08949659216368" lon="7.8338190254306275"><ele>415.6</ele><time>2026-04-06T09:21:34Z</time></trkpt><trkpt lat="45.089570523039" lon="7.833933431240784"><ele>417.0</ele><time>2026-04-06T09:21:36Z</time></trkpt><trkpt lat="45.0896402360172" lon="7.834032342212857"><ele>417.0</ele><time>2026-04-06T09:21:38Z</time></trkpt><trkpt lat="45.08971310847735" lon="7.834136077882162"><ele>417.0</ele><time>2026-04-06T09:21:40Z</time></trkpt><trkpt lat="45.08980519851608" lon="7.8341527738257835"><ele>417.0</ele><time>2026-04-06T09:21:42Z</time></trkpt><trkpt lat="45.08989973100181" lon="7.8341673676797585"><ele>417.0</ele><time>2026-04-06T09:21:44Z</time></trkpt><trkpt lat="45.09000863571408" lon="7.83419244085992"><ele>417.0</ele><time>2026-04-06T09:21:46Z</time></trkpt><trkpt lat="45.090112700717825" lon="7.834226456800602"><ele>415.0</ele><time>2026-04-06T09:21:48Z</time></trkpt><trkpt lat="45.09021694264178" lon="7.8342714544668075"><ele>413.0</ele><time>2026-04-06T09:21:50Z</time></trkpt><trkpt lat="45.09030730396053" lon="7.834333108593488"><ele>411.0</ele><time>2026-04-06T09:21:52Z</time></trkpt><trkpt lat="45.09038571452508" lon="7.834387561315466"><ele>409.0</ele><time>2026-04-06T09:21:54Z</time></trkpt><trkpt lat="45.09047183109174" lon="7.834450581295864"><ele>407.0</ele><time>2026-04-06T09:21:56Z</time></trkpt><trkpt lat="45.09054928021139" lon="7.834498592199709"><ele>406.8333333333333</ele><time>2026-04-06T09:21:58Z</time></trkpt><trkpt lat="45.09062938386493" lon="7.834554199621443"><ele>406.66666666666663</ele><time>2026-04-06T09:22:00Z</time></trkpt><trkpt lat="45.09070968807571" lon="7.834597273159877"><ele>406.5</ele><time>2026-04-06T09:22:02Z</time></trkpt><trkpt lat="45.09078526417941" lon="7.834629273122989"><ele>406.33333333333337</ele><time>2026-04-06T09:22:04Z</time></trkpt><trkpt lat="45.090861853561435" lon="7.834645739036217"><ele>406.1666666666667</ele><time>2026-04-06T09:22:06.001Z</time></trkpt><trkpt lat="45.090937349919564" lon="7.8346700870349215"><ele>406.0</ele><time>2026-04-06T09:22:08.001Z</time></trkpt><trkpt lat="45.091075635027266" lon="7.834632807969878"><ele>405.83333333333337</ele><time>2026-04-06T09:22:11.001Z</time></trkpt><trkpt lat="45.09115394148259" lon="7.834494357764939"><ele>405.6666666666667</ele><time>2026-04-06T09:22:13.001Z</time></trkpt><trkpt lat="45.091189553404945" lon="7.8344095342078015"><ele>405.5</ele><time>2026-04-06T09:22:14.001Z</time></trkpt><trkpt lat="45.09122490017234" lon="7.834321394876697"><ele>405.33333333333337</ele><time>2026-04-06T09:22:15.001Z</time></trkpt><trkpt lat="45.09125278402415" lon="7.834228820300242"><ele>405.1666666666667</ele><time>2026-04-06T09:22:16.001Z</time></trkpt><trkpt lat="45.091269877944775" lon="7.834137439636032"><ele>405.0</ele><time>2026-04-06T09:22:17.001Z</time></trkpt><trkpt lat="45.091287106979486" lon="7.834037841809071"><ele>404.5</ele><time>2026-04-06T09:22:18.001Z</time></trkpt><trkpt lat="45.09130640104373" lon="7.833940612578385"><ele>404.0</ele><time>2026-04-06T09:22:19.001Z</time></trkpt><trkpt lat="45.09132329080442" lon="7.83384535982509"><ele>403.5</ele><time>2026-04-06T09:22:20.001Z</time></trkpt><trkpt lat="45.09134285151582" lon="7.833757635263671"><ele>403.0</ele><time>2026-04-06T09:22:21.001Z</time></trkpt><trkpt lat="45.09140166359409" lon="7.833601794271908"><ele>402.5</ele><time>2026-04-06T09:22:23.001Z</time></trkpt><trkpt lat="45.09145264678548" lon="7.833536615447748"><ele>402.0</ele><time>2026-04-06T09:22:24.001Z</time></trkpt><trkpt lat="45.09153577976254" lon="7.833468640978872"><ele>401.0</ele><time>2026-04-06T09:22:25.001Z</time></trkpt><trkpt lat="45.09161794085398" lon="7.833475492496747"><ele>400.0</ele><time>2026-04-06T09:22:26.001Z</time></trkpt><trkpt lat="45.09169800135244" lon="7.83343838141861"><ele>399.0</ele><time>2026-04-06T09:22:27.001Z</time></trkpt><trkpt lat="45.09179302613306" lon="7.833396702982933"><ele>398.0</ele><time>2026-04-06T09:22:28.001Z</time></trkpt><trkpt lat="45.09188654765826" lon="7.833355727989675"><ele>397.0</ele><time>2026-04-06T09:22:29.001Z</time></trkpt><trkpt lat="45.09199706892955" lon="7.833293871787637"><ele>397.0</ele><time>2026-04-06T09:22:30.001Z</time></trkpt><trkpt lat="45.0921026259887" lon="7.833262571787109"><ele>397.0</ele><time>2026-04-06T09:22:31.001Z</time></trkpt><trkpt lat="45.09219642959808" lon="7.833219427504516"><ele>397.0</ele><time>2026-04-06T09:22:32Z</time></trkpt><trkpt lat="45.09227052332342" lon="7.833185942496545"><ele>397.0</ele><time>2026-04-06T09:22:33Z</time></trkpt><trkpt lat="45.09238708223828" lon="7.833128756844821"><ele>397.0</ele><time>2026-04-06T09:22:34Z</time></trkpt><trkpt lat="45.092491936655655" lon="7.833073187359506"><ele>397.20000000000005</ele><time>2026-04-06T09:22:35Z</time></trkpt><trkpt lat="45.09258928674587" lon="7.833006868266338"><ele>397.4</ele><time>2026-04-06T09:22:36Z</time></trkpt><trkpt lat="45.092682670572806" lon="7.832932933576657"><ele>397.6</ele><time>2026-04-06T09:22:37Z</time></trkpt><trkpt lat="45.09276442811875" lon="7.832865455175585"><ele>397.79999999999995</ele><time>2026-04-06T09:22:38Z</time></trkpt><trkpt lat="45.092845744379055" lon="7.832772985676588"><ele>398.0</ele><time>2026-04-06T09:22:39Z</time></trkpt><trkpt lat="45.092926381862235" lon="7.8327131034789845"><ele>397.99999999999994</ele><time>2026-04-06T09:22:40Z</time></trkpt><trkpt lat="45.0929977976016" lon="7.832650372386628"><ele>398.0</ele><time>2026-04-06T09:22:41Z</time></trkpt><trkpt lat="45.09306296504696" lon="7.832595537705347"><ele>398.0</ele><time>2026-04-06T09:22:42Z</time></trkpt><trkpt lat="45.09312490707505" lon="7.832543667746851"><ele>398.0</ele><time>2026-04-06T09:22:43Z</time></trkpt><trkpt lat="45.093186572013146" lon="7.832485730459086"><ele>397.99999999999994</ele><time>2026-04-06T09:22:44Z</time></trkpt><trkpt lat="45.09326043953691" lon="7.832385745297196"><ele>398.0</ele><time>2026-04-06T09:22:46Z</time></trkpt><trkpt lat="45.09321860971017" lon="7.8322361516256525"><ele>394.8333333333333</ele><time>2026-04-06T09:22:48Z</time></trkpt><trkpt lat="45.09313769644657" lon="7.83221550448566"><ele>391.66666666666663</ele><time>2026-04-06T09:22:49Z</time></trkpt><trkpt lat="45.093058145092606" lon="7.8322944648777595"><ele>388.5</ele><time>2026-04-06T09:22:50Z</time></trkpt><trkpt lat="45.09299157439709" lon="7.832332436893917"><ele>385.3333333333333</ele><time>2026-04-06T09:22:51Z</time></trkpt><trkpt lat="45.09292313969342" lon="7.832344775000034"><ele>382.16666666666663</ele><time>2026-04-06T09:22:52Z</time></trkpt><trkpt lat="45.092847176580705" lon="7.8323707268141165"><ele>379.0</ele><time>2026-04-06T09:22:53Z</time></trkpt><trkpt lat="45.09276837847687" lon="7.832403005532684"><ele>379.0</ele><time>2026-04-06T09:22:54Z</time></trkpt><trkpt lat="45.09268581522305" lon="7.832435999890154"><ele>379.0</ele><time>2026-04-06T09:22:55Z</time></trkpt><trkpt lat="45.09258698857445" lon="7.832461857664309"><ele>379.0</ele><time>2026-04-06T09:22:56Z</time></trkpt><trkpt lat="45.09248416222079" lon="7.832497545719931"><ele>379.0</ele><time>2026-04-06T09:22:57Z</time></trkpt><trkpt lat="45.09240357704612" lon="7.832518648547817"><ele>379.0</ele><time>2026-04-06T09:22:58Z</time></trkpt><trkpt lat="45.092321907258096" lon="7.832491051653999"><ele>379.0</ele><time>2026-04-06T09:22:59Z</time></trkpt><trkpt lat="45.092256398925855" lon="7.832475124184229"><ele>379.0</ele><time>2026-04-06T09:23:00Z</time></trkpt><trkpt lat="45.09218872129123" lon="7.832391818884953"><ele>379.0</ele><time>2026-04-06T09:23:02Z</time></trkpt><trkpt lat="45.09227039783356" lon="7.832267394256902"><ele>379.0</ele><time>2026-04-06T09:23:04Z</time></trkpt><trkpt lat="45.09234915290449" lon="7.832250039453946"><ele>379.0</ele><time>2026-04-06T09:23:05Z</time></trkpt><trkpt lat="45.09242737739643" lon="7.832185311899755"><ele>379.0</ele><time>2026-04-06T09:23:06Z</time></trkpt><trkpt lat="45.09250254210548" lon="7.8320938223180825"><ele>379.0</ele><time>2026-04-06T09:23:07Z</time></trkpt><trkpt lat="45.09260182326761" lon="7.832026632470505"><ele>379.0</ele><time>2026-04-06T09:23:08Z</time></trkpt><trkpt lat="45.09268379758447" lon="7.831947684968964"><ele>379.0</ele><time>2026-04-06T09:23:09Z</time></trkpt><trkpt lat="45.092776273732014" lon="7.831849078553964"><ele>379.0</ele><time>2026-04-06T09:23:10Z</time></trkpt><trkpt lat="45.092868091456985" lon="7.831750011084201"><ele>379.0</ele><time>2026-04-06T09:23:11Z</time></trkpt><trkpt lat="45.09296566952604" lon="7.8316541086498"><ele>376.4</ele><time>2026-04-06T09:23:12Z</time></trkpt><trkpt lat="45.093062906104755" lon="7.831564710615144"><ele>373.79999999999995</ele><time>2026-04-06T09:23:13Z</time></trkpt><trkpt lat="45.09314558210298" lon="7.831479227092855"><ele>371.20000000000005</ele><time>2026-04-06T09:23:14Z</time></trkpt><trkpt lat="45.09324346739355" lon="7.831404349764257"><ele>368.6</ele><time>2026-04-06T09:23:15Z</time></trkpt><trkpt lat="45.09331528722949" lon="7.831335323479066"><ele>366.0</ele><time>2026-04-06T09:23:16Z</time></trkpt><trkpt lat="45.09339667991736" lon="7.831272403166974"><ele>366.0</ele><time>2026-04-06T09:23:17Z</time></trkpt><trkpt lat="45.0934754267877" lon="7.83123569249745"><ele>366.0</ele><time>2026-04-06T09:23:18Z</time></trkpt><trkpt lat="45.093553526978056" lon="7.831229230175466"><ele>366.0</ele><time>2026-04-06T09:23:19Z</time></trkpt><trkpt lat="45.093643658280925" lon="7.831249476132668"><ele>366.0</ele><time>2026-04-06T09:23:20Z</time></trkpt><trkpt lat="45.09372359318969" lon="7.8312775103905"><ele>366.0</ele><time>2026-04-06T09:23:21Z</time></trkpt><trkpt lat="45.09382357469797" lon="7.831327812765969"><ele>366.0</ele><time>2026-04-06T09:23:22Z</time></trkpt><trkpt lat="45.09392619454622" lon="7.831333144897533"><ele>366.0</ele><time>2026-04-06T09:23:23Z</time></trkpt><trkpt lat="45.09403509560199" lon="7.831323809406105"><ele>366.0</ele><time>2026-04-06T09:23:24Z</time></trkpt><trkpt lat="45.094132782997455" lon="7.831315621059873"><ele>366.0</ele><time>2026-04-06T09:23:25Z</time></trkpt><trkpt lat="45.094233874153616" lon="7.831273479880799"><ele>366.0</ele><time>2026-04-06T09:23:26Z</time></trkpt><trkpt lat="45.094321040120825" lon="7.831207941338724"><ele>366.0</ele><time>2026-04-06T09:23:27Z</time></trkpt><trkpt lat="45.09440174821157" lon="7.831149173019149"><ele>364.1666666666667</ele><time>2026-04-06T09:23:28Z</time></trkpt><trkpt lat="45.09446880203022" lon="7.831095219233418"><ele>362.3333333333333</ele><time>2026-04-06T09:23:29Z</time></trkpt><trkpt lat="45.09451903841039" lon="7.831041014543737"><ele>360.5</ele><time>2026-04-06T09:23:30Z</time></trkpt><trkpt lat="45.094601110865156" lon="7.83095150133908"><ele>358.66666666666663</ele><time>2026-04-06T09:23:31Z</time></trkpt><trkpt lat="45.094660354551046" lon="7.830805444810061"><ele>356.8333333333333</ele><time>2026-04-06T09:23:32Z</time></trkpt><trkpt lat="45.09468545610884" lon="7.830703554556492"><ele>355.0</ele><time>2026-04-06T09:23:33Z</time></trkpt><trkpt lat="45.094725736858834" lon="7.830572554273948"><ele>351.8</ele><time>2026-04-06T09:23:34Z</time></trkpt><trkpt lat="45.09475711928804" lon="7.8304657146464605"><ele>348.6</ele><time>2026-04-06T09:23:35Z</time></trkpt><trkpt lat="45.094793985095535" lon="7.830369418199785"><ele>345.4</ele><time>2026-04-06T09:23:36Z</time></trkpt><trkpt lat="45.09486442295458" lon="7.830260910972771"><ele>342.2</ele><time>2026-04-06T09:23:37Z</time></trkpt><trkpt lat="45.0949448594563" lon="7.830159618302594"><ele>339.0</ele><time>2026-04-06T09:23:39Z</time></trkpt><trkpt lat="45.09505584438724" lon="7.830086051934556"><ele>335.79999999999995</ele><time>2026-04-06T09:23:40Z</time></trkpt><trkpt lat="45.09517362152342" lon="7.830006098135747"><ele>332.59999999999997</ele><time>2026-04-06T09:23:42Z</time></trkpt><trkpt lat="45.095271543424474" lon="7.829990517809316"><ele>329.4</ele><time>2026-04-06T09:23:43Z</time></trkpt><trkpt lat="45.095364342117584" lon="7.829965664846814"><ele>326.2</ele><time>2026-04-06T09:23:44Z</time></trkpt><trkpt lat="45.09544138531305" lon="7.829948260423751"><ele>323.0</ele><time>2026-04-06T09:23:45Z</time></trkpt><trkpt lat="45.09552928163107" lon="7.829951902394028"><ele>323.0</ele><time>2026-04-06T09:23:46Z</time></trkpt><trkpt lat="45.09562458276369" lon="7.829979173718658"><ele>323.0</ele><time>2026-04-06T09:23:47Z</time></trkpt><trkpt lat="45.09571216182391" lon="7.830033064747606"><ele>323.0</ele><time>2026-04-06T09:23:48Z</time></trkpt><trkpt lat="45.09580793223085" lon="7.830075762235995"><ele>323.0</ele><time>2026-04-06T09:23:49Z</time></trkpt><trkpt lat="45.09590093898421" lon="7.830105618492676"><ele>323.0</ele><time>2026-04-06T09:23:50Z</time></trkpt><trkpt lat="45.09600815013619" lon="7.8301484934438355"><ele>322.83333333333337</ele><time>2026-04-06T09:23:51Z</time></trkpt><trkpt lat="45.0960936339876" lon="7.830182857955631"><ele>322.6666666666667</ele><time>2026-04-06T09:23:52Z</time></trkpt><trkpt lat="45.096170799942875" lon="7.830213233634898"><ele>322.5</ele><time>2026-04-06T09:23:53Z</time></trkpt><trkpt lat="45.096246258307254" lon="7.830247149028876"><ele>322.3333333333333</ele><time>2026-04-06T09:23:54Z</time></trkpt><trkpt lat="45.09631408570256" lon="7.830264416131608"><ele>322.16666666666663</ele><time>2026-04-06T09:23:55Z</time></trkpt><trkpt lat="45.09640444661599" lon="7.830387343754609"><ele>322.0</ele><time>2026-04-06T09:23:57Z</time></trkpt><trkpt lat="45.09641806952383" lon="7.830502046988744"><ele>322.0</ele><time>2026-04-06T09:23:58Z</time></trkpt><trkpt lat="45.09637289352019" lon="7.830626761226801"><ele>322.0</ele><time>2026-04-06T09:23:59Z</time></trkpt><trkpt lat="45.09633928079711" lon="7.830731872168439"><ele>322.0</ele><time>2026-04-06T09:24:00Z</time></trkpt><trkpt lat="45.09629120127438" lon="7.8308461955289665"><ele>322.0</ele><time>2026-04-06T09:24:01Z</time></trkpt><trkpt lat="45.0962588765907" lon="7.8309468932564155"><ele>322.0</ele><time>2026-04-06T09:24:02Z</time></trkpt><trkpt lat="45.096242271606094" lon="7.8310401945214565"><ele>322.0</ele><time>2026-04-06T09:24:03Z</time></trkpt><trkpt lat="45.09619133280446" lon="7.8312101185824465"><ele>321.16666666666663</ele><time>2026-04-06T09:24:05Z</time></trkpt><trkpt lat="45.09616588919845" lon="7.831316908998894"><ele>320.3333333333333</ele><time>2026-04-06T09:24:06Z</time></trkpt><trkpt lat="45.096147571537024" lon="7.831432730277229"><ele>319.5</ele><time>2026-04-06T09:24:07Z</time></trkpt><trkpt lat="45.09613971023462" lon="7.831529051627188"><ele>318.6666666666667</ele><time>2026-04-06T09:24:08Z</time></trkpt><trkpt lat="45.09613103853644" lon="7.831620799154718"><ele>317.83333333333337</ele><time>2026-04-06T09:24:09Z</time></trkpt><trkpt lat="45.09613947368293" lon="7.83178424277516"><ele>317.0</ele><time>2026-04-06T09:24:11Z</time></trkpt><trkpt lat="45.09615649998458" lon="7.831947006021222"><ele>316.8</ele><time>2026-04-06T09:24:13.001Z</time></trkpt><trkpt lat="45.096193033688735" lon="7.832022162129384"><ele>316.6</ele><time>2026-04-06T09:24:14.001Z</time></trkpt><trkpt lat="45.096295907155266" lon="7.832106989156671"><ele>316.40000000000003</ele><time>2026-04-06T09:24:16.001Z</time></trkpt><trkpt lat="45.09639742775634" lon="7.832168251529624"><ele>316.2</ele><time>2026-04-06T09:24:18.001Z</time></trkpt><trkpt lat="45.09650475823955" lon="7.832208390015703"><ele>316.0</ele><time>2026-04-06T09:24:20.001Z</time></trkpt><trkpt lat="45.09659613860167" lon="7.832206306953386"><ele>315.28571428571433</ele><time>2026-04-06T09:24:22.001Z</time></trkpt><trkpt lat="45.09668486551113" lon="7.8321281383672"><ele>314.57142857142856</ele><time>2026-04-06T09:24:24.001Z</time></trkpt><trkpt lat="45.096728472736146" lon="7.832061583063013"><ele>313.8571428571429</ele><time>2026-04-06T09:24:25.001Z</time></trkpt><trkpt lat="45.09676943307956" lon="7.831993153627081"><ele>313.14285714285717</ele><time>2026-04-06T09:24:26.001Z</time></trkpt><trkpt lat="45.096803343054404" lon="7.8319094555331255"><ele>312.42857142857144</ele><time>2026-04-06T09:24:27.001Z</time></trkpt><trkpt lat="45.09684080853932" lon="7.8318338730020205"><ele>311.7142857142857</ele><time>2026-04-06T09:24:28.001Z</time></trkpt><trkpt lat="45.096880084685004" lon="7.831750538472489"><ele>311.0</ele><time>2026-04-06T09:24:29.001Z</time></trkpt><trkpt lat="45.09691221394335" lon="7.83165808883388"><ele>310.57142857142856</ele><time>2026-04-06T09:24:30.001Z</time></trkpt><trkpt lat="45.09694451685805" lon="7.831567953515782"><ele>310.14285714285717</ele><time>2026-04-06T09:24:31.001Z</time></trkpt><trkpt lat="45.096985002252026" lon="7.831491476931857"><ele>309.7142857142857</ele><time>2026-04-06T09:24:32.001Z</time></trkpt><trkpt lat="45.09701635572273" lon="7.831399285794877"><ele>309.2857142857143</ele><time>2026-04-06T09:24:33.001Z</time></trkpt><trkpt lat="45.097038788363335" lon="7.831298383796274"><ele>308.8571428571429</ele><time>2026-04-06T09:24:34.001Z</time></trkpt><trkpt lat="45.097083180744065" lon="7.8312037224473094"><ele>308.42857142857144</ele><time>2026-04-06T09:24:35.001Z</time></trkpt><trkpt lat="45.097119313976435" lon="7.831108180517394"><ele>308.0</ele><time>2026-04-06T09:24:36.001Z</time></trkpt><trkpt lat="45.097159174116705" lon="7.831037098297869"><ele>308.8</ele><time>2026-04-06T09:24:37.001Z</time></trkpt><trkpt lat="45.097205648646266" lon="7.830952020498564"><ele>309.6</ele><time>2026-04-06T09:24:38.001Z</time></trkpt><trkpt lat="45.097294727823275" lon="7.830835709146495"><ele>310.4</ele><time>2026-04-06T09:24:40.001Z</time></trkpt><trkpt lat="45.09734880732508" lon="7.830781039961236"><ele>311.2</ele><time>2026-04-06T09:24:41.001Z</time></trkpt><trkpt lat="45.09742685049007" lon="7.83067193328616"><ele>312.0</ele><time>2026-04-06T09:24:43.001Z</time></trkpt><trkpt lat="45.09748705109689" lon="7.830602239349131"><ele>309.8333333333333</ele><time>2026-04-06T09:24:45.001Z</time></trkpt><trkpt lat="45.09754000241932" lon="7.830516238887816"><ele>307.6666666666667</ele><time>2026-04-06T09:24:52Z</time></trkpt><trkpt lat="45.09757119351637" lon="7.830434649876957"><ele>305.5</ele><time>2026-04-06T09:24:54Z</time></trkpt><trkpt lat="45.09757222138509" lon="7.830312362807689"><ele>303.33333333333337</ele><time>2026-04-06T09:24:56Z</time></trkpt><trkpt lat="45.097602448638376" lon="7.830191201648233"><ele>301.1666666666667</ele><time>2026-04-06T09:24:58Z</time></trkpt><trkpt lat="45.09764390015743" lon="7.830038470038137"><ele>299.0</ele><time>2026-04-06T09:25:00Z</time></trkpt><trkpt lat="45.09770673357376" lon="7.829888488500971"><ele>298.5</ele><time>2026-04-06T09:25:02Z</time></trkpt><trkpt lat="45.09774545013208" lon="7.829803682175233"><ele>298.0</ele><time>2026-04-06T09:25:03Z</time></trkpt><trkpt lat="45.09778266046535" lon="7.829710543940541"><ele>297.5</ele><time>2026-04-06T09:25:04Z</time></trkpt><trkpt lat="45.097818787843146" lon="7.829618379924319"><ele>297.0</ele><time>2026-04-06T09:25:05Z</time></trkpt><trkpt lat="45.09785821396637" lon="7.829504752899107"><ele>296.5</ele><time>2026-04-06T09:25:06Z</time></trkpt><trkpt lat="45.09789956141669" lon="7.829398061623382"><ele>296.0</ele><time>2026-04-06T09:25:07Z</time></trkpt><trkpt lat="45.097953169458606" lon="7.8292973205139536"><ele>295.6</ele><time>2026-04-06T09:25:08Z</time></trkpt><trkpt lat="45.0980027097043" lon="7.829184026793578"><ele>295.20000000000005</ele><time>2026-04-06T09:25:09Z</time></trkpt><trkpt lat="45.0980507013485" lon="7.829066894396622"><ele>294.79999999999995</ele><time>2026-04-06T09:25:10Z</time></trkpt><trkpt lat="45.098098207196635" lon="7.828956952924528"><ele>294.4</ele><time>2026-04-06T09:25:11Z</time></trkpt><trkpt lat="45.098140974912" lon="7.82881895420824"><ele>294.0</ele><time>2026-04-06T09:25:12Z</time></trkpt><trkpt lat="45.098180701598075" lon="7.828688088879525"><ele>294.0</ele><time>2026-04-06T09:25:13Z</time></trkpt><trkpt lat="45.09821965776995" lon="7.828554217830702"><ele>294.0</ele><time>2026-04-06T09:25:14Z</time></trkpt><trkpt lat="45.09826090480324" lon="7.828423748417411"><ele>294.0</ele><time>2026-04-06T09:25:15Z</time></trkpt><trkpt lat="45.09830729163238" lon="7.82829130946119"><ele>294.0</ele><time>2026-04-06T09:25:16Z</time></trkpt><trkpt lat="45.09835058360354" lon="7.8281584425458215"><ele>294.0</ele><time>2026-04-06T09:25:17Z</time></trkpt><trkpt lat="45.098397551443355" lon="7.828031557210037"><ele>295.59999999999997</ele><time>2026-04-06T09:25:18Z</time></trkpt><trkpt lat="45.09845859632518" lon="7.82791943066259"><ele>297.2</ele><time>2026-04-06T09:25:19Z</time></trkpt><trkpt lat="45.0985307122218" lon="7.8278173880523605"><ele>298.79999999999995</ele><time>2026-04-06T09:25:20Z</time></trkpt><trkpt lat="45.09860260585606" lon="7.827716495946902"><ele>300.4</ele><time>2026-04-06T09:25:21Z</time></trkpt><trkpt lat="45.09868818101606" lon="7.827647306928579"><ele>302.0</ele><time>2026-04-06T09:25:22Z</time></trkpt><trkpt lat="45.09875981287874" lon="7.827570718259272"><ele>301.2</ele><time>2026-04-06T09:25:23Z</time></trkpt><trkpt lat="45.09884149684547" lon="7.8275050165975975"><ele>300.4</ele><time>2026-04-06T09:25:24Z</time></trkpt><trkpt lat="45.09892226904836" lon="7.8274393107797"><ele>299.6</ele><time>2026-04-06T09:25:25Z</time></trkpt><trkpt lat="45.09899756086852" lon="7.827370816701009"><ele>298.8</ele><time>2026-04-06T09:25:26Z</time></trkpt><trkpt lat="45.09907923761375" lon="7.827312105776687"><ele>298.0</ele><time>2026-04-06T09:25:27Z</time></trkpt><trkpt lat="45.099160091252756" lon="7.8272548239455"><ele>298.0</ele><time>2026-04-06T09:25:28Z</time></trkpt><trkpt lat="45.09923459292549" lon="7.827190794037324"><ele>298.0</ele><time>2026-04-06T09:25:29Z</time></trkpt><trkpt lat="45.09931563397154" lon="7.827135705619656"><ele>298.0</ele><time>2026-04-06T09:25:30Z</time></trkpt><trkpt lat="45.09939160035991" lon="7.827076670028036"><ele>298.0</ele><time>2026-04-06T09:25:31Z</time></trkpt><trkpt lat="45.09946846143153" lon="7.827026530725356"><ele>298.0</ele><time>2026-04-06T09:25:32Z</time></trkpt><trkpt lat="45.09954298060108" lon="7.826966246108575"><ele>298.0</ele><time>2026-04-06T09:25:33Z</time></trkpt><trkpt lat="45.099628849266544" lon="7.826911361639083"><ele>298.0</ele><time>2026-04-06T09:25:34Z</time></trkpt><trkpt lat="45.09970448694164" lon="7.82685506654602"><ele>298.0</ele><time>2026-04-06T09:25:35Z</time></trkpt><trkpt lat="45.09978240245836" lon="7.826794404398429"><ele>298.0</ele><time>2026-04-06T09:25:36Z</time></trkpt><trkpt lat="45.09986055538734" lon="7.826735810043926"><ele>298.0</ele><time>2026-04-06T09:25:37Z</time></trkpt><trkpt lat="45.09993761705202" lon="7.826673471487127"><ele>298.0</ele><time>2026-04-06T09:25:38Z</time></trkpt><trkpt lat="45.10001269305514" lon="7.826607417376248"><ele>298.0</ele><time>2026-04-06T09:25:39Z</time></trkpt><trkpt lat="45.10008824577166" lon="7.8265466841966"><ele>296.8</ele><time>2026-04-06T09:25:40Z</time></trkpt><trkpt lat="45.10016253867784" lon="7.826464670003757"><ele>295.6</ele><time>2026-04-06T09:25:41Z</time></trkpt><trkpt lat="45.10024308732513" lon="7.8263927315597925"><ele>294.4</ele><time>2026-04-06T09:25:42Z</time></trkpt><trkpt lat="45.10031868891638" lon="7.826321914164461"><ele>293.2</ele><time>2026-04-06T09:25:43Z</time></trkpt><trkpt lat="45.100398728015385" lon="7.826247754484102"><ele>292.0</ele><time>2026-04-06T09:25:44Z</time></trkpt><trkpt lat="45.10047496753528" lon="7.82616465763221"><ele>292.0</ele><time>2026-04-06T09:25:45Z</time></trkpt><trkpt lat="45.10054822027266" lon="7.826076034276936"><ele>292.0</ele><time>2026-04-06T09:25:46Z</time></trkpt><trkpt lat="45.10062426646909" lon="7.825990959790906"><ele>292.0</ele><time>2026-04-06T09:25:47Z</time></trkpt><trkpt lat="45.10069772862895" lon="7.8259048994191405"><ele>292.0</ele><time>2026-04-06T09:25:48Z</time></trkpt><trkpt lat="45.10077418672773" lon="7.825816475612413"><ele>292.0</ele><time>2026-04-06T09:25:49Z</time></trkpt><trkpt lat="45.100848090161804" lon="7.825728058821859"><ele>291.0</ele><time>2026-04-06T09:25:50Z</time></trkpt><trkpt lat="45.100924120396144" lon="7.8256311061337405"><ele>290.0</ele><time>2026-04-06T09:25:51Z</time></trkpt><trkpt lat="45.100999162335654" lon="7.825534593901069"><ele>289.0</ele><time>2026-04-06T09:25:52Z</time></trkpt><trkpt lat="45.10107615862279" lon="7.825440450888283"><ele>288.0</ele><time>2026-04-06T09:25:53Z</time></trkpt><trkpt lat="45.10114853432525" lon="7.8253309815178875"><ele>287.0</ele><time>2026-04-06T09:25:54Z</time></trkpt><trkpt lat="45.10122295797437" lon="7.825236273663671"><ele>287.8</ele><time>2026-04-06T09:25:55Z</time></trkpt><trkpt lat="45.10127801296767" lon="7.8251092579396335"><ele>288.6</ele><time>2026-04-06T09:25:56Z</time></trkpt><trkpt lat="45.10132471122852" lon="7.824987387558553"><ele>289.40000000000003</ele><time>2026-04-06T09:25:57Z</time></trkpt><trkpt lat="45.101364963692276" lon="7.824854587079093"><ele>290.2</ele><time>2026-04-06T09:25:58Z</time></trkpt><trkpt lat="45.10139126550491" lon="7.824720023258194"><ele>291.0</ele><time>2026-04-06T09:25:59Z</time></trkpt><trkpt lat="45.10141484124473" lon="7.824608375029899"><ele>291.0</ele><time>2026-04-06T09:26:00Z</time></trkpt><trkpt lat="45.10144458636905" lon="7.824464900947057"><ele>291.0</ele><time>2026-04-06T09:26:01Z</time></trkpt><trkpt lat="45.101478023745905" lon="7.8243471663843165"><ele>291.0</ele><time>2026-04-06T09:26:02Z</time></trkpt><trkpt lat="45.101520933621174" lon="7.82422411515468"><ele>291.0</ele><time>2026-04-06T09:26:03Z</time></trkpt><trkpt lat="45.10156924959216" lon="7.824121391100155"><ele>291.0</ele><time>2026-04-06T09:26:04Z</time></trkpt><trkpt lat="45.10164906106556" lon="7.824048713198996"><ele>290.5</ele><time>2026-04-06T09:26:05Z</time></trkpt><trkpt lat="45.101722785901394" lon="7.823977995454441"><ele>290.0</ele><time>2026-04-06T09:26:06Z</time></trkpt><trkpt lat="45.101801510556896" lon="7.823912615905131"><ele>289.5</ele><time>2026-04-06T09:26:07Z</time></trkpt><trkpt lat="45.10187323633339" lon="7.823847640096749"><ele>289.0</ele><time>2026-04-06T09:26:08Z</time></trkpt><trkpt lat="45.101956098287324" lon="7.823800772606349"><ele>288.5</ele><time>2026-04-06T09:26:09Z</time></trkpt><trkpt lat="45.102038276913284" lon="7.823754134267577"><ele>288.0</ele><time>2026-04-06T09:26:10Z</time></trkpt><trkpt lat="45.10211276932746" lon="7.823704049464415"><ele>288.0</ele><time>2026-04-06T09:26:11Z</time></trkpt><trkpt lat="45.10218833106623" lon="7.823655307792366"><ele>288.0</ele><time>2026-04-06T09:26:12Z</time></trkpt><trkpt lat="45.102265896691016" lon="7.823611186502812"><ele>288.0</ele><time>2026-04-06T09:26:13Z</time></trkpt><trkpt lat="45.102340450975426" lon="7.823556788745087"><ele>288.0</ele><time>2026-04-06T09:26:14Z</time></trkpt><trkpt lat="45.102424906652686" lon="7.823500947196423"><ele>288.0</ele><time>2026-04-06T09:26:15Z</time></trkpt><trkpt lat="45.102491451477846" lon="7.823470337204244"><ele>288.0</ele><time>2026-04-06T09:26:16Z</time></trkpt><trkpt lat="45.10256017520373" lon="7.823418665270678"><ele>286.5</ele><time>2026-04-06T09:26:17Z</time></trkpt><trkpt lat="45.10262035413369" lon="7.8233364710149145"><ele>285.0</ele><time>2026-04-06T09:26:18.001Z</time></trkpt><trkpt lat="45.10267015818426" lon="7.823241684262154"><ele>283.5</ele><time>2026-04-06T09:26:19.001Z</time></trkpt><trkpt lat="45.102710322101714" lon="7.823127717456456"><ele>282.0</ele><time>2026-04-06T09:26:20.001Z</time></trkpt><trkpt lat="45.10273554431327" lon="7.823022296385016"><ele>280.5</ele><time>2026-04-06T09:26:21.001Z</time></trkpt><trkpt lat="45.102764737184124" lon="7.822904393561538"><ele>279.0</ele><time>2026-04-06T09:26:22.001Z</time></trkpt><trkpt lat="45.10276882217278" lon="7.822790315435806"><ele>279.0</ele><time>2026-04-06T09:26:23.001Z</time></trkpt><trkpt lat="45.10278078724261" lon="7.822673524364072"><ele>279.0</ele><time>2026-04-06T09:26:24.001Z</time></trkpt><trkpt lat="45.10279668884279" lon="7.822555315670694"><ele>279.0</ele><time>2026-04-06T09:26:25.001Z</time></trkpt><trkpt lat="45.10280235985362" lon="7.822441334862444"><ele>279.0</ele><time>2026-04-06T09:26:26.001Z</time></trkpt><trkpt lat="45.10281669606864" lon="7.8223400248973824"><ele>279.0</ele><time>2026-04-06T09:26:27.001Z</time></trkpt><trkpt lat="45.10285040555435" lon="7.822230737090268"><ele>279.0</ele><time>2026-04-06T09:26:28.001Z</time></trkpt><trkpt lat="45.10287319600335" lon="7.822132713135776"><ele>278.6666666666667</ele><time>2026-04-06T09:26:29.001Z</time></trkpt><trkpt lat="45.10290241588408" lon="7.8220264144017175"><ele>278.3333333333333</ele><time>2026-04-06T09:26:30.001Z</time></trkpt><trkpt lat="45.10293314818473" lon="7.821921669389052"><ele>278.0</ele><time>2026-04-06T09:26:31.001Z</time></trkpt><trkpt lat="45.10296310620782" lon="7.821827396007345"><ele>277.66666666666663</ele><time>2026-04-06T09:26:32.001Z</time></trkpt><trkpt lat="45.10300974495054" lon="7.821740723958425"><ele>277.3333333333333</ele><time>2026-04-06T09:26:33.001Z</time></trkpt><trkpt lat="45.103068017956346" lon="7.821667090745041"><ele>277.0</ele><time>2026-04-06T09:26:34.001Z</time></trkpt><trkpt lat="45.10310315055878" lon="7.821583930058997"><ele>277.1428571428571</ele><time>2026-04-06T09:26:35.001Z</time></trkpt><trkpt lat="45.103154915520065" lon="7.821516479531433"><ele>277.2857142857143</ele><time>2026-04-06T09:26:36.001Z</time></trkpt><trkpt lat="45.10321765042813" lon="7.821455308295113"><ele>277.42857142857144</ele><time>2026-04-06T09:26:37.001Z</time></trkpt><trkpt lat="45.10328114869037" lon="7.821407165712698"><ele>277.57142857142856</ele><time>2026-04-06T09:26:38.001Z</time></trkpt><trkpt lat="45.10335096473436" lon="7.821370409480459"><ele>277.7142857142857</ele><time>2026-04-06T09:26:39.001Z</time></trkpt><trkpt lat="45.1034135839187" lon="7.821320289248938"><ele>277.85714285714283</ele><time>2026-04-06T09:26:40.001Z</time></trkpt><trkpt lat="45.10348523569068" lon="7.821283354602945"><ele>278.0</ele><time>2026-04-06T09:26:41.001Z</time></trkpt><trkpt lat="45.10355986295779" lon="7.8212332700234"><ele>278.0</ele><time>2026-04-06T09:26:42.001Z</time></trkpt><trkpt lat="45.10362932067234" lon="7.821178213955404"><ele>278.0</ele><time>2026-04-06T09:26:43.001Z</time></trkpt><trkpt lat="45.10369686680676" lon="7.821125807228348"><ele>278.0</ele><time>2026-04-06T09:26:44.001Z</time></trkpt><trkpt lat="45.10376172650887" lon="7.8210679428434275"><ele>278.0</ele><time>2026-04-06T09:26:45.001Z</time></trkpt><trkpt lat="45.10382759042421" lon="7.820997413036187"><ele>278.0</ele><time>2026-04-06T09:26:46.001Z</time></trkpt><trkpt lat="45.10389099514196" lon="7.82093404738499"><ele>278.0</ele><time>2026-04-06T09:26:47.001Z</time></trkpt><trkpt lat="45.10395401037927" lon="7.820865936210596"><ele>277.6666666666667</ele><time>2026-04-06T09:26:48.001Z</time></trkpt><trkpt lat="45.10402650070354" lon="7.820796913705287"><ele>277.33333333333337</ele><time>2026-04-06T09:26:49.001Z</time></trkpt><trkpt lat="45.10409630772566" lon="7.820732320441453"><ele>277.0</ele><time>2026-04-06T09:26:50.001Z</time></trkpt><trkpt lat="45.10416938192916" lon="7.820686436821559"><ele>276.6666666666667</ele><time>2026-04-06T09:26:51Z</time></trkpt><trkpt lat="45.10425638293844" lon="7.820644760727471"><ele>276.3333333333333</ele><time>2026-04-06T09:26:52Z</time></trkpt><trkpt lat="45.1043335340665" lon="7.820592210234806"><ele>276.0</ele><time>2026-04-06T09:26:53Z</time></trkpt><trkpt lat="45.10441767249244" lon="7.820556430064784"><ele>276.0</ele><time>2026-04-06T09:26:54Z</time></trkpt><trkpt lat="45.10450151683225" lon="7.820515866533791"><ele>276.0</ele><time>2026-04-06T09:26:55Z</time></trkpt><trkpt lat="45.10458228970975" lon="7.820475494576441"><ele>276.0</ele><time>2026-04-06T09:26:56Z</time></trkpt><trkpt lat="45.10467200638336" lon="7.820419598064497"><ele>276.0</ele><time>2026-04-06T09:26:57.001Z</time></trkpt><trkpt lat="45.10475559837528" lon="7.820364739880894"><ele>276.0</ele><time>2026-04-06T09:26:58Z</time></trkpt><trkpt lat="45.104840614873055" lon="7.820304266879204"><ele>276.6</ele><time>2026-04-06T09:26:59Z</time></trkpt><trkpt lat="45.10492127466245" lon="7.820236967995262"><ele>277.20000000000005</ele><time>2026-04-06T09:27:00Z</time></trkpt><trkpt lat="45.10500096894339" lon="7.820157655260448"><ele>277.79999999999995</ele><time>2026-04-06T09:27:01Z</time></trkpt><trkpt lat="45.10508271596576" lon="7.820077882504952"><ele>278.4</ele><time>2026-04-06T09:27:02Z</time></trkpt><trkpt lat="45.105160668860044" lon="7.819989821290545"><ele>279.0</ele><time>2026-04-06T09:27:03Z</time></trkpt><trkpt lat="45.10522206572264" lon="7.819930693474137"><ele>276.4</ele><time>2026-04-06T09:27:04Z</time></trkpt><trkpt lat="45.105301092620685" lon="7.819800445453163"><ele>273.79999999999995</ele><time>2026-04-06T09:27:05Z</time></trkpt><trkpt lat="45.105365351720366" lon="7.819688645737649"><ele>271.20000000000005</ele><time>2026-04-06T09:27:06Z</time></trkpt><trkpt lat="45.105436377232344" lon="7.819578587455854"><ele>268.6</ele><time>2026-04-06T09:27:07Z</time></trkpt><trkpt lat="45.10549838143728" lon="7.819453213731554"><ele>266.0</ele><time>2026-04-06T09:27:08Z</time></trkpt><trkpt lat="45.10555496762557" lon="7.819329390210155"><ele>266.6</ele><time>2026-04-06T09:27:09Z</time></trkpt><trkpt lat="45.105604977009996" lon="7.8191948899249715"><ele>267.20000000000005</ele><time>2026-04-06T09:27:10Z</time></trkpt><trkpt lat="45.10567514900899" lon="7.819070506616307"><ele>267.79999999999995</ele><time>2026-04-06T09:27:11Z</time></trkpt><trkpt lat="45.105729969679984" lon="7.818940857904842"><ele>268.4</ele><time>2026-04-06T09:27:12Z</time></trkpt><trkpt lat="45.105785292325834" lon="7.818810021827879"><ele>269.0</ele><time>2026-04-06T09:27:13Z</time></trkpt><trkpt lat="45.10584063509848" lon="7.818675065970535"><ele>269.0</ele><time>2026-04-06T09:27:14Z</time></trkpt><trkpt lat="45.10589212922506" lon="7.818553660257702"><ele>269.0</ele><time>2026-04-06T09:27:15Z</time></trkpt><trkpt lat="45.10595425754227" lon="7.818440481619162"><ele>269.0</ele><time>2026-04-06T09:27:16Z</time></trkpt><trkpt lat="45.10603575187101" lon="7.818339587133891"><ele>269.0</ele><time>2026-04-06T09:27:17Z</time></trkpt><trkpt lat="45.10611926027948" lon="7.818248665264298"><ele>269.0</ele><time>2026-04-06T09:27:18Z</time></trkpt><trkpt lat="45.106218747491134" lon="7.818198541660782"><ele>270.0</ele><time>2026-04-06T09:27:19Z</time></trkpt><trkpt lat="45.106322455731046" lon="7.818151088070335"><ele>271.0</ele><time>2026-04-06T09:27:20Z</time></trkpt><trkpt lat="45.10643365086083" lon="7.818111342810999"><ele>272.0</ele><time>2026-04-06T09:27:21Z</time></trkpt><trkpt lat="45.10652265973955" lon="7.818047897106619"><ele>273.0</ele><time>2026-04-06T09:27:22Z</time></trkpt><trkpt lat="45.10661326067375" lon="7.817975454004674"><ele>274.0</ele><time>2026-04-06T09:27:23Z</time></trkpt><trkpt lat="45.106701241146325" lon="7.81789075378229"><ele>274.0</ele><time>2026-04-06T09:27:24Z</time></trkpt><trkpt lat="45.10677645656228" lon="7.817779511976156"><ele>274.0</ele><time>2026-04-06T09:27:25Z</time></trkpt><trkpt lat="45.106873617754765" lon="7.817676202694368"><ele>274.0</ele><time>2026-04-06T09:27:26Z</time></trkpt><trkpt lat="45.106971619743454" lon="7.81758320169766"><ele>274.0</ele><time>2026-04-06T09:27:27Z</time></trkpt><trkpt lat="45.10704432267445" lon="7.817504331122772"><ele>274.0</ele><time>2026-04-06T09:27:28Z</time></trkpt><trkpt lat="45.10712649016371" lon="7.817398679129497"><ele>270.0</ele><time>2026-04-06T09:27:29Z</time></trkpt><trkpt lat="45.1072100211592" lon="7.81728760418369"><ele>266.0</ele><time>2026-04-06T09:27:30Z</time></trkpt><trkpt lat="45.10728511607095" lon="7.817191408442122"><ele>262.0</ele><time>2026-04-06T09:27:31Z</time></trkpt><trkpt lat="45.10737228795545" lon="7.817092795031444"><ele>258.0</ele><time>2026-04-06T09:27:32Z</time></trkpt><trkpt lat="45.107472392128415" lon="7.816997411341208"><ele>254.0</ele><time>2026-04-06T09:27:33Z</time></trkpt><trkpt lat="45.1075489655471" lon="7.816897654213852"><ele>253.0</ele><time>2026-04-06T09:27:34Z</time></trkpt><trkpt lat="45.107624944276" lon="7.816800401559766"><ele>251.99999999999997</ele><time>2026-04-06T09:27:35Z</time></trkpt><trkpt lat="45.10769901670704" lon="7.816700097760256"><ele>250.99999999999997</ele><time>2026-04-06T09:27:36Z</time></trkpt><trkpt lat="45.10777403160482" lon="7.816608946286881"><ele>250.0</ele><time>2026-04-06T09:27:37Z</time></trkpt><trkpt lat="45.107859653639395" lon="7.816535740562671"><ele>249.0</ele><time>2026-04-06T09:27:38Z</time></trkpt><trkpt lat="45.1079453023076" lon="7.8164983917928215"><ele>249.0</ele><time>2026-04-06T09:27:39Z</time></trkpt><trkpt lat="45.108039583110624" lon="7.81648671162423"><ele>248.99999999999997</ele><time>2026-04-06T09:27:40Z</time></trkpt><trkpt lat="45.10813247827456" lon="7.8164843760909575"><ele>248.99999999999997</ele><time>2026-04-06T09:27:41Z</time></trkpt><trkpt lat="45.108213894412174" lon="7.816483116052767"><ele>249.0</ele><time>2026-04-06T09:27:42Z</time></trkpt><trkpt lat="45.10830780481778" lon="7.8164779903514505"><ele>249.0</ele><time>2026-04-06T09:27:43Z</time></trkpt><trkpt lat="45.10839384392699" lon="7.816460485380863"><ele>248.79999999999998</ele><time>2026-04-06T09:27:44Z</time></trkpt><trkpt lat="45.108491661179066" lon="7.816457283168837"><ele>248.59999999999997</ele><time>2026-04-06T09:27:45Z</time></trkpt><trkpt lat="45.10858531269312" lon="7.816451670073292"><ele>248.4</ele><time>2026-04-06T09:27:46Z</time></trkpt><trkpt lat="45.108676069129224" lon="7.816441253555631"><ele>248.2</ele><time>2026-04-06T09:27:47Z</time></trkpt><trkpt lat="45.10876594929613" lon="7.816433251566634"><ele>248.0</ele><time>2026-04-06T09:27:48Z</time></trkpt><trkpt lat="45.108855209126396" lon="7.816436948646133"><ele>248.0</ele><time>2026-04-06T09:27:49Z</time></trkpt><trkpt lat="45.10894674716441" lon="7.8164272433017645"><ele>248.0</ele><time>2026-04-06T09:27:50Z</time></trkpt><trkpt lat="45.10903829551086" lon="7.816415004122187"><ele>248.0</ele><time>2026-04-06T09:27:51Z</time></trkpt><trkpt lat="45.109128179134636" lon="7.81640495376734"><ele>248.0</ele><time>2026-04-06T09:27:52Z</time></trkpt><trkpt lat="45.10921714060318" lon="7.816408389931796"><ele>248.0</ele><time>2026-04-06T09:27:53Z</time></trkpt><trkpt lat="45.10931418516976" lon="7.816401916904757"><ele>247.8</ele><time>2026-04-06T09:27:54Z</time></trkpt><trkpt lat="45.10942027971734" lon="7.816407544665467"><ele>247.60000000000002</ele><time>2026-04-06T09:27:55Z</time></trkpt><trkpt lat="45.10951060638675" lon="7.816401732713378"><ele>247.39999999999998</ele><time>2026-04-06T09:27:56Z</time></trkpt><trkpt lat="45.10960071804688" lon="7.816387205515206"><ele>247.2</ele><time>2026-04-06T09:27:57Z</time></trkpt><trkpt lat="45.10970217951254" lon="7.816361802373595"><ele>247.0</ele><time>2026-04-06T09:27:58Z</time></trkpt><trkpt lat="45.10979552362717" lon="7.816373478088388"><ele>247.0</ele><time>2026-04-06T09:27:59Z</time></trkpt><trkpt lat="45.10988811807418" lon="7.816359188533898"><ele>247.0</ele><time>2026-04-06T09:28:00Z</time></trkpt><trkpt lat="45.10997948248392" lon="7.816348483727631"><ele>247.0</ele><time>2026-04-06T09:28:01Z</time></trkpt><trkpt lat="45.11007530992593" lon="7.8163341729984985"><ele>247.0</ele><time>2026-04-06T09:28:02Z</time></trkpt><trkpt lat="45.110170791437746" lon="7.8163287609510155"><ele>247.0</ele><time>2026-04-06T09:28:03Z</time></trkpt><trkpt lat="45.11026825798309" lon="7.816324634727139"><ele>246.6</ele><time>2026-04-06T09:28:04Z</time></trkpt><trkpt lat="45.110359648750375" lon="7.816308601951366"><ele>246.2</ele><time>2026-04-06T09:28:05Z</time></trkpt><trkpt lat="45.11045421057179" lon="7.81630494727691"><ele>245.8</ele><time>2026-04-06T09:28:06Z</time></trkpt><trkpt lat="45.110545589862205" lon="7.816300074459938"><ele>245.4</ele><time>2026-04-06T09:28:07Z</time></trkpt><trkpt lat="45.110646665127895" lon="7.816291674230239"><ele>245.0</ele><time>2026-04-06T09:28:08Z</time></trkpt><trkpt lat="45.1107436325713" lon="7.816283383340634"><ele>244.4</ele><time>2026-04-06T09:28:09Z</time></trkpt><trkpt lat="45.11083823837751" lon="7.816273255617307"><ele>243.8</ele><time>2026-04-06T09:28:10Z</time></trkpt><trkpt lat="45.11093161638687" lon="7.8162642300490415"><ele>243.2</ele><time>2026-04-06T09:28:11Z</time></trkpt><trkpt lat="45.11103116043717" lon="7.816256189249387"><ele>242.6</ele><time>2026-04-06T09:28:12Z</time></trkpt><trkpt lat="45.11112504457387" lon="7.816245150776351"><ele>242.0</ele><time>2026-04-06T09:28:13Z</time></trkpt><trkpt lat="45.11122128282342" lon="7.816238939370784"><ele>242.0</ele><time>2026-04-06T09:28:14Z</time></trkpt><trkpt lat="45.111320906811784" lon="7.816231238603568"><ele>242.0</ele><time>2026-04-06T09:28:15Z</time></trkpt><trkpt lat="45.111418002126925" lon="7.816228694911567"><ele>242.0</ele><time>2026-04-06T09:28:16Z</time></trkpt><trkpt lat="45.11152111821559" lon="7.816224239340125"><ele>242.0</ele><time>2026-04-06T09:28:17Z</time></trkpt><trkpt lat="45.11162304331613" lon="7.816223909515005"><ele>242.0</ele><time>2026-04-06T09:28:18Z</time></trkpt><trkpt lat="45.11173151706324" lon="7.816213629783521"><ele>241.39999999999998</ele><time>2026-04-06T09:28:19Z</time></trkpt><trkpt lat="45.11184361234792" lon="7.816214349805102"><ele>240.79999999999998</ele><time>2026-04-06T09:28:19.999Z</time></trkpt><trkpt lat="45.111952029562055" lon="7.816226513790404"><ele>240.2</ele><time>2026-04-06T09:28:20.999Z</time></trkpt><trkpt lat="45.11205849377926" lon="7.816240621363723"><ele>239.6</ele><time>2026-04-06T09:28:21.999Z</time></trkpt><trkpt lat="45.11216710921014" lon="7.81624491163605"><ele>239.0</ele><time>2026-04-06T09:28:22.999Z</time></trkpt><trkpt lat="45.11228287111053" lon="7.816237849655163"><ele>239.0</ele><time>2026-04-06T09:28:24.001Z</time></trkpt><trkpt lat="45.11238348413215" lon="7.816239366677493"><ele>238.99999999999997</ele><time>2026-04-06T09:28:25.001Z</time></trkpt><trkpt lat="45.11248819626916" lon="7.816254591819368"><ele>238.99999999999997</ele><time>2026-04-06T09:28:26.001Z</time></trkpt><trkpt lat="45.11259871951268" lon="7.8162671860021735"><ele>239.0</ele><time>2026-04-06T09:28:27.001Z</time></trkpt><trkpt lat="45.11269806267907" lon="7.816280056253997"><ele>239.0</ele><time>2026-04-06T09:28:28.001Z</time></trkpt><trkpt lat="45.1128100403817" lon="7.816273809741821"><ele>238.39999999999998</ele><time>2026-04-06T09:28:29.001Z</time></trkpt><trkpt lat="45.1129204796177" lon="7.8162869242086765"><ele>237.79999999999998</ele><time>2026-04-06T09:28:30.001Z</time></trkpt><trkpt lat="45.113020541914906" lon="7.816300968869357"><ele>237.20000000000002</ele><time>2026-04-06T09:28:31.001Z</time></trkpt><trkpt lat="45.11311817661329" lon="7.8163105960224915"><ele>236.60000000000002</ele><time>2026-04-06T09:28:32.001Z</time></trkpt><trkpt lat="45.11322250680463" lon="7.816316262171964"><ele>236.0</ele><time>2026-04-06T09:28:33.001Z</time></trkpt><trkpt lat="45.11332067499763" lon="7.816325018629696"><ele>236.0</ele><time>2026-04-06T09:28:34.001Z</time></trkpt><trkpt lat="45.113417114516025" lon="7.816324039373297"><ele>236.00000000000003</ele><time>2026-04-06T09:28:35.001Z</time></trkpt><trkpt lat="45.11352131164043" lon="7.816327746778431"><ele>236.00000000000003</ele><time>2026-04-06T09:28:36.001Z</time></trkpt><trkpt lat="45.113616447585244" lon="7.816343056853786"><ele>236.0</ele><time>2026-04-06T09:28:37.001Z</time></trkpt><trkpt lat="45.11370890585766" lon="7.816359509157998"><ele>236.0</ele><time>2026-04-06T09:28:38.001Z</time></trkpt><trkpt lat="45.11380149534253" lon="7.816367195936066"><ele>236.0</ele><time>2026-04-06T09:28:39.001Z</time></trkpt><trkpt lat="45.11389204195491" lon="7.81636937466931"><ele>236.00000000000003</ele><time>2026-04-06T09:28:40.001Z</time></trkpt><trkpt lat="45.11398913730715" lon="7.81637442424482"><ele>236.00000000000003</ele><time>2026-04-06T09:28:41.001Z</time></trkpt><trkpt lat="45.11408445547965" lon="7.8163818915339816"><ele>236.0</ele><time>2026-04-06T09:28:42.001Z</time></trkpt><trkpt lat="45.1141775645282" lon="7.816385988058028"><ele>236.0</ele><time>2026-04-06T09:28:43.001Z</time></trkpt><trkpt lat="45.11426946425188" lon="7.816393386236678"><ele>235.60000000000002</ele><time>2026-04-06T09:28:44.001Z</time></trkpt><trkpt lat="45.11435426247618" lon="7.816401285796714"><ele>235.20000000000002</ele><time>2026-04-06T09:28:45.001Z</time></trkpt><trkpt lat="45.11445034656135" lon="7.816413295206215"><ele>234.79999999999998</ele><time>2026-04-06T09:28:46.001Z</time></trkpt><trkpt lat="45.11454275858201" lon="7.816439988197944"><ele>234.39999999999998</ele><time>2026-04-06T09:28:47.001Z</time></trkpt><trkpt lat="45.114639276740505" lon="7.816452345292786"><ele>234.0</ele><time>2026-04-06T09:28:48.001Z</time></trkpt><trkpt lat="45.11473436154408" lon="7.816478804438517"><ele>234.0</ele><time>2026-04-06T09:28:49.001Z</time></trkpt><trkpt lat="45.11482649071055" lon="7.816516274496415"><ele>233.99999999999997</ele><time>2026-04-06T09:28:50.001Z</time></trkpt><trkpt lat="45.114914028762335" lon="7.816576488413828"><ele>233.99999999999997</ele><time>2026-04-06T09:28:51.001Z</time></trkpt><trkpt lat="45.11500011458165" lon="7.816634383168479"><ele>234.0</ele><time>2026-04-06T09:28:52Z</time></trkpt><trkpt lat="45.115082872930614" lon="7.816697946515724"><ele>234.0</ele><time>2026-04-06T09:28:53Z</time></trkpt><trkpt lat="45.11516746252643" lon="7.816767729697399"><ele>235.39999999999998</ele><time>2026-04-06T09:28:54Z</time></trkpt><trkpt lat="45.115246382274854" lon="7.816848401499553"><ele>236.79999999999998</ele><time>2026-04-06T09:28:55Z</time></trkpt><trkpt lat="45.11532324759804" lon="7.8169209236994135"><ele>238.20000000000002</ele><time>2026-04-06T09:28:56Z</time></trkpt><trkpt lat="45.115411478781056" lon="7.816983421465484"><ele>239.60000000000002</ele><time>2026-04-06T09:28:57Z</time></trkpt><trkpt lat="45.11549604323646" lon="7.817062184515367"><ele>241.0</ele><time>2026-04-06T09:28:58Z</time></trkpt><trkpt lat="45.1155815322096" lon="7.817130747999953"><ele>241.0</ele><time>2026-04-06T09:28:59Z</time></trkpt><trkpt lat="45.115669612377175" lon="7.817179796147172"><ele>241.00000000000003</ele><time>2026-04-06T09:29:00Z</time></trkpt><trkpt lat="45.115769408370504" lon="7.817188374766126"><ele>241.00000000000003</ele><time>2026-04-06T09:29:01Z</time></trkpt><trkpt lat="45.11586768529818" lon="7.8171712862743785"><ele>241.0</ele><time>2026-04-06T09:29:02Z</time></trkpt><trkpt lat="45.115962307755034" lon="7.817152654187908"><ele>241.0</ele><time>2026-04-06T09:29:03Z</time></trkpt><trkpt lat="45.11605318142155" lon="7.817122994025638"><ele>239.20000000000002</ele><time>2026-04-06T09:29:04Z</time></trkpt><trkpt lat="45.116158781602586" lon="7.817088841595619"><ele>237.40000000000003</ele><time>2026-04-06T09:29:05Z</time></trkpt><trkpt lat="45.11624975597918" lon="7.817084576453244"><ele>235.6</ele><time>2026-04-06T09:29:06Z</time></trkpt><trkpt lat="45.11633694557694" lon="7.817046108033094"><ele>233.8</ele><time>2026-04-06T09:29:07Z</time></trkpt><trkpt lat="45.11642277027738" lon="7.8170211947593105"><ele>232.0</ele><time>2026-04-06T09:29:08Z</time></trkpt><trkpt lat="45.11651375441526" lon="7.8169979858048775"><ele>232.16666666666666</ele><time>2026-04-06T09:29:09Z</time></trkpt><trkpt lat="45.116602335567315" lon="7.816972746226114"><ele>232.33333333333331</ele><time>2026-04-06T09:29:10Z</time></trkpt><trkpt lat="45.116692602368765" lon="7.8169537470388635"><ele>232.5</ele><time>2026-04-06T09:29:11Z</time></trkpt><trkpt lat="45.116781035889304" lon="7.81693299615163"><ele>232.66666666666669</ele><time>2026-04-06T09:29:12Z</time></trkpt><trkpt lat="45.11686803703094" lon="7.816900617085929"><ele>232.83333333333334</ele><time>2026-04-06T09:29:13Z</time></trkpt><trkpt lat="45.11695232198608" lon="7.816886597885616"><ele>233.0</ele><time>2026-04-06T09:29:14Z</time></trkpt><trkpt lat="45.11704013500336" lon="7.816868972475186"><ele>233.0</ele><time>2026-04-06T09:29:15Z</time></trkpt><trkpt lat="45.11713108982859" lon="7.816837866255273"><ele>233.0</ele><time>2026-04-06T09:29:16Z</time></trkpt><trkpt lat="45.11721462666165" lon="7.816814327765397"><ele>233.0</ele><time>2026-04-06T09:29:17Z</time></trkpt><trkpt lat="45.11730330020392" lon="7.816790059203116"><ele>233.0</ele><time>2026-04-06T09:29:18Z</time></trkpt><trkpt lat="45.11740456629346" lon="7.816772233928916"><ele>233.0</ele><time>2026-04-06T09:29:19Z</time></trkpt><trkpt lat="45.11748857256983" lon="7.816750064466912"><ele>232.16666666666669</ele><time>2026-04-06T09:29:20Z</time></trkpt><trkpt lat="45.117569148748714" lon="7.8167278223931875"><ele>231.33333333333334</ele><time>2026-04-06T09:29:21Z</time></trkpt><trkpt lat="45.11765676192642" lon="7.8167102922871425"><ele>230.5</ele><time>2026-04-06T09:29:22Z</time></trkpt><trkpt lat="45.11774592288773" lon="7.816691538408758"><ele>229.66666666666669</ele><time>2026-04-06T09:29:23Z</time></trkpt><trkpt lat="45.11782910109759" lon="7.816668633783485"><ele>228.83333333333334</ele><time>2026-04-06T09:29:24Z</time></trkpt><trkpt lat="45.11791945063096" lon="7.816639927919205"><ele>228.0</ele><time>2026-04-06T09:29:25Z</time></trkpt><trkpt lat="45.11800697474055" lon="7.816619379511863"><ele>228.0</ele><time>2026-04-06T09:29:26Z</time></trkpt><trkpt lat="45.1180976607307" lon="7.81659664827555"><ele>228.0</ele><time>2026-04-06T09:29:27Z</time></trkpt><trkpt lat="45.11818872215923" lon="7.816566656434827"><ele>228.0</ele><time>2026-04-06T09:29:28Z</time></trkpt><trkpt lat="45.11828048629723" lon="7.8165435359220865"><ele>228.0</ele><time>2026-04-06T09:29:29Z</time></trkpt><trkpt lat="45.11837775351552" lon="7.816521700311428"><ele>228.0</ele><time>2026-04-06T09:29:30Z</time></trkpt><trkpt lat="45.118471477776325" lon="7.816497590155576"><ele>228.0</ele><time>2026-04-06T09:29:31Z</time></trkpt><trkpt lat="45.11856698206625" lon="7.816474766076712"><ele>228.0</ele><time>2026-04-06T09:29:32Z</time></trkpt><trkpt lat="45.118658182017455" lon="7.816447720065168"><ele>228.0</ele><time>2026-04-06T09:29:33Z</time></trkpt><trkpt lat="45.11875881826954" lon="7.816427859697807"><ele>228.0</ele><time>2026-04-06T09:29:34Z</time></trkpt><trkpt lat="45.118857351573006" lon="7.816390926305098"><ele>228.0</ele><time>2026-04-06T09:29:35Z</time></trkpt><trkpt lat="45.11895617929764" lon="7.816353401223113"><ele>228.0</ele><time>2026-04-06T09:29:36Z</time></trkpt><trkpt lat="45.119049169393634" lon="7.816304287328108"><ele>228.0</ele><time>2026-04-06T09:29:37Z</time></trkpt><trkpt lat="45.11914872635261" lon="7.816248688376294"><ele>228.0</ele><time>2026-04-06T09:29:38Z</time></trkpt><trkpt lat="45.11923999531476" lon="7.816194826187253"><ele>228.0</ele><time>2026-04-06T09:29:39Z</time></trkpt><trkpt lat="45.119324087931886" lon="7.816162641011956"><ele>228.0</ele><time>2026-04-06T09:29:40Z</time></trkpt><trkpt lat="45.119410516076634" lon="7.816107920244936"><ele>227.2</ele><time>2026-04-06T09:29:41Z</time></trkpt><trkpt lat="45.11950003477997" lon="7.816042136411611"><ele>226.4</ele><time>2026-04-06T09:29:42Z</time></trkpt><trkpt lat="45.11959172409193" lon="7.81600581125383"><ele>225.59999999999997</ele><time>2026-04-06T09:29:43Z</time></trkpt><trkpt lat="45.11968941301266" lon="7.815984708402414"><ele>224.79999999999998</ele><time>2026-04-06T09:29:44Z</time></trkpt><trkpt lat="45.11978016254305" lon="7.815974902798729"><ele>224.0</ele><time>2026-04-06T09:29:45Z</time></trkpt><trkpt lat="45.11987333476246" lon="7.815965623527936"><ele>223.6</ele><time>2026-04-06T09:29:46Z</time></trkpt><trkpt lat="45.11996659719959" lon="7.815954636056484"><ele>223.2</ele><time>2026-04-06T09:29:47Z</time></trkpt><trkpt lat="45.120059374893124" lon="7.8159464612959315"><ele>222.79999999999998</ele><time>2026-04-06T09:29:48Z</time></trkpt><trkpt lat="45.12015421582833" lon="7.815941684578511"><ele>222.39999999999998</ele><time>2026-04-06T09:29:49Z</time></trkpt><trkpt lat="45.120239581000035" lon="7.815944106445447"><ele>222.0</ele><time>2026-04-06T09:29:50Z</time></trkpt><trkpt lat="45.120328785445444" lon="7.815933417504529"><ele>222.0</ele><time>2026-04-06T09:29:51Z</time></trkpt><trkpt lat="45.12041297813029" lon="7.815926489981885"><ele>222.0</ele><time>2026-04-06T09:29:52Z</time></trkpt><trkpt lat="45.12050852702215" lon="7.815917012814203"><ele>222.0</ele><time>2026-04-06T09:29:53Z</time></trkpt><trkpt lat="45.12057642242472" lon="7.8159110544045225"><ele>222.0</ele><time>2026-04-06T09:29:53.999Z</time></trkpt><trkpt lat="45.12066870164938" lon="7.815885574780734"><ele>222.0</ele><time>2026-04-06T09:29:54.999Z</time></trkpt><trkpt lat="45.12074980090954" lon="7.815855421348477"><ele>222.0</ele><time>2026-04-06T09:29:55.999Z</time></trkpt><trkpt lat="45.1208304057617" lon="7.815824886220134"><ele>221.83333333333334</ele><time>2026-04-06T09:29:56.999Z</time></trkpt><trkpt lat="45.12091037509224" lon="7.815796385765682"><ele>221.66666666666669</ele><time>2026-04-06T09:29:57.999Z</time></trkpt><trkpt lat="45.12099571607804" lon="7.815769555816613"><ele>221.5</ele><time>2026-04-06T09:29:58.999Z</time></trkpt><trkpt lat="45.121072654583394" lon="7.815750902803229"><ele>221.33333333333334</ele><time>2026-04-06T09:29:59.999Z</time></trkpt><trkpt lat="45.12113927417888" lon="7.81572980754007"><ele>221.16666666666669</ele><time>2026-04-06T09:30:00.999Z</time></trkpt><trkpt lat="45.12121096431848" lon="7.815693430396582"><ele>221.0</ele><time>2026-04-06T09:30:01.999Z</time></trkpt><trkpt lat="45.121284077714094" lon="7.815653283289486"><ele>221.00000000000003</ele><time>2026-04-06T09:30:02.999Z</time></trkpt><trkpt lat="45.12135046065255" lon="7.815604484681214"><ele>221.0</ele><time>2026-04-06T09:30:03.999Z</time></trkpt><trkpt lat="45.12141712909461" lon="7.8155820440396955"><ele>221.0</ele><time>2026-04-06T09:30:04.999Z</time></trkpt><trkpt lat="45.12152897750434" lon="7.815566910222202"><ele>221.0</ele><time>2026-04-06T09:30:06.999Z</time></trkpt><trkpt lat="45.121617174619104" lon="7.815545262833828"><ele>221.00000000000003</ele><time>2026-04-06T09:30:08.999Z</time></trkpt><trkpt lat="45.121677347558695" lon="7.815611033876516"><ele>221.0</ele><time>2026-04-06T09:30:11.999Z</time></trkpt><trkpt lat="45.121718206496006" lon="7.8157160524296225"><ele>220.83333333333334</ele><time>2026-04-06T09:30:13.999Z</time></trkpt><trkpt lat="45.12173744449667" lon="7.815833100285021"><ele>220.66666666666669</ele><time>2026-04-06T09:30:15.999Z</time></trkpt><trkpt lat="45.121767655617184" lon="7.815976511376522"><ele>220.5</ele><time>2026-04-06T09:30:17.999Z</time></trkpt><trkpt lat="45.12181396661838" lon="7.816121899463909"><ele>220.33333333333331</ele><time>2026-04-06T09:30:19.999Z</time></trkpt><trkpt lat="45.12185400434678" lon="7.816190866126369"><ele>220.16666666666666</ele><time>2026-04-06T09:30:20.999Z</time></trkpt><trkpt lat="45.1219028462219" lon="7.816261259413065"><ele>220.0</ele><time>2026-04-06T09:30:21.999Z</time></trkpt><trkpt lat="45.12196292433414" lon="7.816310117779349"><ele>219.85714285714283</ele><time>2026-04-06T09:30:22.999Z</time></trkpt><trkpt lat="45.12201688546142" lon="7.816380748168133"><ele>219.71428571428572</ele><time>2026-04-06T09:30:23.999Z</time></trkpt><trkpt lat="45.12206897304289" lon="7.816450014181205"><ele>219.57142857142856</ele><time>2026-04-06T09:30:24.999Z</time></trkpt><trkpt lat="45.12212822973644" lon="7.81651226046907"><ele>219.42857142857142</ele><time>2026-04-06T09:30:25.999Z</time></trkpt><trkpt lat="45.12217510278457" lon="7.8165752614485635"><ele>219.28571428571428</ele><time>2026-04-06T09:30:26.999Z</time></trkpt><trkpt lat="45.122228423496715" lon="7.816642580658206"><ele>219.14285714285714</ele><time>2026-04-06T09:30:27.999Z</time></trkpt><trkpt lat="45.12229019130752" lon="7.8167143049029715"><ele>219.0</ele><time>2026-04-06T09:30:28.999Z</time></trkpt><trkpt lat="45.122342751837984" lon="7.816771553740444"><ele>219.16666666666666</ele><time>2026-04-06T09:30:30.001Z</time></trkpt><trkpt lat="45.122413935775946" lon="7.816847405696115"><ele>219.33333333333331</ele><time>2026-04-06T09:30:31.001Z</time></trkpt><trkpt lat="45.12247563731501" lon="7.816919096376247"><ele>219.5</ele><time>2026-04-06T09:30:32.001Z</time></trkpt><trkpt lat="45.12253948082395" lon="7.816989947466184"><ele>219.66666666666666</ele><time>2026-04-06T09:30:33.001Z</time></trkpt><trkpt lat="45.12259845775518" lon="7.817055096551677"><ele>219.83333333333331</ele><time>2026-04-06T09:30:34.001Z</time></trkpt><trkpt lat="45.12265878007861" lon="7.817124578090244"><ele>220.0</ele><time>2026-04-06T09:30:35.001Z</time></trkpt><trkpt lat="45.12271422886053" lon="7.817193092302609"><ele>219.99999999999997</ele><time>2026-04-06T09:30:36.001Z</time></trkpt><trkpt lat="45.12276663838515" lon="7.81725664395279"><ele>220.0</ele><time>2026-04-06T09:30:37.001Z</time></trkpt><trkpt lat="45.12282061339509" lon="7.817319122105951"><ele>220.0</ele><time>2026-04-06T09:30:38.001Z</time></trkpt><trkpt lat="45.122874487842566" lon="7.817376255962253"><ele>220.0</ele><time>2026-04-06T09:30:39.001Z</time></trkpt><trkpt lat="45.122928662000675" lon="7.8174395839239805"><ele>220.0</ele><time>2026-04-06T09:30:40.001Z</time></trkpt><trkpt lat="45.12298044514923" lon="7.817501865297576"><ele>219.99999999999997</ele><time>2026-04-06T09:30:41.001Z</time></trkpt><trkpt lat="45.1230365440322" lon="7.817568444511093"><ele>220.0</ele><time>2026-04-06T09:30:42.001Z</time></trkpt><trkpt lat="45.12309913992503" lon="7.817629166467066"><ele>220.33333333333331</ele><time>2026-04-06T09:30:43.001Z</time></trkpt><trkpt lat="45.123154406713276" lon="7.8176955615275"><ele>220.66666666666666</ele><time>2026-04-06T09:30:44.001Z</time></trkpt><trkpt lat="45.12320521588851" lon="7.8177582117837"><ele>221.0</ele><time>2026-04-06T09:30:45.001Z</time></trkpt><trkpt lat="45.12326159089247" lon="7.817815033368294"><ele>221.33333333333331</ele><time>2026-04-06T09:30:46.001Z</time></trkpt><trkpt lat="45.123325052664626" lon="7.817869352745739"><ele>221.66666666666666</ele><time>2026-04-06T09:30:47.001Z</time></trkpt><trkpt lat="45.12338476451173" lon="7.817929458293226"><ele>222.0</ele><time>2026-04-06T09:30:48.001Z</time></trkpt><trkpt lat="45.123466688755784" lon="7.818050209166799"><ele>221.2</ele><time>2026-04-06T09:30:50Z</time></trkpt><trkpt lat="45.12351660238535" lon="7.818109433236545"><ele>220.39999999999998</ele><time>2026-04-06T09:30:51Z</time></trkpt><trkpt lat="45.12356545457137" lon="7.818166920073226"><ele>219.60000000000002</ele><time>2026-04-06T09:30:52Z</time></trkpt><trkpt lat="45.123659951963766" lon="7.818270994515326"><ele>218.8</ele><time>2026-04-06T09:30:54Z</time></trkpt><trkpt lat="45.12375006443364" lon="7.8183832001398885"><ele>218.0</ele><time>2026-04-06T09:30:56Z</time></trkpt><trkpt lat="45.12384451557376" lon="7.818495401681293"><ele>220.0</ele><time>2026-04-06T09:30:58Z</time></trkpt><trkpt lat="45.12393400880651" lon="7.818599161253929"><ele>222.0</ele><time>2026-04-06T09:31:00Z</time></trkpt><trkpt lat="45.12403593109188" lon="7.818682438510647"><ele>224.0</ele><time>2026-04-06T09:31:02Z</time></trkpt><trkpt lat="45.124129664509965" lon="7.818762075931842"><ele>226.0</ele><time>2026-04-06T09:31:04Z</time></trkpt><trkpt lat="45.124212906104816" lon="7.818879152937563"><ele>226.0</ele><time>2026-04-06T09:31:06Z</time></trkpt><trkpt lat="45.124287800917436" lon="7.8189831801551675"><ele>226.00000000000003</ele><time>2026-04-06T09:31:08Z</time></trkpt><trkpt lat="45.124349699073846" lon="7.819120039812538"><ele>226.00000000000003</ele><time>2026-04-06T09:31:10Z</time></trkpt><trkpt lat="45.124405143832455" lon="7.819244747128311"><ele>226.0</ele><time>2026-04-06T09:31:12Z</time></trkpt><trkpt lat="45.12446319405619" lon="7.819369689748473"><ele>226.0</ele><time>2026-04-06T09:31:14Z</time></trkpt><trkpt lat="45.1245240631881" lon="7.81948771292344"><ele>226.4</ele><time>2026-04-06T09:31:16Z</time></trkpt><trkpt lat="45.124579682966164" lon="7.81960630591602"><ele>226.8</ele><time>2026-04-06T09:31:18Z</time></trkpt><trkpt lat="45.124639046255126" lon="7.81972065160622"><ele>227.20000000000002</ele><time>2026-04-06T09:31:20Z</time></trkpt><trkpt lat="45.12469116219317" lon="7.819824224349485"><ele>227.60000000000002</ele><time>2026-04-06T09:31:22Z</time></trkpt><trkpt lat="45.12462737911884" lon="7.819922686268204"><ele>228.0</ele><time>2026-04-06T09:31:25Z</time></trkpt><trkpt lat="45.12456528465695" lon="7.819968441225778"><ele>228.0</ele><time>2026-04-06T09:31:27Z</time></trkpt><trkpt lat="45.12450665712726" lon="7.820015434040375"><ele>227.99999999999997</ele><time>2026-04-06T09:31:29Z</time></trkpt><trkpt lat="45.12444938973317" lon="7.820075281212102"><ele>228.0</ele><time>2026-04-06T09:31:31Z</time></trkpt><trkpt lat="45.124382182113116" lon="7.820130672774665"><ele>228.0</ele><time>2026-04-06T09:31:33Z</time></trkpt><trkpt lat="45.12432722579371" lon="7.820191336658116"><ele>227.99999999999997</ele><time>2026-04-06T09:31:35Z</time></trkpt><trkpt lat="45.124269348007104" lon="7.820255633465386"><ele>228.0</ele><time>2026-04-06T09:31:37.999Z</time></trkpt><trkpt lat="45.12420604522042" lon="7.82029061955076"><ele>228.0</ele><time>2026-04-06T09:31:40.999Z</time></trkpt><trkpt lat="45.12414920494724" lon="7.820343736564524"><ele>228.33333333333334</ele><time>2026-04-06T09:31:43.999Z</time></trkpt><trkpt lat="45.12409474867503" lon="7.8204206926352935"><ele>228.66666666666669</ele><time>2026-04-06T09:31:46.999Z</time></trkpt><trkpt lat="45.12404231268465" lon="7.8204955020183915"><ele>229.0</ele><time>2026-04-06T09:31:49.999Z</time></trkpt><trkpt lat="45.123985463926935" lon="7.820579848354344"><ele>229.33333333333334</ele><time>2026-04-06T09:31:52.999Z</time></trkpt><trkpt lat="45.1239106177419" lon="7.820626618170175"><ele>229.66666666666669</ele><time>2026-04-06T09:31:56.999Z</time></trkpt><trkpt lat="45.123845718599846" lon="7.820682251098984"><ele>230.0</ele><time>2026-04-06T09:32:00.999Z</time></trkpt><trkpt lat="45.12378267941131" lon="7.820722334296853"><ele>231.28571428571425</ele><time>2026-04-06T09:32:04.999Z</time></trkpt><trkpt lat="45.123721737322285" lon="7.8207857023356695"><ele>232.57142857142856</ele><time>2026-04-06T09:32:08.999Z</time></trkpt><trkpt lat="45.123746447593874" lon="7.820878924013424"><ele>233.85714285714286</ele><time>2026-04-06T09:32:12.999Z</time></trkpt><trkpt lat="45.12380206129545" lon="7.8209224745764425"><ele>235.14285714285714</ele><time>2026-04-06T09:32:14.999Z</time></trkpt><trkpt lat="45.12384507923387" lon="7.8209881789840505"><ele>236.42857142857144</ele><time>2026-04-06T09:32:16.999Z</time></trkpt><trkpt lat="45.12389550806135" lon="7.821062412299269"><ele>237.71428571428575</ele><time>2026-04-06T09:32:18.999Z</time></trkpt><trkpt lat="45.12394962794207" lon="7.821142641832397"><ele>239.00000000000003</ele><time>2026-04-06T09:32:20.999Z</time></trkpt><trkpt lat="45.12401095666802" lon="7.821212450925076"><ele>237.79999999999998</ele><time>2026-04-06T09:32:22.999Z</time></trkpt><trkpt lat="45.12407459910226" lon="7.82129190009309"><ele>236.59999999999997</ele><time>2026-04-06T09:32:24.999Z</time></trkpt><trkpt lat="45.12415442559101" lon="7.821359563919982"><ele>235.4</ele><time>2026-04-06T09:32:26.999Z</time></trkpt><trkpt lat="45.12421313097639" lon="7.821455362859199"><ele>234.2</ele><time>2026-04-06T09:32:28.999Z</time></trkpt><trkpt lat="45.124282817567426" lon="7.821550338084216"><ele>233.0</ele><time>2026-04-06T09:32:30.999Z</time></trkpt><trkpt lat="45.124358501041336" lon="7.821632553759545"><ele>233.0</ele><time>2026-04-06T09:32:32.999Z</time></trkpt><trkpt lat="45.12442300835446" lon="7.8217335674842605"><ele>233.0</ele><time>2026-04-06T09:32:34.999Z</time></trkpt><trkpt lat="45.12449724701344" lon="7.821825986633753"><ele>233.0</ele><time>2026-04-06T09:32:37Z</time></trkpt><trkpt lat="45.124584308289776" lon="7.821904560367014"><ele>233.0</ele><time>2026-04-06T09:32:39Z</time></trkpt><trkpt lat="45.12465560131646" lon="7.822021662924711"><ele>233.0</ele><time>2026-04-06T09:32:41Z</time></trkpt><trkpt lat="45.124741300570136" lon="7.8221139605780845"><ele>232.83333333333334</ele><time>2026-04-06T09:32:43Z</time></trkpt><trkpt lat="45.12479779180494" lon="7.822209172566018"><ele>232.66666666666669</ele><time>2026-04-06T09:32:45Z</time></trkpt><trkpt lat="45.124868280011086" lon="7.822292496046404"><ele>232.5</ele><time>2026-04-06T09:32:47Z</time></trkpt><trkpt lat="45.12494418617538" lon="7.822363315770176"><ele>232.33333333333331</ele><time>2026-04-06T09:32:49Z</time></trkpt><trkpt lat="45.12495477351004" lon="7.822468484187809"><ele>232.16666666666666</ele><time>2026-04-06T09:32:52Z</time></trkpt><trkpt lat="45.12489777873611" lon="7.8225316281882655"><ele>232.0</ele><time>2026-04-06T09:32:56Z</time></trkpt><trkpt lat="45.124848002835286" lon="7.822628777165735"><ele>232.49999999999997</ele><time>2026-04-06T09:33:00Z</time></trkpt><trkpt lat="45.12477960479179" lon="7.822721747890578"><ele>233.0</ele><time>2026-04-06T09:33:03Z</time></trkpt><trkpt lat="45.12472589529342" lon="7.822802520281139"><ele>233.5</ele><time>2026-04-06T09:33:06Z</time></trkpt><trkpt lat="45.12466871464187" lon="7.822869740675388"><ele>234.0</ele><time>2026-04-06T09:33:08Z</time></trkpt><trkpt lat="45.124593774796054" lon="7.822960450147871"><ele>234.49999999999997</ele><time>2026-04-06T09:33:12Z</time></trkpt><trkpt lat="45.12455327934571" lon="7.823080210103282"><ele>235.0</ele><time>2026-04-06T09:33:15Z</time></trkpt><trkpt lat="45.12461634282958" lon="7.823125661977586"><ele>235.0</ele><time>2026-04-06T09:33:17Z</time></trkpt><trkpt lat="45.12468664293127" lon="7.82320519439032"><ele>235.0</ele><time>2026-04-06T09:33:19Z</time></trkpt><trkpt lat="45.124766774578454" lon="7.823294366778198"><ele>235.0</ele><time>2026-04-06T09:33:21Z</time></trkpt><trkpt lat="45.12485565039778" lon="7.823385373479471"><ele>235.0</ele><time>2026-04-06T09:33:23Z</time></trkpt><trkpt lat="45.1249261135639" lon="7.823509473254052"><ele>235.0</ele><time>2026-04-06T09:33:25Z</time></trkpt><trkpt lat="45.12500459368375" lon="7.823639453503044"><ele>234.33333333333331</ele><time>2026-04-06T09:33:27Z</time></trkpt><trkpt lat="45.125043174001426" lon="7.82371176162243"><ele>233.66666666666666</ele><time>2026-04-06T09:33:27.999Z</time></trkpt><trkpt lat="45.125120275977274" lon="7.823843074414992"><ele>233.0</ele><time>2026-04-06T09:33:29.999Z</time></trkpt><trkpt lat="45.12515764139044" lon="7.823925225771256"><ele>232.33333333333331</ele><time>2026-04-06T09:33:30.999Z</time></trkpt><trkpt lat="45.1252264510615" lon="7.824048250502543"><ele>231.66666666666666</ele><time>2026-04-06T09:33:32.999Z</time></trkpt><trkpt lat="45.12527412073506" lon="7.824117054981108"><ele>231.0</ele><time>2026-04-06T09:33:33.999Z</time></trkpt><trkpt lat="45.12534930666696" lon="7.824213517983423"><ele>230.66666666666666</ele><time>2026-04-06T09:33:35.999Z</time></trkpt><trkpt lat="45.1253860765071" lon="7.824314250449158"><ele>230.33333333333331</ele><time>2026-04-06T09:33:37.999Z</time></trkpt><trkpt lat="45.125430802316984" lon="7.824431413937067"><ele>230.0</ele><time>2026-04-06T09:33:39.999Z</time></trkpt><trkpt lat="45.12546051722667" lon="7.824552524771416"><ele>229.66666666666666</ele><time>2026-04-06T09:33:41.999Z</time></trkpt><trkpt lat="45.125525711978135" lon="7.824617586603064"><ele>229.33333333333331</ele><time>2026-04-06T09:33:43.999Z</time></trkpt><trkpt lat="45.12557517442598" lon="7.8246853982531235"><ele>229.0</ele><time>2026-04-06T09:33:44.999Z</time></trkpt><trkpt lat="45.12563913446244" lon="7.824773613548116"><ele>228.99999999999997</ele><time>2026-04-06T09:33:46.999Z</time></trkpt><trkpt lat="45.12567516280367" lon="7.8248478281518"><ele>229.0</ele><time>2026-04-06T09:33:49.999Z</time></trkpt><trkpt lat="45.12573753640868" lon="7.824934009059126"><ele>229.0</ele><time>2026-04-06T09:33:52.999Z</time></trkpt><trkpt lat="45.125797073641664" lon="7.824984075088113"><ele>229.0</ele><time>2026-04-06T09:33:54.999Z</time></trkpt><trkpt lat="45.125863672345865" lon="7.825073904567175"><ele>228.99999999999997</ele><time>2026-04-06T09:33:56.999Z</time></trkpt><trkpt lat="45.1259363099295" lon="7.825180759117809"><ele>229.0</ele><time>2026-04-06T09:33:58.999Z</time></trkpt><trkpt lat="45.12601793552962" lon="7.8252961678594435"><ele>228.2</ele><time>2026-04-06T09:34:00.999Z</time></trkpt><trkpt lat="45.12610694590983" lon="7.8254110219794315"><ele>227.39999999999998</ele><time>2026-04-06T09:34:02.999Z</time></trkpt><trkpt lat="45.12619333367831" lon="7.825528502064538"><ele>226.6</ele><time>2026-04-06T09:34:04.999Z</time></trkpt><trkpt lat="45.12624633031976" lon="7.825580209772191"><ele>225.8</ele><time>2026-04-06T09:34:05.999Z</time></trkpt><trkpt lat="45.12632403051104" lon="7.8256764614500325"><ele>225.0</ele><time>2026-04-06T09:34:07.999Z</time></trkpt><trkpt lat="45.12642022554841" lon="7.825787786322521"><ele>225.0</ele><time>2026-04-06T09:34:09.999Z</time></trkpt><trkpt lat="45.12651554890105" lon="7.8258922270049815"><ele>225.0</ele><time>2026-04-06T09:34:11.999Z</time></trkpt><trkpt lat="45.126605215617516" lon="7.8259992297257215"><ele>225.0</ele><time>2026-04-06T09:34:13.999Z</time></trkpt><trkpt lat="45.12666176961799" lon="7.826063607387834"><ele>225.0</ele><time>2026-04-06T09:34:14.999Z</time></trkpt><trkpt lat="45.126754551022486" lon="7.82614173666248"><ele>225.0</ele><time>2026-04-06T09:34:16.999Z</time></trkpt><trkpt lat="45.126722701123285" lon="7.826273812580179"><ele>223.8</ele><time>2026-04-06T09:34:18.999Z</time></trkpt><trkpt lat="45.12669250781592" lon="7.826383541239669"><ele>222.6</ele><time>2026-04-06T09:34:20.999Z</time></trkpt><trkpt lat="45.12666270652855" lon="7.826492361660954"><ele>221.39999999999998</ele><time>2026-04-06T09:34:22.999Z</time></trkpt><trkpt lat="45.12666601883437" lon="7.8265928878043445"><ele>220.2</ele><time>2026-04-06T09:34:24.999Z</time></trkpt><trkpt lat="45.12676130439376" lon="7.826645894963668"><ele>219.0</ele><time>2026-04-06T09:34:26.999Z</time></trkpt><trkpt lat="45.126858073231055" lon="7.82674712174033"><ele>219.0</ele><time>2026-04-06T09:34:28.998Z</time></trkpt><trkpt lat="45.12691154124095" lon="7.82680305285289"><ele>219.0</ele><time>2026-04-06T09:34:29.998Z</time></trkpt><trkpt lat="45.12696647590362" lon="7.826880094270315"><ele>219.0</ele><time>2026-04-06T09:34:30.998Z</time></trkpt><trkpt lat="45.127033042670625" lon="7.826922780709947"><ele>219.0</ele><time>2026-04-06T09:34:31.998Z</time></trkpt><trkpt lat="45.12707332060166" lon="7.826992601578544"><ele>219.0</ele><time>2026-04-06T09:34:32.998Z</time></trkpt><trkpt lat="45.12713402710422" lon="7.827027356678066"><ele>219.0</ele><time>2026-04-06T09:34:33.998Z</time></trkpt><trkpt lat="45.12719319548977" lon="7.827087764780414"><ele>219.0</ele><time>2026-04-06T09:34:34.998Z</time></trkpt><trkpt lat="45.127252156060315" lon="7.827172621014023"><ele>218.33333333333334</ele><time>2026-04-06T09:34:35.998Z</time></trkpt><trkpt lat="45.12730874866393" lon="7.8272204599280535"><ele>217.66666666666669</ele><time>2026-04-06T09:34:36.998Z</time></trkpt><trkpt lat="45.127413823016724" lon="7.827311184203702"><ele>217.0</ele><time>2026-04-06T09:34:38.998Z</time></trkpt><trkpt lat="45.12747628511557" lon="7.827368304098798"><ele>216.33333333333334</ele><time>2026-04-06T09:34:39.998Z</time></trkpt><trkpt lat="45.12753181496921" lon="7.827420934607138"><ele>215.66666666666669</ele><time>2026-04-06T09:34:40.998Z</time></trkpt><trkpt lat="45.127603145385926" lon="7.82753035669265"><ele>215.0</ele><time>2026-04-06T09:34:43Z</time></trkpt><trkpt lat="45.12765859129643" lon="7.827612903476847"><ele>214.16666666666669</ele><time>2026-04-06T09:34:45Z</time></trkpt><trkpt lat="45.12766946174753" lon="7.8277074834824205"><ele>213.33333333333334</ele><time>2026-04-06T09:34:47Z</time></trkpt><trkpt lat="45.12762143102591" lon="7.827801956112257"><ele>212.5</ele><time>2026-04-06T09:34:49Z</time></trkpt><trkpt lat="45.1275853086862" lon="7.827907666682125"><ele>211.66666666666669</ele><time>2026-04-06T09:34:51Z</time></trkpt><trkpt lat="45.12754556189398" lon="7.828009385063559"><ele>210.83333333333334</ele><time>2026-04-06T09:34:53Z</time></trkpt><trkpt lat="45.127472218654226" lon="7.828115077760338"><ele>210.0</ele><time>2026-04-06T09:34:55Z</time></trkpt><trkpt lat="45.127424910094135" lon="7.828229374937501"><ele>209.8</ele><time>2026-04-06T09:34:57Z</time></trkpt><trkpt lat="45.12734367161041" lon="7.828346254096991"><ele>209.6</ele><time>2026-04-06T09:34:59Z</time></trkpt><trkpt lat="45.12727199314228" lon="7.8284530273130075"><ele>209.39999999999998</ele><time>2026-04-06T09:35:01Z</time></trkpt><trkpt lat="45.12720918162885" lon="7.828559076306824"><ele>209.2</ele><time>2026-04-06T09:35:03Z</time></trkpt><trkpt lat="45.12714062830385" lon="7.828651080243597"><ele>209.0</ele><time>2026-04-06T09:35:05Z</time></trkpt><trkpt lat="45.12708221960606" lon="7.828720302269892"><ele>209.0</ele><time>2026-04-06T09:35:07Z</time></trkpt><trkpt lat="45.12704582504125" lon="7.828804183443049"><ele>209.0</ele><time>2026-04-06T09:35:11Z</time></trkpt><trkpt lat="45.12710314452052" lon="7.828755981894135"><ele>209.0</ele><time>2026-04-06T09:35:15Z</time></trkpt><trkpt lat="45.127147860196494" lon="7.828690432689173"><ele>209.0</ele><time>2026-04-06T09:35:17Z</time></trkpt><trkpt lat="45.12719321463633" lon="7.82862558949388"><ele>209.0</ele><time>2026-04-06T09:35:19Z</time></trkpt><trkpt lat="45.12724601649531" lon="7.8285336804542185"><ele>209.0</ele><time>2026-04-06T09:35:20.999Z</time></trkpt><trkpt lat="45.12729732006617" lon="7.828462881224009"><ele>209.0</ele><time>2026-04-06T09:35:22.999Z</time></trkpt><trkpt lat="45.12735156566079" lon="7.828375143030601"><ele>209.16666666666669</ele><time>2026-04-06T09:35:24.999Z</time></trkpt><trkpt lat="45.12742056949476" lon="7.828298794197683"><ele>209.33333333333334</ele><time>2026-04-06T09:35:26.999Z</time></trkpt><trkpt lat="45.12746106328965" lon="7.82817922272559"><ele>209.5</ele><time>2026-04-06T09:35:28.999Z</time></trkpt><trkpt lat="45.12751547077241" lon="7.828090385184222"><ele>209.66666666666669</ele><time>2026-04-06T09:35:30.999Z</time></trkpt><trkpt lat="45.12756213438298" lon="7.827994105662231"><ele>209.83333333333334</ele><time>2026-04-06T09:35:32.999Z</time></trkpt><trkpt lat="45.127604503816485" lon="7.827912624328688"><ele>210.0</ele><time>2026-04-06T09:35:34.999Z</time></trkpt><trkpt lat="45.12765488926824" lon="7.827825693103493"><ele>210.0</ele><time>2026-04-06T09:35:36.999Z</time></trkpt><trkpt lat="45.127698313063505" lon="7.827742978015898"><ele>210.0</ele><time>2026-04-06T09:35:38.999Z</time></trkpt><trkpt lat="45.12774884169275" lon="7.827643757193916"><ele>210.0</ele><time>2026-04-06T09:35:40.999Z</time></trkpt><trkpt lat="45.12780486781423" lon="7.827561101726903"><ele>210.0</ele><time>2026-04-06T09:35:42.999Z</time></trkpt><trkpt lat="45.127857491780055" lon="7.827470518944726"><ele>210.0</ele><time>2026-04-06T09:35:44.999Z</time></trkpt><trkpt lat="45.12793897802819" lon="7.827412567999313"><ele>210.0</ele><time>2026-04-06T09:35:46.999Z</time></trkpt><trkpt lat="45.128022847647" lon="7.827345597401446"><ele>210.4</ele><time>2026-04-06T09:35:48.999Z</time></trkpt><trkpt lat="45.12810051878972" lon="7.8272860482143685"><ele>210.8</ele><time>2026-04-06T09:35:50.999Z</time></trkpt><trkpt lat="45.12817625760768" lon="7.82718526728274"><ele>211.2</ele><time>2026-04-06T09:35:52.999Z</time></trkpt><trkpt lat="45.128258546526546" lon="7.827098673264673"><ele>211.6</ele><time>2026-04-06T09:35:54.999Z</time></trkpt><trkpt lat="45.12832280936759" lon="7.826998620291925"><ele>212.0</ele><time>2026-04-06T09:35:56.999Z</time></trkpt><trkpt lat="45.128391617643636" lon="7.826880535529864"><ele>211.8</ele><time>2026-04-06T09:35:58.999Z</time></trkpt><trkpt lat="45.128457516043504" lon="7.826782133914182"><ele>211.6</ele><time>2026-04-06T09:36:00.999Z</time></trkpt><trkpt lat="45.12852742366992" lon="7.826698170659232"><ele>211.4</ele><time>2026-04-06T09:36:02.999Z</time></trkpt><trkpt lat="45.12860884399227" lon="7.826619709556192"><ele>211.20000000000002</ele><time>2026-04-06T09:36:04.999Z</time></trkpt><trkpt lat="45.12868769812565" lon="7.826547974843372"><ele>211.0</ele><time>2026-04-06T09:36:06.999Z</time></trkpt><trkpt lat="45.12878228563391" lon="7.826518010324102"><ele>211.0</ele><time>2026-04-06T09:36:08.999Z</time></trkpt><trkpt lat="45.12887909873269" lon="7.826496827415535"><ele>211.0</ele><time>2026-04-06T09:36:10.999Z</time></trkpt><trkpt lat="45.12897991915726" lon="7.826461456717105"><ele>211.0</ele><time>2026-04-06T09:36:12.999Z</time></trkpt><trkpt lat="45.12907405807844" lon="7.826430449030701"><ele>211.0</ele><time>2026-04-06T09:36:14.999Z</time></trkpt><trkpt lat="45.12914701541326" lon="7.826445817854824"><ele>211.0</ele><time>2026-04-06T09:36:16.999Z</time></trkpt><trkpt lat="45.12917860181226" lon="7.826598591813037"><ele>210.20000000000002</ele><time>2026-04-06T09:36:19.999Z</time></trkpt><trkpt lat="45.129200077306926" lon="7.8267222098380325"><ele>209.4</ele><time>2026-04-06T09:36:21.999Z</time></trkpt><trkpt lat="45.1292250651479" lon="7.82685411882117"><ele>208.6</ele><time>2026-04-06T09:36:23.999Z</time></trkpt><trkpt lat="45.12923959178553" lon="7.8269972600408995"><ele>207.8</ele><time>2026-04-06T09:36:25.998Z</time></trkpt><trkpt lat="45.12927558614684" lon="7.827145517313916"><ele>207.0</ele><time>2026-04-06T09:36:27.998Z</time></trkpt><trkpt lat="45.129303865158526" lon="7.827308761119499"><ele>207.0</ele><time>2026-04-06T09:36:29.998Z</time></trkpt><trkpt lat="45.1293429728364" lon="7.827467116768594"><ele>207.0</ele><time>2026-04-06T09:36:31.998Z</time></trkpt><trkpt lat="45.12937974319502" lon="7.82762656930044"><ele>207.0</ele><time>2026-04-06T09:36:33.998Z</time></trkpt><trkpt lat="45.12942572502406" lon="7.827777119507554"><ele>207.0</ele><time>2026-04-06T09:36:35.998Z</time></trkpt><trkpt lat="45.129457336388974" lon="7.82791605704631"><ele>207.0</ele><time>2026-04-06T09:36:37.998Z</time></trkpt><trkpt lat="45.12950905356798" lon="7.828080631781252"><ele>207.0</ele><time>2026-04-06T09:36:39.998Z</time></trkpt><trkpt lat="45.129548375385774" lon="7.828233083754525"><ele>207.0</ele><time>2026-04-06T09:36:41.998Z</time></trkpt><trkpt lat="45.1295832996705" lon="7.828387292148626"><ele>207.0</ele><time>2026-04-06T09:36:43.998Z</time></trkpt><trkpt lat="45.12962753551993" lon="7.8285458542134725"><ele>207.0</ele><time>2026-04-06T09:36:45.998Z</time></trkpt><trkpt lat="45.12966755258232" lon="7.828697383731767"><ele>207.0</ele><time>2026-04-06T09:36:48Z</time></trkpt><trkpt lat="45.12969567385112" lon="7.828833637155727"><ele>207.0</ele><time>2026-04-06T09:36:50Z</time></trkpt><trkpt lat="45.129749747032086" lon="7.828977500413615"><ele>207.0</ele><time>2026-04-06T09:36:52Z</time></trkpt><trkpt lat="45.1297833181776" lon="7.82911218770277"><ele>207.0</ele><time>2026-04-06T09:36:54Z</time></trkpt><trkpt lat="45.12969815369408" lon="7.8292116049607365"><ele>207.0</ele><time>2026-04-06T09:36:57Z</time></trkpt><trkpt lat="45.12961854652571" lon="7.829260952164058"><ele>207.0</ele><time>2026-04-06T09:36:59Z</time></trkpt><trkpt lat="45.12954308716868" lon="7.829320455699167"><ele>207.0</ele><time>2026-04-06T09:37:01Z</time></trkpt><trkpt lat="45.12946436241971" lon="7.829372872836988"><ele>207.0</ele><time>2026-04-06T09:37:03Z</time></trkpt><trkpt lat="45.129383065249" lon="7.829419520098144"><ele>207.0</ele><time>2026-04-06T09:37:05Z</time></trkpt><trkpt lat="45.129301023681556" lon="7.829484449709799"><ele>207.0</ele><time>2026-04-06T09:37:07Z</time></trkpt><trkpt lat="45.129213921673426" lon="7.829539112342021"><ele>206.0</ele><time>2026-04-06T09:37:09Z</time></trkpt><trkpt lat="45.12913554903111" lon="7.829601472815707"><ele>206.0</ele><time>2026-04-06T09:37:11Z</time></trkpt><trkpt lat="45.12906699354811" lon="7.8296453030898645"><ele>206.0</ele><time>2026-04-06T09:37:13Z</time></trkpt></trkseg></trk></gpx>